<?xml version="1.0" encoding="UTF-8" standalone="no" ?>
<gpx xmlns="http://www.topografix.com/GPX/1/1" xmlns:xsi="http://www.w3.org/2001/XMLSchema-instance" xsi:schemaLocation="http://www.topografix.com/GPX/1/1 http://www.topografix.com/GPX/1/1/gpx.xsd" version="1.1" creator="VisuGPX - https://www.visugpx.com">
  <metadata>
    <name>Gravel la Plaisançoise 14 Juin 80 Km</name>
  </metadata>
  <trk>
    <name><![CDATA[Gravel la Plaisançoise 14 Juin 80 Km]]></name>
    <trkseg>
      <trkpt lat="43.56324" lon="1.30978">
        <ele>161.562147</ele>
        <time>2026-04-17T10:04:30.666Z</time>
      </trkpt>
      <trkpt lat="43.56334" lon="1.30991">
        <ele>161.562147</ele>
        <time>2026-04-17T10:04:40.096Z</time>
      </trkpt>
      <trkpt lat="43.56347" lon="1.31031">
        <ele>161.562147</ele>
        <time>2026-04-17T10:05:02.074Z</time>
      </trkpt>
      <trkpt lat="43.56353" lon="1.31049">
        <ele>161.562147</ele>
        <time>2026-04-17T10:05:12.276Z</time>
      </trkpt>
      <trkpt lat="43.56356" lon="1.31053">
        <ele>161.562147</ele>
        <time>2026-04-17T10:05:15.047Z</time>
      </trkpt>
      <trkpt lat="43.56383" lon="1.3106">
        <ele>161.554963</ele>
        <time>2026-04-17T10:05:34.297Z</time>
      </trkpt>
      <trkpt lat="43.56404" lon="1.31118">
        <ele>161.341945</ele>
        <time>2026-04-17T10:05:42.994Z</time>
      </trkpt>
      <trkpt lat="43.56427" lon="1.31098">
        <ele>161.220108</ele>
        <time>2026-04-17T10:05:47.513Z</time>
      </trkpt>
      <trkpt lat="43.56439" lon="1.31102">
        <ele>161.164928</ele>
        <time>2026-04-17T10:05:49.527Z</time>
      </trkpt>
      <trkpt lat="43.56441" lon="1.3112">
        <ele>161.104037</ele>
        <time>2026-04-17T10:05:51.769Z</time>
      </trkpt>
      <trkpt lat="43.56446" lon="1.31135">
        <ele>161.047944</ele>
        <time>2026-04-17T10:05:53.823Z</time>
      </trkpt>
      <trkpt lat="43.56457" lon="1.31149">
        <ele>160.97943</ele>
        <time>2026-04-17T10:05:56.344Z</time>
      </trkpt>
      <trkpt lat="43.56476" lon="1.31181">
        <ele>160.843821</ele>
        <time>2026-04-17T10:06:01.532Z</time>
      </trkpt>
      <trkpt lat="43.56487" lon="1.31189">
        <ele>160.788875</ele>
        <time>2026-04-17T10:06:03.763Z</time>
      </trkpt>
      <trkpt lat="43.5652" lon="1.31202">
        <ele>160.700302</ele>
        <time>2026-04-17T10:06:10.404Z</time>
      </trkpt>
      <trkpt lat="43.56535" lon="1.31203">
        <ele>160.673725</ele>
        <time>2026-04-17T10:06:13.535Z</time>
      </trkpt>
      <trkpt lat="43.56571" lon="1.31193">
        <ele>160.60779</ele>
        <time>2026-04-17T10:06:21.510Z</time>
      </trkpt>
      <trkpt lat="43.56593" lon="1.31184">
        <ele>160.567032</ele>
        <time>2026-04-17T10:06:26.249Z</time>
      </trkpt>
      <trkpt lat="43.56629" lon="1.31219">
        <ele>160.487159</ele>
        <time>2026-04-17T10:06:34.431Z</time>
      </trkpt>
      <trkpt lat="43.56657" lon="1.31259">
        <ele>160.389237</ele>
        <time>2026-04-17T10:06:41.198Z</time>
      </trkpt>
      <trkpt lat="43.56665" lon="1.3127">
        <ele>160.284658</ele>
        <time>2026-04-17T10:06:43.127Z</time>
      </trkpt>
      <trkpt lat="43.56669" lon="1.31285">
        <ele>160.18485</ele>
        <time>2026-04-17T10:06:44.941Z</time>
      </trkpt>
      <trkpt lat="43.56675" lon="1.31326">
        <ele>159.913874</ele>
        <time>2026-04-17T10:06:49.760Z</time>
      </trkpt>
      <trkpt lat="43.56681" lon="1.31346">
        <ele>159.772903</ele>
        <time>2026-04-17T10:06:52.246Z</time>
      </trkpt>
      <trkpt lat="43.56731" lon="1.31409">
        <ele>159.169919</ele>
        <time>2026-04-17T10:07:03.179Z</time>
      </trkpt>
      <trkpt lat="43.56759" lon="1.31456">
        <ele>158.820481</ele>
        <time>2026-04-17T10:07:11.130Z</time>
      </trkpt>
      <trkpt lat="43.56768" lon="1.31477">
        <ele>158.819875</ele>
        <time>2026-04-17T10:07:14.744Z</time>
      </trkpt>
      <trkpt lat="43.56787" lon="1.31507">
        <ele>158.818911</ele>
        <time>2026-04-17T10:07:20.598Z</time>
      </trkpt>
      <trkpt lat="43.5682" lon="1.31577">
        <ele>158.81691</ele>
        <time>2026-04-17T10:07:32.948Z</time>
      </trkpt>
      <trkpt lat="43.56831" lon="1.31588">
        <ele>158.816472</ele>
        <time>2026-04-17T10:07:35.522Z</time>
      </trkpt>
      <trkpt lat="43.5685" lon="1.316">
        <ele>158.815752</ele>
        <time>2026-04-17T10:07:39.562Z</time>
      </trkpt>
      <trkpt lat="43.56866" lon="1.31601">
        <ele>158.815217</ele>
        <time>2026-04-17T10:07:42.505Z</time>
      </trkpt>
      <trkpt lat="43.56881" lon="1.31604">
        <ele>158.814737</ele>
        <time>2026-04-17T10:07:45.135Z</time>
      </trkpt>
      <trkpt lat="43.56884" lon="1.31608">
        <ele>158.809562</ele>
        <time>2026-04-17T10:07:45.895Z</time>
      </trkpt>
      <trkpt lat="43.56887" lon="1.31614">
        <ele>158.794644</ele>
        <time>2026-04-17T10:07:47.778Z</time>
      </trkpt>
      <trkpt lat="43.56887" lon="1.31644">
        <ele>158.732037</ele>
        <time>2026-04-17T10:07:51.612Z</time>
      </trkpt>
      <trkpt lat="43.56903" lon="1.31705">
        <ele>158.595833</ele>
        <time>2026-04-17T10:07:59.881Z</time>
      </trkpt>
      <trkpt lat="43.56924" lon="1.31814">
        <ele>158.359231</ele>
        <time>2026-04-17T10:08:14.889Z</time>
      </trkpt>
      <trkpt lat="43.5693" lon="1.31829">
        <ele>158.323479</ele>
        <time>2026-04-17T10:08:17.263Z</time>
      </trkpt>
      <trkpt lat="43.56937" lon="1.31867">
        <ele>158.38049</ele>
        <time>2026-04-17T10:08:22.952Z</time>
      </trkpt>
      <trkpt lat="43.56953" lon="1.31889">
        <ele>158.480471</ele>
        <time>2026-04-17T10:08:27.489Z</time>
      </trkpt>
      <trkpt lat="43.56974" lon="1.3191">
        <ele>158.597513</ele>
        <time>2026-04-17T10:08:32.896Z</time>
      </trkpt>
      <trkpt lat="43.57014" lon="1.31928">
        <ele>158.790525</ele>
        <time>2026-04-17T10:08:42.262Z</time>
      </trkpt>
      <trkpt lat="43.57067" lon="1.31967">
        <ele>159.059258</ele>
        <time>2026-04-17T10:08:55.706Z</time>
      </trkpt>
      <trkpt lat="43.57102" lon="1.31989">
        <ele>158.961378</ele>
        <time>2026-04-17T10:09:04.368Z</time>
      </trkpt>
      <trkpt lat="43.57133" lon="1.32003">
        <ele>158.793736</ele>
        <time>2026-04-17T10:09:10.757Z</time>
      </trkpt>
      <trkpt lat="43.57155" lon="1.32022">
        <ele>158.656458</ele>
        <time>2026-04-17T10:09:15.517Z</time>
      </trkpt>
      <trkpt lat="43.57172" lon="1.32041">
        <ele>158.54135</ele>
        <time>2026-04-17T10:09:19.314Z</time>
      </trkpt>
      <trkpt lat="43.57188" lon="1.32093">
        <ele>158.327917</ele>
        <time>2026-04-17T10:09:26.076Z</time>
      </trkpt>
      <trkpt lat="43.57197" lon="1.32123">
        <ele>158.204379</ele>
        <time>2026-04-17T10:09:29.871Z</time>
      </trkpt>
      <trkpt lat="43.57191" lon="1.32182">
        <ele>157.819989</ele>
        <time>2026-04-17T10:09:36.779Z</time>
      </trkpt>
      <trkpt lat="43.57172" lon="1.32249">
        <ele>157.317506</ele>
        <time>2026-04-17T10:09:45.188Z</time>
      </trkpt>
      <trkpt lat="43.57171" lon="1.32275">
        <ele>157.134729</ele>
        <time>2026-04-17T10:09:48.351Z</time>
      </trkpt>
      <trkpt lat="43.57178" lon="1.32364">
        <ele>156.507809</ele>
        <time>2026-04-17T10:09:59.905Z</time>
      </trkpt>
      <trkpt lat="43.57175" lon="1.32402">
        <ele>156.428247</ele>
        <time>2026-04-17T10:10:05.078Z</time>
      </trkpt>
      <trkpt lat="43.57145" lon="1.32537">
        <ele>156.408332</ele>
        <time>2026-04-17T10:10:25.176Z</time>
      </trkpt>
      <trkpt lat="43.57122" lon="1.32619">
        <ele>156.395116</ele>
        <time>2026-04-17T10:10:37.674Z</time>
      </trkpt>
      <trkpt lat="43.57115" lon="1.32659">
        <ele>156.385309</ele>
        <time>2026-04-17T10:10:43.370Z</time>
      </trkpt>
      <trkpt lat="43.57112" lon="1.32683">
        <ele>156.379429</ele>
        <time>2026-04-17T10:10:46.766Z</time>
      </trkpt>
      <trkpt lat="43.57113" lon="1.32702">
        <ele>156.375046</ele>
        <time>2026-04-17T10:10:49.306Z</time>
      </trkpt>
      <trkpt lat="43.57118" lon="1.32719">
        <ele>156.37067</ele>
        <time>2026-04-17T10:10:51.816Z</time>
      </trkpt>
      <trkpt lat="43.57142" lon="1.3276">
        <ele>156.358007</ele>
        <time>2026-04-17T10:10:59.036Z</time>
      </trkpt>
      <trkpt lat="43.57163" lon="1.32786">
        <ele>156.348535</ele>
        <time>2026-04-17T10:11:04.398Z</time>
      </trkpt>
      <trkpt lat="43.57209" lon="1.32833">
        <ele>156.329381</ele>
        <time>2026-04-17T10:11:15.241Z</time>
      </trkpt>
      <trkpt lat="43.57282" lon="1.32897">
        <ele>156.299473</ele>
        <time>2026-04-17T10:11:32.214Z</time>
      </trkpt>
      <trkpt lat="43.57302" lon="1.32919">
        <ele>156.290712</ele>
        <time>2026-04-17T10:11:37.019Z</time>
      </trkpt>
      <trkpt lat="43.57316" lon="1.3294">
        <ele>156.283432</ele>
        <time>2026-04-17T10:11:40.973Z</time>
      </trkpt>
      <trkpt lat="43.57343" lon="1.32987">
        <ele>156.156095</ele>
        <time>2026-04-17T10:11:49.032Z</time>
      </trkpt>
      <trkpt lat="43.57358" lon="1.33006">
        <ele>156.031844</ele>
        <time>2026-04-17T10:11:52.912Z</time>
      </trkpt>
      <trkpt lat="43.57368" lon="1.33021">
        <ele>155.945904</ele>
        <time>2026-04-17T10:11:55.549Z</time>
      </trkpt>
      <trkpt lat="43.57369" lon="1.33023">
        <ele>155.9379</ele>
        <time>2026-04-17T10:11:55.785Z</time>
      </trkpt>
      <trkpt lat="43.57378" lon="1.33035">
        <ele>155.86581</ele>
        <time>2026-04-17T10:11:59.484Z</time>
      </trkpt>
      <trkpt lat="43.57394" lon="1.33044">
        <ele>155.761401</ele>
        <time>2026-04-17T10:12:02.683Z</time>
      </trkpt>
      <trkpt lat="43.57411" lon="1.33077">
        <ele>155.585942</ele>
        <time>2026-04-17T10:12:07.904Z</time>
      </trkpt>
      <trkpt lat="43.57435" lon="1.33134">
        <ele>155.304312</ele>
        <time>2026-04-17T10:12:16.417Z</time>
      </trkpt>
      <trkpt lat="43.57438" lon="1.3315">
        <ele>155.236024</ele>
        <time>2026-04-17T10:12:18.392Z</time>
      </trkpt>
      <trkpt lat="43.57438" lon="1.33152">
        <ele>155.224548</ele>
        <time>2026-04-17T10:12:18.727Z</time>
      </trkpt>
      <trkpt lat="43.57446" lon="1.33175">
        <ele>155.14568</ele>
        <time>2026-04-17T10:12:22.036Z</time>
      </trkpt>
      <trkpt lat="43.57465" lon="1.33202">
        <ele>155.032014</ele>
        <time>2026-04-17T10:12:27.025Z</time>
      </trkpt>
      <trkpt lat="43.57475" lon="1.3322">
        <ele>154.965946</ele>
        <time>2026-04-17T10:12:29.910Z</time>
      </trkpt>
      <trkpt lat="43.5749" lon="1.3325">
        <ele>154.855849</ele>
        <time>2026-04-17T10:12:34.799Z</time>
      </trkpt>
      <trkpt lat="43.57497" lon="1.33271">
        <ele>154.786869</ele>
        <time>2026-04-17T10:12:37.898Z</time>
      </trkpt>
      <trkpt lat="43.57507" lon="1.33316">
        <ele>154.646153</ele>
        <time>2026-04-17T10:12:44.409Z</time>
      </trkpt>
      <trkpt lat="43.57509" lon="1.33339">
        <ele>154.576663</ele>
        <time>2026-04-17T10:12:47.804Z</time>
      </trkpt>
      <trkpt lat="43.57513" lon="1.33355">
        <ele>154.527503</ele>
        <time>2026-04-17T10:12:50.284Z</time>
      </trkpt>
      <trkpt lat="43.57529" lon="1.33379">
        <ele>154.459578</ele>
        <time>2026-04-17T10:12:55.076Z</time>
      </trkpt>
      <trkpt lat="43.5756" lon="1.33438">
        <ele>154.397215</ele>
        <time>2026-04-17T10:13:05.984Z</time>
      </trkpt>
      <trkpt lat="43.57574" lon="1.33477">
        <ele>154.360793</ele>
        <time>2026-04-17T10:13:12.273Z</time>
      </trkpt>
      <trkpt lat="43.57604" lon="1.3354">
        <ele>154.29705</ele>
        <time>2026-04-17T10:13:22.848Z</time>
      </trkpt>
      <trkpt lat="43.57612" lon="1.33557">
        <ele>154.280174</ele>
        <time>2026-04-17T10:13:25.550Z</time>
      </trkpt>
      <trkpt lat="43.57618" lon="1.33588">
        <ele>154.227581</ele>
        <time>2026-04-17T10:13:29.811Z</time>
      </trkpt>
      <trkpt lat="43.57622" lon="1.33625">
        <ele>154.089004</ele>
        <time>2026-04-17T10:13:34.840Z</time>
      </trkpt>
      <trkpt lat="43.57628" lon="1.33728">
        <ele>153.71476</ele>
        <time>2026-04-17T10:13:48.716Z</time>
      </trkpt>
      <trkpt lat="43.57628" lon="1.33785">
        <ele>153.510161</ele>
        <time>2026-04-17T10:13:56.159Z</time>
      </trkpt>
      <trkpt lat="43.57628" lon="1.33796">
        <ele>153.467692</ele>
        <time>2026-04-17T10:13:57.736Z</time>
      </trkpt>
      <trkpt lat="43.57625" lon="1.33804">
        <ele>153.43586</ele>
        <time>2026-04-17T10:13:58.742Z</time>
      </trkpt>
      <trkpt lat="43.57622" lon="1.33819">
        <ele>153.379672</ele>
        <time>2026-04-17T10:14:00.573Z</time>
      </trkpt>
      <trkpt lat="43.5762" lon="1.33868">
        <ele>153.337683</ele>
        <time>2026-04-17T10:14:06.412Z</time>
      </trkpt>
      <trkpt lat="43.57613" lon="1.33899">
        <ele>153.321198</ele>
        <time>2026-04-17T10:14:10.875Z</time>
      </trkpt>
      <trkpt lat="43.57599" lon="1.33919">
        <ele>153.30709</ele>
        <time>2026-04-17T10:14:14.754Z</time>
      </trkpt>
      <trkpt lat="43.5758" lon="1.33944">
        <ele>153.288327</ele>
        <time>2026-04-17T10:14:20.032Z</time>
      </trkpt>
      <trkpt lat="43.57578" lon="1.33955">
        <ele>153.282744</ele>
        <time>2026-04-17T10:14:21.567Z</time>
      </trkpt>
      <trkpt lat="43.5758" lon="1.33963">
        <ele>153.278421</ele>
        <time>2026-04-17T10:14:22.755Z</time>
      </trkpt>
      <trkpt lat="43.57596" lon="1.33986">
        <ele>153.261775</ele>
        <time>2026-04-17T10:14:27.366Z</time>
      </trkpt>
      <trkpt lat="43.57611" lon="1.33997">
        <ele>153.249658</ele>
        <time>2026-04-17T10:14:30.808Z</time>
      </trkpt>
      <trkpt lat="43.57624" lon="1.34011">
        <ele>153.237921</ele>
        <time>2026-04-17T10:14:34.299Z</time>
      </trkpt>
      <trkpt lat="43.57628" lon="1.34019">
        <ele>153.233047</ele>
        <time>2026-04-17T10:14:35.823Z</time>
      </trkpt>
      <trkpt lat="43.57627" lon="1.34025">
        <ele>153.242406</ele>
        <time>2026-04-17T10:14:36.751Z</time>
      </trkpt>
      <trkpt lat="43.57613" lon="1.34061">
        <ele>153.307013</ele>
        <time>2026-04-17T10:14:43.179Z</time>
      </trkpt>
      <trkpt lat="43.57605" lon="1.34129">
        <ele>153.416788</ele>
        <time>2026-04-17T10:14:53.972Z</time>
      </trkpt>
      <trkpt lat="43.57608" lon="1.34151">
        <ele>153.450755</ele>
        <time>2026-04-17T10:14:57.388Z</time>
      </trkpt>
      <trkpt lat="43.57614" lon="1.34166">
        <ele>153.478836</ele>
        <time>2026-04-17T10:15:00.160Z</time>
      </trkpt>
      <trkpt lat="43.5765" lon="1.34218">
        <ele>153.593046</ele>
        <time>2026-04-17T10:15:10.865Z</time>
      </trkpt>
      <trkpt lat="43.57677" lon="1.34249">
        <ele>153.602967</ele>
        <time>2026-04-17T10:15:17.615Z</time>
      </trkpt>
      <trkpt lat="43.57707" lon="1.34264">
        <ele>153.56493</ele>
        <time>2026-04-17T10:15:23.659Z</time>
      </trkpt>
      <trkpt lat="43.57731" lon="1.3427">
        <ele>153.535525</ele>
        <time>2026-04-17T10:15:28.381Z</time>
      </trkpt>
      <trkpt lat="43.57738" lon="1.34282">
        <ele>153.522495</ele>
        <time>2026-04-17T10:15:30.482Z</time>
      </trkpt>
      <trkpt lat="43.57768" lon="1.34287">
        <ele>153.48609</ele>
        <time>2026-04-17T10:15:36.433Z</time>
      </trkpt>
      <trkpt lat="43.57796" lon="1.34304">
        <ele>153.449565</ele>
        <time>2026-04-17T10:15:42.126Z</time>
      </trkpt>
      <trkpt lat="43.57782" lon="1.34333">
        <ele>153.419411</ele>
        <time>2026-04-17T10:15:46.374Z</time>
      </trkpt>
      <trkpt lat="43.57775" lon="1.3434">
        <ele>153.409714</ele>
        <time>2026-04-17T10:15:47.878Z</time>
      </trkpt>
      <trkpt lat="43.57738" lon="1.34356">
        <ele>153.361968</ele>
        <time>2026-04-17T10:15:55.026Z</time>
      </trkpt>
      <trkpt lat="43.57735" lon="1.34357">
        <ele>153.357127</ele>
        <time>2026-04-17T10:15:55.755Z</time>
      </trkpt>
      <trkpt lat="43.57736" lon="1.34361">
        <ele>153.352973</ele>
        <time>2026-04-17T10:15:56.327Z</time>
      </trkpt>
      <trkpt lat="43.57776" lon="1.34352">
        <ele>153.303536</ele>
        <time>2026-04-17T10:16:04.253Z</time>
      </trkpt>
      <trkpt lat="43.57798" lon="1.34362">
        <ele>153.2743</ele>
        <time>2026-04-17T10:16:08.934Z</time>
      </trkpt>
      <trkpt lat="43.57804" lon="1.34369">
        <ele>153.265061</ele>
        <time>2026-04-17T10:16:10.400Z</time>
      </trkpt>
      <trkpt lat="43.57808" lon="1.34383">
        <ele>153.251598</ele>
        <time>2026-04-17T10:16:12.515Z</time>
      </trkpt>
      <trkpt lat="43.57808" lon="1.34405">
        <ele>153.232159</ele>
        <time>2026-04-17T10:16:15.551Z</time>
      </trkpt>
      <trkpt lat="43.57804" lon="1.34426">
        <ele>153.212312</ele>
        <time>2026-04-17T10:16:18.644Z</time>
      </trkpt>
      <trkpt lat="43.57788" lon="1.34496">
        <ele>153.214529</ele>
        <time>2026-04-17T10:16:28.175Z</time>
      </trkpt>
      <trkpt lat="43.57776" lon="1.34574">
        <ele>153.256845</ele>
        <time>2026-04-17T10:16:38.984Z</time>
      </trkpt>
      <trkpt lat="43.57776" lon="1.3459">
        <ele>153.26548</ele>
        <time>2026-04-17T10:16:41.413Z</time>
      </trkpt>
      <trkpt lat="43.57784" lon="1.34658">
        <ele>153.302345</ele>
        <time>2026-04-17T10:16:52.053Z</time>
      </trkpt>
      <trkpt lat="43.57791" lon="1.3469">
        <ele>153.32</ele>
        <time>2026-04-17T10:16:57.303Z</time>
      </trkpt>
      <trkpt lat="43.57802" lon="1.3472">
        <ele>153.293836</ele>
        <time>2026-04-17T10:17:02.494Z</time>
      </trkpt>
      <trkpt lat="43.57856" lon="1.34826">
        <ele>153.177566</ele>
        <time>2026-04-17T10:17:22.232Z</time>
      </trkpt>
      <trkpt lat="43.57859" lon="1.34828">
        <ele>153.173179</ele>
        <time>2026-04-17T10:17:22.887Z</time>
      </trkpt>
      <trkpt lat="43.57874" lon="1.34835">
        <ele>153.15386</ele>
        <time>2026-04-17T10:17:28.047Z</time>
      </trkpt>
      <trkpt lat="43.57887" lon="1.34846">
        <ele>153.134822</ele>
        <time>2026-04-17T10:17:33.052Z</time>
      </trkpt>
      <trkpt lat="43.57926" lon="1.34894">
        <ele>152.87587</ele>
        <time>2026-04-17T10:17:49.388Z</time>
      </trkpt>
      <trkpt lat="43.57979" lon="1.34934">
        <ele>152.29531</ele>
        <time>2026-04-17T10:18:07.237Z</time>
      </trkpt>
      <trkpt lat="43.58004" lon="1.34967">
        <ele>151.967201</ele>
        <time>2026-04-17T10:18:17.708Z</time>
      </trkpt>
      <trkpt lat="43.58016" lon="1.34978">
        <ele>151.825926</ele>
        <time>2026-04-17T10:18:22.316Z</time>
      </trkpt>
      <trkpt lat="43.58056" lon="1.35">
        <ele>151.402683</ele>
        <time>2026-04-17T10:18:36.423Z</time>
      </trkpt>
      <trkpt lat="43.58106" lon="1.35011">
        <ele>151.597544</ele>
        <time>2026-04-17T10:18:53.410Z</time>
      </trkpt>
      <trkpt lat="43.58123" lon="1.35022">
        <ele>151.690994</ele>
        <time>2026-04-17T10:19:00.105Z</time>
      </trkpt>
      <trkpt lat="43.58125" lon="1.35027">
        <ele>151.71207</ele>
        <time>2026-04-17T10:19:01.638Z</time>
      </trkpt>
      <trkpt lat="43.58137" lon="1.35032">
        <ele>151.775795</ele>
        <time>2026-04-17T10:19:04.618Z</time>
      </trkpt>
      <trkpt lat="43.5817" lon="1.35018">
        <ele>151.948818</ele>
        <time>2026-04-17T10:19:12.824Z</time>
      </trkpt>
      <trkpt lat="43.58183" lon="1.35007">
        <ele>152.028273</ele>
        <time>2026-04-17T10:19:18.522Z</time>
      </trkpt>
      <trkpt lat="43.58193" lon="1.35004">
        <ele>152.079713</ele>
        <time>2026-04-17T10:19:22.168Z</time>
      </trkpt>
      <trkpt lat="43.58206" lon="1.34985">
        <ele>152.174534</ele>
        <time>2026-04-17T10:19:28.731Z</time>
      </trkpt>
      <trkpt lat="43.58222" lon="1.34964">
        <ele>152.301838</ele>
        <time>2026-04-17T10:19:33.534Z</time>
      </trkpt>
      <trkpt lat="43.58269" lon="1.34923">
        <ele>152.972229</ele>
        <time>2026-04-17T10:19:45.905Z</time>
      </trkpt>
      <trkpt lat="43.58274" lon="1.34918">
        <ele>153.053908</ele>
        <time>2026-04-17T10:19:47.557Z</time>
      </trkpt>
      <trkpt lat="43.58285" lon="1.34903">
        <ele>153.2451</ele>
        <time>2026-04-17T10:19:51.490Z</time>
      </trkpt>
      <trkpt lat="43.58281" lon="1.34898">
        <ele>153.309757</ele>
        <time>2026-04-17T10:19:53.158Z</time>
      </trkpt>
      <trkpt lat="43.58238" lon="1.34845">
        <ele>154.013455</ele>
        <time>2026-04-17T10:20:12.167Z</time>
      </trkpt>
      <trkpt lat="43.58246" lon="1.34831">
        <ele>154.173916</ele>
        <time>2026-04-17T10:20:16.681Z</time>
      </trkpt>
      <trkpt lat="43.58267" lon="1.34797">
        <ele>154.577136</ele>
        <time>2026-04-17T10:20:27.888Z</time>
      </trkpt>
      <trkpt lat="43.58276" lon="1.34781">
        <ele>154.78916</ele>
        <time>2026-04-17T10:20:33.081Z</time>
      </trkpt>
      <trkpt lat="43.5828" lon="1.34773">
        <ele>154.897247</ele>
        <time>2026-04-17T10:20:35.750Z</time>
      </trkpt>
      <trkpt lat="43.58288" lon="1.34768">
        <ele>155.019451</ele>
        <time>2026-04-17T10:20:38.701Z</time>
      </trkpt>
      <trkpt lat="43.58297" lon="1.34754">
        <ele>155.216015</ele>
        <time>2026-04-17T10:20:42.196Z</time>
      </trkpt>
      <trkpt lat="43.58306" lon="1.34737">
        <ele>155.433834</ele>
        <time>2026-04-17T10:20:46.081Z</time>
      </trkpt>
      <trkpt lat="43.58311" lon="1.3473">
        <ele>155.526414</ele>
        <time>2026-04-17T10:20:47.762Z</time>
      </trkpt>
      <trkpt lat="43.58315" lon="1.34723">
        <ele>155.628844</ele>
        <time>2026-04-17T10:20:49.529Z</time>
      </trkpt>
      <trkpt lat="43.58318" lon="1.34719">
        <ele>155.68006</ele>
        <time>2026-04-17T10:20:50.434Z</time>
      </trkpt>
      <trkpt lat="43.58332" lon="1.34696">
        <ele>155.995776</ele>
        <time>2026-04-17T10:20:55.710Z</time>
      </trkpt>
      <trkpt lat="43.58377" lon="1.3463">
        <ele>156.927424</ele>
        <time>2026-04-17T10:21:09.729Z</time>
      </trkpt>
      <trkpt lat="43.58382" lon="1.34625">
        <ele>157.021474</ele>
        <time>2026-04-17T10:21:11.201Z</time>
      </trkpt>
      <trkpt lat="43.58378" lon="1.34617">
        <ele>157.068081</ele>
        <time>2026-04-17T10:21:12.784Z</time>
      </trkpt>
      <trkpt lat="43.58376" lon="1.34613">
        <ele>157.083607</ele>
        <time>2026-04-17T10:21:13.399Z</time>
      </trkpt>
      <trkpt lat="43.58353" lon="1.3457">
        <ele>157.291262</ele>
        <time>2026-04-17T10:21:21.459Z</time>
      </trkpt>
      <trkpt lat="43.58348" lon="1.34561">
        <ele>157.333476</ele>
        <time>2026-04-17T10:21:23.027Z</time>
      </trkpt>
      <trkpt lat="43.5835" lon="1.34553">
        <ele>157.367013</ele>
        <time>2026-04-17T10:21:24.281Z</time>
      </trkpt>
      <trkpt lat="43.58347" lon="1.34546">
        <ele>157.4007</ele>
        <time>2026-04-17T10:21:25.514Z</time>
      </trkpt>
      <trkpt lat="43.58351" lon="1.34539">
        <ele>157.434433</ele>
        <time>2026-04-17T10:21:26.797Z</time>
      </trkpt>
      <trkpt lat="43.58367" lon="1.34515">
        <ele>157.560843</ele>
        <time>2026-04-17T10:21:31.477Z</time>
      </trkpt>
      <trkpt lat="43.58368" lon="1.34513">
        <ele>157.567093</ele>
        <time>2026-04-17T10:21:31.713Z</time>
      </trkpt>
      <trkpt lat="43.58434" lon="1.34408">
        <ele>158.049214</ele>
        <time>2026-04-17T10:21:50.606Z</time>
      </trkpt>
      <trkpt lat="43.58439" lon="1.34415">
        <ele>158.071083</ele>
        <time>2026-04-17T10:21:51.909Z</time>
      </trkpt>
      <trkpt lat="43.58444" lon="1.34414">
        <ele>158.086613</ele>
        <time>2026-04-17T10:21:53.149Z</time>
      </trkpt>
      <trkpt lat="43.58447" lon="1.34421">
        <ele>158.104239</ele>
        <time>2026-04-17T10:21:54.562Z</time>
      </trkpt>
      <trkpt lat="43.58452" lon="1.34417">
        <ele>158.120691</ele>
        <time>2026-04-17T10:21:55.520Z</time>
      </trkpt>
      <trkpt lat="43.5846" lon="1.34411">
        <ele>158.14628</ele>
        <time>2026-04-17T10:21:57.098Z</time>
      </trkpt>
      <trkpt lat="43.58464" lon="1.34407">
        <ele>158.161917</ele>
        <time>2026-04-17T10:21:58.014Z</time>
      </trkpt>
      <trkpt lat="43.58467" lon="1.34404">
        <ele>158.173005</ele>
        <time>2026-04-17T10:21:58.706Z</time>
      </trkpt>
      <trkpt lat="43.58466" lon="1.34393">
        <ele>158.197154</ele>
        <time>2026-04-17T10:22:00.368Z</time>
      </trkpt>
      <trkpt lat="43.58467" lon="1.34379">
        <ele>158.226764</ele>
        <time>2026-04-17T10:22:02.413Z</time>
      </trkpt>
      <trkpt lat="43.58464" lon="1.34376">
        <ele>158.240098</ele>
        <time>2026-04-17T10:22:03.369Z</time>
      </trkpt>
      <trkpt lat="43.58458" lon="1.34369">
        <ele>158.261474</ele>
        <time>2026-04-17T10:22:04.686Z</time>
      </trkpt>
      <trkpt lat="43.58451" lon="1.3436">
        <ele>158.289254</ele>
        <time>2026-04-17T10:22:06.436Z</time>
      </trkpt>
      <trkpt lat="43.58454" lon="1.34356">
        <ele>158.300337</ele>
        <time>2026-04-17T10:22:07.113Z</time>
      </trkpt>
      <trkpt lat="43.58511" lon="1.34261">
        <ele>158.491662</ele>
        <time>2026-04-17T10:22:23.754Z</time>
      </trkpt>
      <trkpt lat="43.58516" lon="1.34253">
        <ele>158.480992</ele>
        <time>2026-04-17T10:22:25.318Z</time>
      </trkpt>
      <trkpt lat="43.58519" lon="1.34247">
        <ele>158.47428</ele>
        <time>2026-04-17T10:22:26.296Z</time>
      </trkpt>
      <trkpt lat="43.58598" lon="1.34122">
        <ele>158.317012</ele>
        <time>2026-04-17T10:22:46.396Z</time>
      </trkpt>
      <trkpt lat="43.58619" lon="1.34087">
        <ele>158.269448</ele>
        <time>2026-04-17T10:22:51.535Z</time>
      </trkpt>
      <trkpt lat="43.58621" lon="1.34076">
        <ele>158.248176</ele>
        <time>2026-04-17T10:22:52.764Z</time>
      </trkpt>
      <trkpt lat="43.58624" lon="1.3407">
        <ele>158.233169</ele>
        <time>2026-04-17T10:22:53.632Z</time>
      </trkpt>
      <trkpt lat="43.58627" lon="1.34065">
        <ele>158.219746</ele>
        <time>2026-04-17T10:22:54.392Z</time>
      </trkpt>
      <trkpt lat="43.58637" lon="1.34059">
        <ele>158.192289</ele>
        <time>2026-04-17T10:22:55.977Z</time>
      </trkpt>
      <trkpt lat="43.58651" lon="1.34035">
        <ele>158.130936</ele>
        <time>2026-04-17T10:22:59.494Z</time>
      </trkpt>
      <trkpt lat="43.58694" lon="1.33964">
        <ele>157.949833</ele>
        <time>2026-04-17T10:23:10.220Z</time>
      </trkpt>
      <trkpt lat="43.58701" lon="1.33944">
        <ele>157.906774</ele>
        <time>2026-04-17T10:23:12.881Z</time>
      </trkpt>
      <trkpt lat="43.58708" lon="1.3394">
        <ele>157.886616</ele>
        <time>2026-04-17T10:23:14.160Z</time>
      </trkpt>
      <trkpt lat="43.58716" lon="1.3393">
        <ele>157.858051</ele>
        <time>2026-04-17T10:23:16.076Z</time>
      </trkpt>
      <trkpt lat="43.58782" lon="1.33821">
        <ele>158.30715</ele>
        <time>2026-04-17T10:23:35.942Z</time>
      </trkpt>
      <trkpt lat="43.58786" lon="1.33814">
        <ele>158.349771</ele>
        <time>2026-04-17T10:23:37.336Z</time>
      </trkpt>
      <trkpt lat="43.58785" lon="1.33798">
        <ele>158.422833</ele>
        <time>2026-04-17T10:23:39.693Z</time>
      </trkpt>
      <trkpt lat="43.58782" lon="1.33794">
        <ele>158.449794</ele>
        <time>2026-04-17T10:23:40.590Z</time>
      </trkpt>
      <trkpt lat="43.58786" lon="1.33789">
        <ele>158.485833</ele>
        <time>2026-04-17T10:23:41.742Z</time>
      </trkpt>
      <trkpt lat="43.58788" lon="1.33785">
        <ele>158.51031</ele>
        <time>2026-04-17T10:23:42.496Z</time>
      </trkpt>
      <trkpt lat="43.58805" lon="1.33782">
        <ele>158.619647</ele>
        <time>2026-04-17T10:23:45.818Z</time>
      </trkpt>
      <trkpt lat="43.58809" lon="1.33777">
        <ele>158.654234</ele>
        <time>2026-04-17T10:23:46.868Z</time>
      </trkpt>
      <trkpt lat="43.58856" lon="1.33697">
        <ele>159.60215</ele>
        <time>2026-04-17T10:24:01.849Z</time>
      </trkpt>
      <trkpt lat="43.58859" lon="1.33692">
        <ele>159.716959</ele>
        <time>2026-04-17T10:24:02.995Z</time>
      </trkpt>
      <trkpt lat="43.58859" lon="1.33686">
        <ele>159.814363</ele>
        <time>2026-04-17T10:24:03.943Z</time>
      </trkpt>
      <trkpt lat="43.58867" lon="1.33697">
        <ele>160.082224</ele>
        <time>2026-04-17T10:24:06.906Z</time>
      </trkpt>
      <trkpt lat="43.58874" lon="1.33703">
        <ele>160.275438</ele>
        <time>2026-04-17T10:24:09.088Z</time>
      </trkpt>
      <trkpt lat="43.58908" lon="1.33743">
        <ele>161.324073</ele>
        <time>2026-04-17T10:24:22.047Z</time>
      </trkpt>
      <trkpt lat="43.58913" lon="1.33742">
        <ele>161.456928</ele>
        <time>2026-04-17T10:24:23.712Z</time>
      </trkpt>
      <trkpt lat="43.5897" lon="1.33639">
        <ele>163.660516</ele>
        <time>2026-04-17T10:24:54.643Z</time>
      </trkpt>
      <trkpt lat="43.58972" lon="1.33623">
        <ele>163.920354</ele>
        <time>2026-04-17T10:24:58.507Z</time>
      </trkpt>
      <trkpt lat="43.58978" lon="1.33616">
        <ele>164.110141</ele>
        <time>2026-04-17T10:25:02.623Z</time>
      </trkpt>
      <trkpt lat="43.58997" lon="1.33572">
        <ele>164.96132</ele>
        <time>2026-04-17T10:25:20.041Z</time>
      </trkpt>
      <trkpt lat="43.58997" lon="1.33565">
        <ele>165.087622</ele>
        <time>2026-04-17T10:25:22.412Z</time>
      </trkpt>
      <trkpt lat="43.58974" lon="1.33532">
        <ele>165.850988</ele>
        <time>2026-04-17T10:25:36.068Z</time>
      </trkpt>
      <trkpt lat="43.58959" lon="1.3352">
        <ele>166.255041</ele>
        <time>2026-04-17T10:25:42.666Z</time>
      </trkpt>
      <trkpt lat="43.58954" lon="1.33512">
        <ele>166.419832</ele>
        <time>2026-04-17T10:25:45.295Z</time>
      </trkpt>
      <trkpt lat="43.58953" lon="1.33498">
        <ele>166.66321</ele>
        <time>2026-04-17T10:25:49.091Z</time>
      </trkpt>
      <trkpt lat="43.58945" lon="1.3348">
        <ele>167.007793</ele>
        <time>2026-04-17T10:25:54.519Z</time>
      </trkpt>
      <trkpt lat="43.58923" lon="1.33451">
        <ele>168.176022</ele>
        <time>2026-04-17T10:26:06.580Z</time>
      </trkpt>
      <trkpt lat="43.58912" lon="1.33429">
        <ele>169.189021</ele>
        <time>2026-04-17T10:26:15.643Z</time>
      </trkpt>
      <trkpt lat="43.58895" lon="1.33412">
        <ele>170.218295</ele>
        <time>2026-04-17T10:26:25.818Z</time>
      </trkpt>
      <trkpt lat="43.58893" lon="1.33407">
        <ele>170.435399</ele>
        <time>2026-04-17T10:26:28.112Z</time>
      </trkpt>
      <trkpt lat="43.5889" lon="1.3338">
        <ele>171.427918</ele>
        <time>2026-04-17T10:26:38.785Z</time>
      </trkpt>
      <trkpt lat="43.58895" lon="1.33354">
        <ele>172.452256</ele>
        <time>2026-04-17T10:26:50.787Z</time>
      </trkpt>
      <trkpt lat="43.58906" lon="1.33345">
        <ele>173.061278</ele>
        <time>2026-04-17T10:26:58.399Z</time>
      </trkpt>
      <trkpt lat="43.58915" lon="1.33325">
        <ele>173.961433</ele>
        <time>2026-04-17T10:27:10.088Z</time>
      </trkpt>
      <trkpt lat="43.58948" lon="1.33311">
        <ele>175.709256</ele>
        <time>2026-04-17T10:27:33.843Z</time>
      </trkpt>
      <trkpt lat="43.58966" lon="1.33243">
        <ele>177.674926</ele>
        <time>2026-04-17T10:28:10.204Z</time>
      </trkpt>
      <trkpt lat="43.58973" lon="1.33227">
        <ele>178.122475</ele>
        <time>2026-04-17T10:28:18.735Z</time>
      </trkpt>
      <trkpt lat="43.58972" lon="1.33199">
        <ele>178.771441</ele>
        <time>2026-04-17T10:28:29.944Z</time>
      </trkpt>
      <trkpt lat="43.58977" lon="1.33162">
        <ele>179.671011</ele>
        <time>2026-04-17T10:28:43.686Z</time>
      </trkpt>
      <trkpt lat="43.58975" lon="1.3315">
        <ele>179.94296</ele>
        <time>2026-04-17T10:28:47.421Z</time>
      </trkpt>
      <trkpt lat="43.58958" lon="1.33127">
        <ele>180.711298</ele>
        <time>2026-04-17T10:28:57.244Z</time>
      </trkpt>
      <trkpt lat="43.5895" lon="1.33129">
        <ele>180.976796</ele>
        <time>2026-04-17T10:29:00.302Z</time>
      </trkpt>
      <trkpt lat="43.58939" lon="1.3314">
        <ele>181.414313</ele>
        <time>2026-04-17T10:29:04.984Z</time>
      </trkpt>
      <trkpt lat="43.58921" lon="1.33101">
        <ele>182.229088</ele>
        <time>2026-04-17T10:29:15.651Z</time>
      </trkpt>
      <trkpt lat="43.58917" lon="1.33088">
        <ele>182.112564</ele>
        <time>2026-04-17T10:29:18.582Z</time>
      </trkpt>
      <trkpt lat="43.58915" lon="1.33048">
        <ele>181.777929</ele>
        <time>2026-04-17T10:29:26.769Z</time>
      </trkpt>
      <trkpt lat="43.58896" lon="1.33026">
        <ele>181.485031</ele>
        <time>2026-04-17T10:29:33.634Z</time>
      </trkpt>
      <trkpt lat="43.58889" lon="1.3301">
        <ele>181.323049</ele>
        <time>2026-04-17T10:29:37.403Z</time>
      </trkpt>
      <trkpt lat="43.58884" lon="1.33005">
        <ele>181.257687</ele>
        <time>2026-04-17T10:29:38.920Z</time>
      </trkpt>
      <trkpt lat="43.58849" lon="1.3299">
        <ele>180.826293</ele>
        <time>2026-04-17T10:29:50.030Z</time>
      </trkpt>
      <trkpt lat="43.58841" lon="1.32981">
        <ele>180.711397</ele>
        <time>2026-04-17T10:29:53.173Z</time>
      </trkpt>
      <trkpt lat="43.58836" lon="1.32969">
        <ele>180.592297</ele>
        <time>2026-04-17T10:29:56.631Z</time>
      </trkpt>
      <trkpt lat="43.58824" lon="1.32958">
        <ele>180.421151</ele>
        <time>2026-04-17T10:30:01.760Z</time>
      </trkpt>
      <trkpt lat="43.58806" lon="1.3295">
        <ele>180.216213</ele>
        <time>2026-04-17T10:30:08.579Z</time>
      </trkpt>
      <trkpt lat="43.58803" lon="1.32946">
        <ele>180.312934</ele>
        <time>2026-04-17T10:30:10.119Z</time>
      </trkpt>
      <trkpt lat="43.58798" lon="1.32929">
        <ele>180.609085</ele>
        <time>2026-04-17T10:30:15.192Z</time>
      </trkpt>
      <trkpt lat="43.58819" lon="1.32902">
        <ele>181.252142</ele>
        <time>2026-04-17T10:30:22.947Z</time>
      </trkpt>
      <trkpt lat="43.58848" lon="1.32867">
        <ele>182.119758</ele>
        <time>2026-04-17T10:30:34.979Z</time>
      </trkpt>
      <trkpt lat="43.58897" lon="1.32777">
        <ele>183.967747</ele>
        <time>2026-04-17T10:31:04.348Z</time>
      </trkpt>
      <trkpt lat="43.58911" lon="1.3274">
        <ele>184.347613</ele>
        <time>2026-04-17T10:31:12.169Z</time>
      </trkpt>
      <trkpt lat="43.58913" lon="1.32737">
        <ele>184.364539</ele>
        <time>2026-04-17T10:31:12.919Z</time>
      </trkpt>
      <trkpt lat="43.58918" lon="1.32731">
        <ele>184.398464</ele>
        <time>2026-04-17T10:31:15.201Z</time>
      </trkpt>
      <trkpt lat="43.58918" lon="1.32725">
        <ele>184.420071</ele>
        <time>2026-04-17T10:31:16.638Z</time>
      </trkpt>
      <trkpt lat="43.58916" lon="1.32716">
        <ele>184.458228</ele>
        <time>2026-04-17T10:31:18.349Z</time>
      </trkpt>
      <trkpt lat="43.58917" lon="1.32706">
        <ele>184.493719</ele>
        <time>2026-04-17T10:31:19.870Z</time>
      </trkpt>
      <trkpt lat="43.58943" lon="1.32613">
        <ele>184.871323</ele>
        <time>2026-04-17T10:31:35.031Z</time>
      </trkpt>
      <trkpt lat="43.58944" lon="1.32608">
        <ele>184.890727</ele>
        <time>2026-04-17T10:31:35.735Z</time>
      </trkpt>
      <trkpt lat="43.5895" lon="1.32584">
        <ele>184.988375</ele>
        <time>2026-04-17T10:31:39.366Z</time>
      </trkpt>
      <trkpt lat="43.58952" lon="1.32576">
        <ele>185.019202</ele>
        <time>2026-04-17T10:31:40.541Z</time>
      </trkpt>
      <trkpt lat="43.58961" lon="1.32537">
        <ele>185.173913</ele>
        <time>2026-04-17T10:31:46.029Z</time>
      </trkpt>
      <trkpt lat="43.5896" lon="1.32528">
        <ele>185.189337</ele>
        <time>2026-04-17T10:31:47.328Z</time>
      </trkpt>
      <trkpt lat="43.58961" lon="1.32523">
        <ele>185.170025</ele>
        <time>2026-04-17T10:31:47.905Z</time>
      </trkpt>
      <trkpt lat="43.58966" lon="1.32518">
        <ele>185.127702</ele>
        <time>2026-04-17T10:31:49.221Z</time>
      </trkpt>
      <trkpt lat="43.5897" lon="1.32504">
        <ele>185.063493</ele>
        <time>2026-04-17T10:31:51.167Z</time>
      </trkpt>
      <trkpt lat="43.58974" lon="1.32489">
        <ele>184.990527</ele>
        <time>2026-04-17T10:31:53.414Z</time>
      </trkpt>
      <trkpt lat="43.58982" lon="1.32461">
        <ele>184.857516</ele>
        <time>2026-04-17T10:31:57.556Z</time>
      </trkpt>
      <trkpt lat="43.58986" lon="1.3245">
        <ele>184.801191</ele>
        <time>2026-04-17T10:31:59.291Z</time>
      </trkpt>
      <trkpt lat="43.58997" lon="1.32414">
        <ele>184.630328</ele>
        <time>2026-04-17T10:32:04.530Z</time>
      </trkpt>
      <trkpt lat="43.59001" lon="1.32409">
        <ele>184.596541</ele>
        <time>2026-04-17T10:32:05.540Z</time>
      </trkpt>
      <trkpt lat="43.59024" lon="1.32409">
        <ele>184.453887</ele>
        <time>2026-04-17T10:32:09.743Z</time>
      </trkpt>
      <trkpt lat="43.59059" lon="1.324">
        <ele>184.239171</ele>
        <time>2026-04-17T10:32:15.957Z</time>
      </trkpt>
      <trkpt lat="43.59058" lon="1.32393">
        <ele>184.207663</ele>
        <time>2026-04-17T10:32:16.857Z</time>
      </trkpt>
      <trkpt lat="43.59058" lon="1.32387">
        <ele>184.18061</ele>
        <time>2026-04-17T10:32:17.642Z</time>
      </trkpt>
      <trkpt lat="43.59066" lon="1.32382">
        <ele>184.127028</ele>
        <time>2026-04-17T10:32:19.186Z</time>
      </trkpt>
      <trkpt lat="43.59071" lon="1.32373">
        <ele>184.08471</ele>
        <time>2026-04-17T10:32:20.629Z</time>
      </trkpt>
      <trkpt lat="43.59069" lon="1.32358">
        <ele>184.041464</ele>
        <time>2026-04-17T10:32:22.545Z</time>
      </trkpt>
      <trkpt lat="43.59073" lon="1.32355">
        <ele>184.025405</ele>
        <time>2026-04-17T10:32:23.275Z</time>
      </trkpt>
      <trkpt lat="43.59054" lon="1.32314">
        <ele>183.888354</ele>
        <time>2026-04-17T10:32:28.589Z</time>
      </trkpt>
      <trkpt lat="43.59019" lon="1.32238">
        <ele>183.629606</ele>
        <time>2026-04-17T10:32:38.914Z</time>
      </trkpt>
      <trkpt lat="43.59017" lon="1.32216">
        <ele>183.566842</ele>
        <time>2026-04-17T10:32:41.557Z</time>
      </trkpt>
      <trkpt lat="43.59024" lon="1.32201">
        <ele>183.515932</ele>
        <time>2026-04-17T10:32:43.745Z</time>
      </trkpt>
      <trkpt lat="43.59109" lon="1.32126">
        <ele>183.581124</ele>
        <time>2026-04-17T10:33:02.506Z</time>
      </trkpt>
      <trkpt lat="43.59113" lon="1.32121">
        <ele>183.594938</ele>
        <time>2026-04-17T10:33:03.457Z</time>
      </trkpt>
      <trkpt lat="43.5916" lon="1.32072">
        <ele>183.756326</ele>
        <time>2026-04-17T10:33:14.570Z</time>
      </trkpt>
      <trkpt lat="43.59204" lon="1.32036">
        <ele>183.890304</ele>
        <time>2026-04-17T10:33:23.688Z</time>
      </trkpt>
      <trkpt lat="43.59179" lon="1.31987">
        <ele>183.968314</ele>
        <time>2026-04-17T10:33:31.497Z</time>
      </trkpt>
      <trkpt lat="43.59175" lon="1.31973">
        <ele>183.988268</ele>
        <time>2026-04-17T10:33:33.464Z</time>
      </trkpt>
      <trkpt lat="43.59176" lon="1.31964">
        <ele>183.999726</ele>
        <time>2026-04-17T10:33:34.552Z</time>
      </trkpt>
      <trkpt lat="43.59191" lon="1.31895">
        <ele>184.092488</ele>
        <time>2026-04-17T10:33:43.820Z</time>
      </trkpt>
      <trkpt lat="43.59191" lon="1.31882">
        <ele>184.110401</ele>
        <time>2026-04-17T10:33:45.634Z</time>
      </trkpt>
      <trkpt lat="43.59178" lon="1.31851">
        <ele>184.156026</ele>
        <time>2026-04-17T10:33:50.256Z</time>
      </trkpt>
      <trkpt lat="43.59151" lon="1.31792">
        <ele>184.291658</ele>
        <time>2026-04-17T10:33:59.681Z</time>
      </trkpt>
      <trkpt lat="43.59212" lon="1.31768">
        <ele>184.523253</ele>
        <time>2026-04-17T10:34:12.157Z</time>
      </trkpt>
      <trkpt lat="43.59235" lon="1.31759">
        <ele>184.610487</ele>
        <time>2026-04-17T10:34:20.827Z</time>
      </trkpt>
      <trkpt lat="43.59243" lon="1.31758">
        <ele>184.639985</ele>
        <time>2026-04-17T10:34:23.716Z</time>
      </trkpt>
      <trkpt lat="43.5926" lon="1.31766">
        <ele>184.706556</ele>
        <time>2026-04-17T10:34:30.141Z</time>
      </trkpt>
      <trkpt lat="43.59287" lon="1.31773">
        <ele>184.806635</ele>
        <time>2026-04-17T10:34:39.736Z</time>
      </trkpt>
      <trkpt lat="43.59328" lon="1.31788">
        <ele>184.79743</ele>
        <time>2026-04-17T10:34:54.575Z</time>
      </trkpt>
      <trkpt lat="43.59343" lon="1.31779">
        <ele>184.757494</ele>
        <time>2026-04-17T10:35:00.225Z</time>
      </trkpt>
      <trkpt lat="43.59348" lon="1.31771">
        <ele>184.738978</ele>
        <time>2026-04-17T10:35:02.797Z</time>
      </trkpt>
      <trkpt lat="43.59386" lon="1.31739">
        <ele>184.633528</ele>
        <time>2026-04-17T10:35:17.083Z</time>
      </trkpt>
      <trkpt lat="43.59395" lon="1.31735">
        <ele>184.610431</ele>
        <time>2026-04-17T10:35:20.176Z</time>
      </trkpt>
      <trkpt lat="43.59416" lon="1.31735">
        <ele>184.558075</ele>
        <time>2026-04-17T10:35:27.155Z</time>
      </trkpt>
      <trkpt lat="43.59427" lon="1.3173">
        <ele>184.530777</ele>
        <time>2026-04-17T10:35:30.824Z</time>
      </trkpt>
      <trkpt lat="43.59483" lon="1.31734">
        <ele>184.374379</ele>
        <time>2026-04-17T10:35:48.970Z</time>
      </trkpt>
      <trkpt lat="43.59488" lon="1.31739">
        <ele>184.350119</ele>
        <time>2026-04-17T10:35:50.963Z</time>
      </trkpt>
      <trkpt lat="43.59487" lon="1.31805">
        <ele>184.158348</ele>
        <time>2026-04-17T10:36:00.248Z</time>
      </trkpt>
      <trkpt lat="43.59487" lon="1.31829">
        <ele>184.088116</ele>
        <time>2026-04-17T10:36:06.075Z</time>
      </trkpt>
      <trkpt lat="43.59486" lon="1.31857">
        <ele>184.00621</ele>
        <time>2026-04-17T10:36:09.909Z</time>
      </trkpt>
      <trkpt lat="43.59486" lon="1.31889">
        <ele>183.914248</ele>
        <time>2026-04-17T10:36:14.117Z</time>
      </trkpt>
      <trkpt lat="43.59482" lon="1.31939">
        <ele>183.766918</ele>
        <time>2026-04-17T10:36:20.684Z</time>
      </trkpt>
      <trkpt lat="43.59487" lon="1.31947">
        <ele>183.737701</ele>
        <time>2026-04-17T10:36:21.957Z</time>
      </trkpt>
      <trkpt lat="43.59517" lon="1.31969">
        <ele>183.546307</ele>
        <time>2026-04-17T10:36:27.802Z</time>
      </trkpt>
      <trkpt lat="43.59551" lon="1.31992">
        <ele>183.323031</ele>
        <time>2026-04-17T10:36:33.698Z</time>
      </trkpt>
      <trkpt lat="43.59559" lon="1.31994">
        <ele>183.27706</ele>
        <time>2026-04-17T10:36:35.098Z</time>
      </trkpt>
      <trkpt lat="43.59568" lon="1.31989">
        <ele>183.218996</ele>
        <time>2026-04-17T10:36:36.844Z</time>
      </trkpt>
      <trkpt lat="43.59576" lon="1.31992">
        <ele>183.16844</ele>
        <time>2026-04-17T10:36:38.397Z</time>
      </trkpt>
      <trkpt lat="43.59581" lon="1.31995">
        <ele>183.136701</ele>
        <time>2026-04-17T10:36:39.343Z</time>
      </trkpt>
      <trkpt lat="43.59586" lon="1.32002">
        <ele>183.097929</ele>
        <time>2026-04-17T10:36:40.540Z</time>
      </trkpt>
      <trkpt lat="43.5959" lon="1.32018">
        <ele>183.022338</ele>
        <time>2026-04-17T10:36:42.856Z</time>
      </trkpt>
      <trkpt lat="43.59599" lon="1.32026">
        <ele>182.960771</ele>
        <time>2026-04-17T10:36:44.740Z</time>
      </trkpt>
      <trkpt lat="43.59676" lon="1.32083">
        <ele>182.665425</ele>
        <time>2026-04-17T10:36:59.228Z</time>
      </trkpt>
      <trkpt lat="43.59731" lon="1.32124">
        <ele>182.702715</ele>
        <time>2026-04-17T10:37:10.741Z</time>
      </trkpt>
      <trkpt lat="43.59765" lon="1.32147">
        <ele>182.724572</ele>
        <time>2026-04-17T10:37:17.470Z</time>
      </trkpt>
      <trkpt lat="43.59777" lon="1.32145">
        <ele>182.731964</ele>
        <time>2026-04-17T10:37:19.688Z</time>
      </trkpt>
      <trkpt lat="43.5978" lon="1.32147">
        <ele>182.733817</ele>
        <time>2026-04-17T10:37:20.224Z</time>
      </trkpt>
      <trkpt lat="43.59783" lon="1.32148">
        <ele>182.735549</ele>
        <time>2026-04-17T10:37:20.724Z</time>
      </trkpt>
      <trkpt lat="43.59788" lon="1.32167">
        <ele>182.743919</ele>
        <time>2026-04-17T10:37:23.160Z</time>
      </trkpt>
      <trkpt lat="43.59807" lon="1.32182">
        <ele>182.741256</ele>
        <time>2026-04-17T10:37:26.860Z</time>
      </trkpt>
      <trkpt lat="43.59822" lon="1.32201">
        <ele>182.718302</ele>
        <time>2026-04-17T10:37:30.334Z</time>
      </trkpt>
      <trkpt lat="43.59834" lon="1.32209">
        <ele>182.70359</ele>
        <time>2026-04-17T10:37:32.540Z</time>
      </trkpt>
      <trkpt lat="43.5985" lon="1.32212">
        <ele>182.685692</ele>
        <time>2026-04-17T10:37:35.219Z</time>
      </trkpt>
      <trkpt lat="43.59916" lon="1.32221">
        <ele>182.612301</ele>
        <time>2026-04-17T10:37:46.204Z</time>
      </trkpt>
      <trkpt lat="43.59919" lon="1.32222">
        <ele>182.608168</ele>
        <time>2026-04-17T10:37:46.817Z</time>
      </trkpt>
      <trkpt lat="43.59957" lon="1.32227">
        <ele>182.566171</ele>
        <time>2026-04-17T10:37:53.158Z</time>
      </trkpt>
      <trkpt lat="43.59969" lon="1.32235">
        <ele>182.551758</ele>
        <time>2026-04-17T10:37:55.289Z</time>
      </trkpt>
      <trkpt lat="43.59992" lon="1.3226">
        <ele>182.477578</ele>
        <time>2026-04-17T10:38:00.306Z</time>
      </trkpt>
      <trkpt lat="43.59991" lon="1.32272">
        <ele>182.45472</ele>
        <time>2026-04-17T10:38:01.861Z</time>
      </trkpt>
      <trkpt lat="43.60004" lon="1.32288">
        <ele>182.411859</ele>
        <time>2026-04-17T10:38:04.769Z</time>
      </trkpt>
      <trkpt lat="43.60001" lon="1.32305">
        <ele>182.380761</ele>
        <time>2026-04-17T10:38:06.905Z</time>
      </trkpt>
      <trkpt lat="43.60003" lon="1.32316">
        <ele>182.360755</ele>
        <time>2026-04-17T10:38:08.253Z</time>
      </trkpt>
      <trkpt lat="43.60006" lon="1.32322">
        <ele>182.346112</ele>
        <time>2026-04-17T10:38:09.254Z</time>
      </trkpt>
      <trkpt lat="43.60019" lon="1.32325">
        <ele>182.313959</ele>
        <time>2026-04-17T10:38:11.419Z</time>
      </trkpt>
      <trkpt lat="43.60027" lon="1.32324">
        <ele>182.294007</ele>
        <time>2026-04-17T10:38:12.737Z</time>
      </trkpt>
      <trkpt lat="43.60031" lon="1.32319">
        <ele>182.280035</ele>
        <time>2026-04-17T10:38:13.667Z</time>
      </trkpt>
      <trkpt lat="43.60037" lon="1.32326">
        <ele>182.261662</ele>
        <time>2026-04-17T10:38:14.882Z</time>
      </trkpt>
      <trkpt lat="43.60045" lon="1.32336">
        <ele>182.234428</ele>
        <time>2026-04-17T10:38:16.669Z</time>
      </trkpt>
      <trkpt lat="43.60049" lon="1.32335">
        <ele>182.223673</ele>
        <time>2026-04-17T10:38:17.355Z</time>
      </trkpt>
      <trkpt lat="43.60054" lon="1.32335">
        <ele>182.211412</ele>
        <time>2026-04-17T10:38:18.156Z</time>
      </trkpt>
      <trkpt lat="43.60058" lon="1.3234">
        <ele>182.197691</ele>
        <time>2026-04-17T10:38:19.042Z</time>
      </trkpt>
      <trkpt lat="43.60118" lon="1.32411">
        <ele>182.137011</ele>
        <time>2026-04-17T10:38:31.493Z</time>
      </trkpt>
      <trkpt lat="43.60129" lon="1.32423">
        <ele>182.148762</ele>
        <time>2026-04-17T10:38:33.719Z</time>
      </trkpt>
      <trkpt lat="43.60155" lon="1.32454">
        <ele>182.177628</ele>
        <time>2026-04-17T10:38:39.325Z</time>
      </trkpt>
      <trkpt lat="43.60205" lon="1.32512">
        <ele>182.232369</ele>
        <time>2026-04-17T10:38:51.488Z</time>
      </trkpt>
      <trkpt lat="43.60238" lon="1.32551">
        <ele>182.341817</ele>
        <time>2026-04-17T10:39:00.662Z</time>
      </trkpt>
      <trkpt lat="43.60253" lon="1.32569">
        <ele>182.43956</ele>
        <time>2026-04-17T10:39:05.007Z</time>
      </trkpt>
      <trkpt lat="43.60291" lon="1.32613">
        <ele>182.683296</ele>
        <time>2026-04-17T10:39:15.677Z</time>
      </trkpt>
      <trkpt lat="43.60299" lon="1.32617">
        <ele>182.728563</ele>
        <time>2026-04-17T10:39:17.620Z</time>
      </trkpt>
      <trkpt lat="43.60306" lon="1.32616">
        <ele>182.762721</ele>
        <time>2026-04-17T10:39:19.043Z</time>
      </trkpt>
      <trkpt lat="43.60312" lon="1.32615">
        <ele>182.789481</ele>
        <time>2026-04-17T10:39:20.147Z</time>
      </trkpt>
      <trkpt lat="43.60354" lon="1.32607">
        <ele>183.000788</ele>
        <time>2026-04-17T10:39:28.131Z</time>
      </trkpt>
      <trkpt lat="43.60462" lon="1.32404">
        <ele>182.49522</ele>
        <time>2026-04-17T10:39:56.994Z</time>
      </trkpt>
      <trkpt lat="43.6048" lon="1.32385">
        <ele>182.400268</ele>
        <time>2026-04-17T10:40:00.778Z</time>
      </trkpt>
      <trkpt lat="43.60503" lon="1.32376">
        <ele>182.36325</ele>
        <time>2026-04-17T10:40:04.657Z</time>
      </trkpt>
      <trkpt lat="43.60511" lon="1.3237">
        <ele>182.352157</ele>
        <time>2026-04-17T10:40:06.070Z</time>
      </trkpt>
      <trkpt lat="43.60519" lon="1.32373">
        <ele>182.341478</ele>
        <time>2026-04-17T10:40:07.424Z</time>
      </trkpt>
      <trkpt lat="43.60518" lon="1.3238">
        <ele>182.334944</ele>
        <time>2026-04-17T10:40:08.247Z</time>
      </trkpt>
      <trkpt lat="43.60523" lon="1.32391">
        <ele>182.322799</ele>
        <time>2026-04-17T10:40:09.804Z</time>
      </trkpt>
      <trkpt lat="43.60531" lon="1.32395">
        <ele>182.311589</ele>
        <time>2026-04-17T10:40:11.232Z</time>
      </trkpt>
      <trkpt lat="43.60539" lon="1.3239">
        <ele>182.300261</ele>
        <time>2026-04-17T10:40:12.641Z</time>
      </trkpt>
      <trkpt lat="43.60543" lon="1.32382">
        <ele>182.291548</ele>
        <time>2026-04-17T10:40:13.729Z</time>
      </trkpt>
      <trkpt lat="43.60543" lon="1.32373">
        <ele>182.282983</ele>
        <time>2026-04-17T10:40:14.808Z</time>
      </trkpt>
      <trkpt lat="43.60554" lon="1.32369">
        <ele>182.26777</ele>
        <time>2026-04-17T10:40:16.869Z</time>
      </trkpt>
      <trkpt lat="43.60593" lon="1.32363">
        <ele>182.216963</ele>
        <time>2026-04-17T10:40:23.878Z</time>
      </trkpt>
      <trkpt lat="43.60594" lon="1.32368">
        <ele>182.212174</ele>
        <time>2026-04-17T10:40:24.586Z</time>
      </trkpt>
      <trkpt lat="43.60607" lon="1.32381">
        <ele>182.191174</ele>
        <time>2026-04-17T10:40:27.568Z</time>
      </trkpt>
      <trkpt lat="43.60634" lon="1.3241">
        <ele>182.158458</ele>
        <time>2026-04-17T10:40:34.115Z</time>
      </trkpt>
      <trkpt lat="43.60656" lon="1.32431">
        <ele>182.155129</ele>
        <time>2026-04-17T10:40:38.966Z</time>
      </trkpt>
      <trkpt lat="43.60665" lon="1.32432">
        <ele>182.15397</ele>
        <time>2026-04-17T10:40:40.630Z</time>
      </trkpt>
      <trkpt lat="43.60683" lon="1.32429">
        <ele>182.151851</ele>
        <time>2026-04-17T10:40:43.731Z</time>
      </trkpt>
      <trkpt lat="43.60717" lon="1.32408">
        <ele>182.147248</ele>
        <time>2026-04-17T10:40:50.331Z</time>
      </trkpt>
      <trkpt lat="43.60734" lon="1.32395">
        <ele>182.144849</ele>
        <time>2026-04-17T10:40:53.826Z</time>
      </trkpt>
      <trkpt lat="43.60748" lon="1.32365">
        <ele>182.141687</ele>
        <time>2026-04-17T10:40:58.432Z</time>
      </trkpt>
      <trkpt lat="43.60772" lon="1.32335">
        <ele>182.137733</ele>
        <time>2026-04-17T10:41:03.787Z</time>
      </trkpt>
      <trkpt lat="43.60777" lon="1.32341">
        <ele>182.107932</ele>
        <time>2026-04-17T10:41:04.898Z</time>
      </trkpt>
      <trkpt lat="43.60813" lon="1.32346">
        <ele>181.914778</ele>
        <time>2026-04-17T10:41:10.356Z</time>
      </trkpt>
      <trkpt lat="43.60838" lon="1.32335">
        <ele>181.771401</ele>
        <time>2026-04-17T10:41:14.364Z</time>
      </trkpt>
      <trkpt lat="43.60864" lon="1.32317">
        <ele>181.611109</ele>
        <time>2026-04-17T10:41:18.921Z</time>
      </trkpt>
      <trkpt lat="43.60896" lon="1.32318">
        <ele>181.435613</ele>
        <time>2026-04-17T10:41:23.954Z</time>
      </trkpt>
      <trkpt lat="43.60895" lon="1.32312">
        <ele>181.411852</ele>
        <time>2026-04-17T10:41:24.650Z</time>
      </trkpt>
      <trkpt lat="43.60934" lon="1.3229">
        <ele>181.182704</ele>
        <time>2026-04-17T10:41:38.092Z</time>
      </trkpt>
      <trkpt lat="43.60973" lon="1.32251">
        <ele>181.069464</ele>
        <time>2026-04-17T10:41:53.597Z</time>
      </trkpt>
      <trkpt lat="43.60979" lon="1.32243">
        <ele>181.053</ele>
        <time>2026-04-17T10:41:56.293Z</time>
      </trkpt>
      <trkpt lat="43.60992" lon="1.32235">
        <ele>181.025187</ele>
        <time>2026-04-17T10:42:00.872Z</time>
      </trkpt>
      <trkpt lat="43.61044" lon="1.32205">
        <ele>180.914236</ele>
        <time>2026-04-17T10:42:18.992Z</time>
      </trkpt>
      <trkpt lat="43.61049" lon="1.32185">
        <ele>180.883431</ele>
        <time>2026-04-17T10:42:24.077Z</time>
      </trkpt>
      <trkpt lat="43.6108" lon="1.3217">
        <ele>180.818548</ele>
        <time>2026-04-17T10:42:35.420Z</time>
      </trkpt>
      <trkpt lat="43.61111" lon="1.32126">
        <ele>180.832535</ele>
        <time>2026-04-17T10:42:51.814Z</time>
      </trkpt>
      <trkpt lat="43.61124" lon="1.32109">
        <ele>180.849922</ele>
        <time>2026-04-17T10:42:58.445Z</time>
      </trkpt>
      <trkpt lat="43.61124" lon="1.32084">
        <ele>180.86866</ele>
        <time>2026-04-17T10:43:05.592Z</time>
      </trkpt>
      <trkpt lat="43.61141" lon="1.3206">
        <ele>180.892549</ele>
        <time>2026-04-17T10:43:14.578Z</time>
      </trkpt>
      <trkpt lat="43.61142" lon="1.32041">
        <ele>180.906076</ele>
        <time>2026-04-17T10:43:19.253Z</time>
      </trkpt>
      <trkpt lat="43.61151" lon="1.32013">
        <ele>180.928118</ele>
        <time>2026-04-17T10:43:26.403Z</time>
      </trkpt>
      <trkpt lat="43.61175" lon="1.31991">
        <ele>180.957121</ele>
        <time>2026-04-17T10:43:35.685Z</time>
      </trkpt>
      <trkpt lat="43.61181" lon="1.31979">
        <ele>180.967894</ele>
        <time>2026-04-17T10:43:39.188Z</time>
      </trkpt>
      <trkpt lat="43.61191" lon="1.31996">
        <ele>180.946516</ele>
        <time>2026-04-17T10:43:44.092Z</time>
      </trkpt>
      <trkpt lat="43.612" lon="1.32007">
        <ele>180.863965</ele>
        <time>2026-04-17T10:43:47.650Z</time>
      </trkpt>
      <trkpt lat="43.61204" lon="1.32003">
        <ele>180.828413</ele>
        <time>2026-04-17T10:43:49.210Z</time>
      </trkpt>
      <trkpt lat="43.61212" lon="1.32002">
        <ele>180.777435</ele>
        <time>2026-04-17T10:43:51.326Z</time>
      </trkpt>
      <trkpt lat="43.61223" lon="1.32011">
        <ele>180.684972</ele>
        <time>2026-04-17T10:43:55.188Z</time>
      </trkpt>
      <trkpt lat="43.61229" lon="1.32008">
        <ele>180.642034</ele>
        <time>2026-04-17T10:43:56.979Z</time>
      </trkpt>
      <trkpt lat="43.61232" lon="1.32007">
        <ele>180.623888</ele>
        <time>2026-04-17T10:43:57.744Z</time>
      </trkpt>
      <trkpt lat="43.61234" lon="1.32017">
        <ele>180.571373</ele>
        <time>2026-04-17T10:43:58.828Z</time>
      </trkpt>
      <trkpt lat="43.61235" lon="1.3202">
        <ele>180.556198</ele>
        <time>2026-04-17T10:43:59.146Z</time>
      </trkpt>
      <trkpt lat="43.61239" lon="1.32035">
        <ele>180.475899</ele>
        <time>2026-04-17T10:44:00.805Z</time>
      </trkpt>
      <trkpt lat="43.61243" lon="1.32109">
        <ele>180.108764</ele>
        <time>2026-04-17T10:44:08.584Z</time>
      </trkpt>
      <trkpt lat="43.6124" lon="1.32138">
        <ele>179.964511</ele>
        <time>2026-04-17T10:44:11.823Z</time>
      </trkpt>
      <trkpt lat="43.61239" lon="1.32157">
        <ele>179.865818</ele>
        <time>2026-04-17T10:44:14.287Z</time>
      </trkpt>
      <trkpt lat="43.61238" lon="1.32179">
        <ele>179.75674</ele>
        <time>2026-04-17T10:44:17.506Z</time>
      </trkpt>
      <trkpt lat="43.61226" lon="1.32242">
        <ele>179.910325</ele>
        <time>2026-04-17T10:44:27.259Z</time>
      </trkpt>
      <trkpt lat="43.61233" lon="1.32244">
        <ele>179.938448</ele>
        <time>2026-04-17T10:44:28.801Z</time>
      </trkpt>
      <trkpt lat="43.61238" lon="1.32246">
        <ele>179.958305</ele>
        <time>2026-04-17T10:44:29.894Z</time>
      </trkpt>
      <trkpt lat="43.61265" lon="1.32258">
        <ele>180.060818</ele>
        <time>2026-04-17T10:44:35.369Z</time>
      </trkpt>
      <trkpt lat="43.61293" lon="1.32272">
        <ele>180.170042</ele>
        <time>2026-04-17T10:44:41.314Z</time>
      </trkpt>
      <trkpt lat="43.61302" lon="1.32271">
        <ele>180.203034</ele>
        <time>2026-04-17T10:44:43.086Z</time>
      </trkpt>
      <trkpt lat="43.61304" lon="1.32275">
        <ele>180.215303</ele>
        <time>2026-04-17T10:44:43.718Z</time>
      </trkpt>
      <trkpt lat="43.61308" lon="1.32287">
        <ele>180.248267</ele>
        <time>2026-04-17T10:44:45.459Z</time>
      </trkpt>
      <trkpt lat="43.6131" lon="1.32288">
        <ele>180.257456</ele>
        <time>2026-04-17T10:44:45.994Z</time>
      </trkpt>
      <trkpt lat="43.61318" lon="1.32291">
        <ele>180.288564</ele>
        <time>2026-04-17T10:44:47.765Z</time>
      </trkpt>
      <trkpt lat="43.61322" lon="1.32294">
        <ele>180.303192</ele>
        <time>2026-04-17T10:44:48.485Z</time>
      </trkpt>
      <trkpt lat="43.61339" lon="1.32303">
        <ele>180.371445</ele>
        <time>2026-04-17T10:44:51.640Z</time>
      </trkpt>
      <trkpt lat="43.61346" lon="1.32304">
        <ele>180.397604</ele>
        <time>2026-04-17T10:44:52.858Z</time>
      </trkpt>
      <trkpt lat="43.61351" lon="1.323">
        <ele>180.390552</ele>
        <time>2026-04-17T10:44:53.803Z</time>
      </trkpt>
      <trkpt lat="43.61354" lon="1.32292">
        <ele>180.365685</ele>
        <time>2026-04-17T10:44:54.880Z</time>
      </trkpt>
      <trkpt lat="43.61354" lon="1.32282">
        <ele>180.339094</ele>
        <time>2026-04-17T10:44:56.044Z</time>
      </trkpt>
      <trkpt lat="43.61348" lon="1.32273">
        <ele>180.304311</ele>
        <time>2026-04-17T10:44:57.553Z</time>
      </trkpt>
      <trkpt lat="43.61326" lon="1.32263">
        <ele>180.215591</ele>
        <time>2026-04-17T10:45:01.350Z</time>
      </trkpt>
      <trkpt lat="43.61313" lon="1.3225">
        <ele>180.155334</ele>
        <time>2026-04-17T10:45:03.895Z</time>
      </trkpt>
      <trkpt lat="43.6131" lon="1.3224">
        <ele>180.124353</ele>
        <time>2026-04-17T10:45:05.187Z</time>
      </trkpt>
      <trkpt lat="43.61312" lon="1.32233">
        <ele>180.103666</ele>
        <time>2026-04-17T10:45:06.053Z</time>
      </trkpt>
      <trkpt lat="43.61316" lon="1.32218">
        <ele>180.059169</ele>
        <time>2026-04-17T10:45:09.806Z</time>
      </trkpt>
      <trkpt lat="43.61326" lon="1.32179">
        <ele>179.944805</ele>
        <time>2026-04-17T10:45:19.506Z</time>
      </trkpt>
      <trkpt lat="43.6133" lon="1.32135">
        <ele>179.821259</ele>
        <time>2026-04-17T10:45:29.930Z</time>
      </trkpt>
      <trkpt lat="43.61336" lon="1.32109">
        <ele>179.746456</ele>
        <time>2026-04-17T10:45:36.146Z</time>
      </trkpt>
      <trkpt lat="43.61383" lon="1.31942">
        <ele>178.654539</ele>
        <time>2026-04-17T10:46:17.682Z</time>
      </trkpt>
      <trkpt lat="43.61387" lon="1.31932">
        <ele>178.581114</ele>
        <time>2026-04-17T10:46:20.397Z</time>
      </trkpt>
      <trkpt lat="43.61395" lon="1.31926">
        <ele>178.50244</ele>
        <time>2026-04-17T10:46:23.227Z</time>
      </trkpt>
      <trkpt lat="43.61421" lon="1.31922">
        <ele>178.274495</ele>
        <time>2026-04-17T10:46:31.393Z</time>
      </trkpt>
      <trkpt lat="43.61427" lon="1.31914">
        <ele>178.20076</ele>
        <time>2026-04-17T10:46:32.623Z</time>
      </trkpt>
      <trkpt lat="43.61425" lon="1.31901">
        <ele>178.060256</ele>
        <time>2026-04-17T10:46:35.489Z</time>
      </trkpt>
      <trkpt lat="43.61424" lon="1.31895">
        <ele>177.957234</ele>
        <time>2026-04-17T10:46:36.873Z</time>
      </trkpt>
      <trkpt lat="43.61432" lon="1.31852">
        <ele>177.23973</ele>
        <time>2026-04-17T10:46:46.287Z</time>
      </trkpt>
      <trkpt lat="43.6144" lon="1.31835">
        <ele>176.896571</ele>
        <time>2026-04-17T10:46:50.704Z</time>
      </trkpt>
      <trkpt lat="43.61441" lon="1.31825">
        <ele>176.740424</ele>
        <time>2026-04-17T10:46:52.701Z</time>
      </trkpt>
      <trkpt lat="43.61456" lon="1.31786">
        <ele>176.008781</ele>
        <time>2026-04-17T10:47:01.933Z</time>
      </trkpt>
      <trkpt lat="43.61466" lon="1.3175">
        <ele>175.38004</ele>
        <time>2026-04-17T10:47:09.688Z</time>
      </trkpt>
      <trkpt lat="43.61473" lon="1.31707">
        <ele>174.654604</ele>
        <time>2026-04-17T10:47:18.726Z</time>
      </trkpt>
      <trkpt lat="43.61486" lon="1.31672">
        <ele>174.033882</ele>
        <time>2026-04-17T10:47:26.691Z</time>
      </trkpt>
      <trkpt lat="43.6151" lon="1.31654">
        <ele>173.610061</ele>
        <time>2026-04-17T10:47:34.389Z</time>
      </trkpt>
      <trkpt lat="43.61558" lon="1.31632">
        <ele>172.812818</ele>
        <time>2026-04-17T10:47:49.233Z</time>
      </trkpt>
      <trkpt lat="43.61598" lon="1.31603">
        <ele>172.112221</ele>
        <time>2026-04-17T10:48:02.881Z</time>
      </trkpt>
      <trkpt lat="43.61647" lon="1.31561">
        <ele>171.232473</ele>
        <time>2026-04-17T10:48:21.479Z</time>
      </trkpt>
      <trkpt lat="43.61668" lon="1.3155">
        <ele>170.993139</ele>
        <time>2026-04-17T10:48:28.936Z</time>
      </trkpt>
      <trkpt lat="43.61724" lon="1.31537">
        <ele>170.392542</ele>
        <time>2026-04-17T10:48:47.154Z</time>
      </trkpt>
      <trkpt lat="43.61758" lon="1.31524">
        <ele>170.006688</ele>
        <time>2026-04-17T10:48:53.229Z</time>
      </trkpt>
      <trkpt lat="43.61771" lon="1.31524">
        <ele>169.867832</ele>
        <time>2026-04-17T10:48:55.355Z</time>
      </trkpt>
      <trkpt lat="43.6188" lon="1.31469">
        <ele>167.966703</ele>
        <time>2026-04-17T10:49:13.138Z</time>
      </trkpt>
      <trkpt lat="43.61925" lon="1.31438">
        <ele>166.917813</ele>
        <time>2026-04-17T10:49:20.836Z</time>
      </trkpt>
      <trkpt lat="43.61943" lon="1.31427">
        <ele>166.52136</ele>
        <time>2026-04-17T10:49:23.826Z</time>
      </trkpt>
      <trkpt lat="43.62001" lon="1.3143">
        <ele>165.417054</ele>
        <time>2026-04-17T10:49:32.815Z</time>
      </trkpt>
      <trkpt lat="43.62047" lon="1.31415">
        <ele>164.711416</ele>
        <time>2026-04-17T10:49:40.315Z</time>
      </trkpt>
      <trkpt lat="43.62049" lon="1.31408">
        <ele>164.622232</ele>
        <time>2026-04-17T10:49:41.152Z</time>
      </trkpt>
      <trkpt lat="43.62052" lon="1.31397">
        <ele>164.494427</ele>
        <time>2026-04-17T10:49:42.364Z</time>
      </trkpt>
      <trkpt lat="43.62059" lon="1.31371">
        <ele>164.198172</ele>
        <time>2026-04-17T10:49:45.181Z</time>
      </trkpt>
      <trkpt lat="43.62065" lon="1.31374">
        <ele>164.102038</ele>
        <time>2026-04-17T10:49:46.272Z</time>
      </trkpt>
      <trkpt lat="43.62071" lon="1.31371">
        <ele>164.003137</ele>
        <time>2026-04-17T10:49:47.392Z</time>
      </trkpt>
      <trkpt lat="43.62077" lon="1.31363">
        <ele>163.872936</ele>
        <time>2026-04-17T10:49:48.858Z</time>
      </trkpt>
      <trkpt lat="43.62092" lon="1.31358">
        <ele>163.65335</ele>
        <time>2026-04-17T10:49:51.342Z</time>
      </trkpt>
      <trkpt lat="43.62143" lon="1.31336">
        <ele>162.885118</ele>
        <time>2026-04-17T10:50:00.558Z</time>
      </trkpt>
      <trkpt lat="43.62157" lon="1.31332">
        <ele>162.753628</ele>
        <time>2026-04-17T10:50:02.980Z</time>
      </trkpt>
      <trkpt lat="43.62197" lon="1.3133">
        <ele>162.36884</ele>
        <time>2026-04-17T10:50:10.171Z</time>
      </trkpt>
      <trkpt lat="43.62278" lon="1.31295">
        <ele>161.5532</ele>
        <time>2026-04-17T10:50:25.112Z</time>
      </trkpt>
      <trkpt lat="43.62332" lon="1.31281">
        <ele>161.100671</ele>
        <time>2026-04-17T10:50:34.818Z</time>
      </trkpt>
      <trkpt lat="43.62345" lon="1.31274">
        <ele>161.015259</ele>
        <time>2026-04-17T10:50:37.348Z</time>
      </trkpt>
      <trkpt lat="43.62386" lon="1.31243">
        <ele>160.733025</ele>
        <time>2026-04-17T10:50:45.926Z</time>
      </trkpt>
      <trkpt lat="43.62459" lon="1.31215">
        <ele>160.273374</ele>
        <time>2026-04-17T10:51:00.145Z</time>
      </trkpt>
      <trkpt lat="43.62479" lon="1.31214">
        <ele>160.154859</ele>
        <time>2026-04-17T10:51:03.801Z</time>
      </trkpt>
      <trkpt lat="43.62504" lon="1.31213">
        <ele>159.914237</ele>
        <time>2026-04-17T10:51:08.447Z</time>
      </trkpt>
      <trkpt lat="43.62548" lon="1.31185">
        <ele>159.435269</ele>
        <time>2026-04-17T10:51:17.101Z</time>
      </trkpt>
      <trkpt lat="43.62637" lon="1.31147">
        <ele>158.512759</ele>
        <time>2026-04-17T10:51:32.991Z</time>
      </trkpt>
      <trkpt lat="43.62709" lon="1.31099">
        <ele>157.734607</ele>
        <time>2026-04-17T10:51:47.184Z</time>
      </trkpt>
      <trkpt lat="43.62742" lon="1.3106">
        <ele>157.315288</ele>
        <time>2026-04-17T10:51:55.672Z</time>
      </trkpt>
      <trkpt lat="43.62752" lon="1.31057">
        <ele>157.213384</ele>
        <time>2026-04-17T10:51:57.643Z</time>
      </trkpt>
      <trkpt lat="43.62777" lon="1.31052">
        <ele>156.96856</ele>
        <time>2026-04-17T10:52:02.159Z</time>
      </trkpt>
      <trkpt lat="43.62816" lon="1.31029">
        <ele>156.459319</ele>
        <time>2026-04-17T10:52:09.132Z</time>
      </trkpt>
      <trkpt lat="43.6283" lon="1.31014">
        <ele>155.97249</ele>
        <time>2026-04-17T10:52:11.993Z</time>
      </trkpt>
      <trkpt lat="43.62872" lon="1.3097">
        <ele>154.529763</ele>
        <time>2026-04-17T10:52:20.217Z</time>
      </trkpt>
      <trkpt lat="43.62891" lon="1.30916">
        <ele>153.358673</ele>
        <time>2026-04-17T10:52:26.643Z</time>
      </trkpt>
      <trkpt lat="43.62898" lon="1.30897">
        <ele>152.947565</ele>
        <time>2026-04-17T10:52:28.843Z</time>
      </trkpt>
      <trkpt lat="43.62905" lon="1.30887">
        <ele>152.664985</ele>
        <time>2026-04-17T10:52:30.349Z</time>
      </trkpt>
      <trkpt lat="43.62975" lon="1.30808">
        <ele>150.961907</ele>
        <time>2026-04-17T10:52:44.264Z</time>
      </trkpt>
      <trkpt lat="43.63029" lon="1.30757">
        <ele>150.044103</ele>
        <time>2026-04-17T10:52:55.706Z</time>
      </trkpt>
      <trkpt lat="43.6304" lon="1.30751">
        <ele>149.878329</ele>
        <time>2026-04-17T10:52:57.894Z</time>
      </trkpt>
      <trkpt lat="43.63067" lon="1.30742">
        <ele>149.48193</ele>
        <time>2026-04-17T10:53:03.166Z</time>
      </trkpt>
      <trkpt lat="43.63106" lon="1.30721">
        <ele>149.020434</ele>
        <time>2026-04-17T10:53:10.990Z</time>
      </trkpt>
      <trkpt lat="43.63145" lon="1.30719">
        <ele>148.671062</ele>
        <time>2026-04-17T10:53:18.026Z</time>
      </trkpt>
      <trkpt lat="43.63187" lon="1.30712">
        <ele>148.288055</ele>
        <time>2026-04-17T10:53:25.537Z</time>
      </trkpt>
      <trkpt lat="43.63198" lon="1.30702">
        <ele>148.17167</ele>
        <time>2026-04-17T10:53:27.843Z</time>
      </trkpt>
      <trkpt lat="43.63201" lon="1.30691">
        <ele>148.095816</ele>
        <time>2026-04-17T10:53:29.358Z</time>
      </trkpt>
      <trkpt lat="43.63216" lon="1.30689">
        <ele>147.959397</ele>
        <time>2026-04-17T10:53:32.024Z</time>
      </trkpt>
      <trkpt lat="43.63222" lon="1.30694">
        <ele>147.891228</ele>
        <time>2026-04-17T10:53:34.341Z</time>
      </trkpt>
      <trkpt lat="43.63231" lon="1.30702">
        <ele>147.801364</ele>
        <time>2026-04-17T10:53:37.428Z</time>
      </trkpt>
      <trkpt lat="43.63234" lon="1.30717">
        <ele>147.702652</ele>
        <time>2026-04-17T10:53:40.788Z</time>
      </trkpt>
      <trkpt lat="43.63234" lon="1.30736">
        <ele>147.585525</ele>
        <time>2026-04-17T10:53:45.123Z</time>
      </trkpt>
      <trkpt lat="43.63237" lon="1.30751">
        <ele>147.509743</ele>
        <time>2026-04-17T10:53:48.535Z</time>
      </trkpt>
      <trkpt lat="43.63255" lon="1.30785">
        <ele>147.302085</ele>
        <time>2026-04-17T10:53:57.968Z</time>
      </trkpt>
      <trkpt lat="43.63262" lon="1.30786">
        <ele>147.251793</ele>
        <time>2026-04-17T10:54:00.252Z</time>
      </trkpt>
      <trkpt lat="43.63265" lon="1.3078">
        <ele>147.21435</ele>
        <time>2026-04-17T10:54:01.167Z</time>
      </trkpt>
      <trkpt lat="43.63272" lon="1.30768">
        <ele>147.140998</ele>
        <time>2026-04-17T10:54:02.994Z</time>
      </trkpt>
      <trkpt lat="43.63289" lon="1.30734">
        <ele>146.939654</ele>
        <time>2026-04-17T10:54:08.165Z</time>
      </trkpt>
      <trkpt lat="43.63395" lon="1.30884">
        <ele>146.627193</ele>
        <time>2026-04-17T10:54:37.086Z</time>
      </trkpt>
      <trkpt lat="43.63424" lon="1.30918">
        <ele>146.749797</ele>
        <time>2026-04-17T10:54:45.120Z</time>
      </trkpt>
      <trkpt lat="43.63468" lon="1.30944">
        <ele>146.908152</ele>
        <time>2026-04-17T10:54:56.361Z</time>
      </trkpt>
      <trkpt lat="43.63521" lon="1.3097">
        <ele>147.2234</ele>
        <time>2026-04-17T10:55:10.314Z</time>
      </trkpt>
      <trkpt lat="43.63572" lon="1.31057">
        <ele>147.809407</ele>
        <time>2026-04-17T10:55:30.459Z</time>
      </trkpt>
      <trkpt lat="43.6361" lon="1.31113">
        <ele>148.208936</ele>
        <time>2026-04-17T10:55:42.651Z</time>
      </trkpt>
      <trkpt lat="43.63648" lon="1.31203">
        <ele>147.947099</ele>
        <time>2026-04-17T10:55:57.121Z</time>
      </trkpt>
      <trkpt lat="43.63674" lon="1.31239">
        <ele>147.760305</ele>
        <time>2026-04-17T10:56:03.827Z</time>
      </trkpt>
      <trkpt lat="43.63679" lon="1.31249">
        <ele>147.715337</ele>
        <time>2026-04-17T10:56:05.427Z</time>
      </trkpt>
      <trkpt lat="43.63705" lon="1.31355">
        <ele>147.282653</ele>
        <time>2026-04-17T10:56:19.842Z</time>
      </trkpt>
      <trkpt lat="43.63716" lon="1.31393">
        <ele>147.080078</ele>
        <time>2026-04-17T10:56:25.083Z</time>
      </trkpt>
      <trkpt lat="43.63752" lon="1.31473">
        <ele>146.614159</ele>
        <time>2026-04-17T10:56:37.393Z</time>
      </trkpt>
      <trkpt lat="43.63778" lon="1.3152">
        <ele>146.324644</ele>
        <time>2026-04-17T10:56:45.228Z</time>
      </trkpt>
      <trkpt lat="43.63821" lon="1.31611">
        <ele>145.940661</ele>
        <time>2026-04-17T10:57:00.103Z</time>
      </trkpt>
      <trkpt lat="43.63853" lon="1.31656">
        <ele>145.764583</ele>
        <time>2026-04-17T10:57:08.924Z</time>
      </trkpt>
      <trkpt lat="43.63948" lon="1.3174">
        <ele>145.419937</ele>
        <time>2026-04-17T10:57:29.975Z</time>
      </trkpt>
      <trkpt lat="43.6397" lon="1.31755">
        <ele>145.396944</ele>
        <time>2026-04-17T10:57:34.358Z</time>
      </trkpt>
      <trkpt lat="43.64068" lon="1.31808">
        <ele>145.296539</ele>
        <time>2026-04-17T10:57:55.018Z</time>
      </trkpt>
      <trkpt lat="43.64182" lon="1.31868">
        <ele>145.722201</ele>
        <time>2026-04-17T10:58:21.904Z</time>
      </trkpt>
      <trkpt lat="43.642" lon="1.31877">
        <ele>145.805608</ele>
        <time>2026-04-17T10:58:26.315Z</time>
      </trkpt>
      <trkpt lat="43.64248" lon="1.31913">
        <ele>146.045195</ele>
        <time>2026-04-17T10:58:38.481Z</time>
      </trkpt>
      <trkpt lat="43.64277" lon="1.31937">
        <ele>146.130126</ele>
        <time>2026-04-17T10:58:45.629Z</time>
      </trkpt>
      <trkpt lat="43.6428" lon="1.31958">
        <ele>146.166471</ele>
        <time>2026-04-17T10:58:48.533Z</time>
      </trkpt>
      <trkpt lat="43.6431" lon="1.32047">
        <ele>146.327974</ele>
        <time>2026-04-17T10:59:02.083Z</time>
      </trkpt>
      <trkpt lat="43.64337" lon="1.32108">
        <ele>146.44747</ele>
        <time>2026-04-17T10:59:11.400Z</time>
      </trkpt>
      <trkpt lat="43.64385" lon="1.32199">
        <ele>145.841954</ele>
        <time>2026-04-17T10:59:24.345Z</time>
      </trkpt>
      <trkpt lat="43.64435" lon="1.32275">
        <ele>145.16105</ele>
        <time>2026-04-17T10:59:35.306Z</time>
      </trkpt>
      <trkpt lat="43.64448" lon="1.32293">
        <ele>144.994471</ele>
        <time>2026-04-17T10:59:37.932Z</time>
      </trkpt>
      <trkpt lat="43.64493" lon="1.32325">
        <ele>144.40044</ele>
        <time>2026-04-17T10:59:45.031Z</time>
      </trkpt>
      <trkpt lat="43.64502" lon="1.32329">
        <ele>144.283448</ele>
        <time>2026-04-17T10:59:46.295Z</time>
      </trkpt>
      <trkpt lat="43.64532" lon="1.32346">
        <ele>143.855472</ele>
        <time>2026-04-17T10:59:50.952Z</time>
      </trkpt>
      <trkpt lat="43.64566" lon="1.32363">
        <ele>143.385952</ele>
        <time>2026-04-17T10:59:56.107Z</time>
      </trkpt>
      <trkpt lat="43.64599" lon="1.3239">
        <ele>142.884738</ele>
        <time>2026-04-17T11:00:01.623Z</time>
      </trkpt>
      <trkpt lat="43.64631" lon="1.32416">
        <ele>142.553131</ele>
        <time>2026-04-17T11:00:06.865Z</time>
      </trkpt>
      <trkpt lat="43.64683" lon="1.32452">
        <ele>142.983222</ele>
        <time>2026-04-17T11:00:16.519Z</time>
      </trkpt>
      <trkpt lat="43.64716" lon="1.32475">
        <ele>143.255934</ele>
        <time>2026-04-17T11:00:25.994Z</time>
      </trkpt>
      <trkpt lat="43.64729" lon="1.325">
        <ele>143.423925</ele>
        <time>2026-04-17T11:00:31.417Z</time>
      </trkpt>
      <trkpt lat="43.64735" lon="1.32501">
        <ele>143.469704</ele>
        <time>2026-04-17T11:00:32.885Z</time>
      </trkpt>
      <trkpt lat="43.64745" lon="1.32504">
        <ele>143.541572</ele>
        <time>2026-04-17T11:00:35.343Z</time>
      </trkpt>
      <trkpt lat="43.64766" lon="1.32508">
        <ele>143.701395</ele>
        <time>2026-04-17T11:00:40.490Z</time>
      </trkpt>
      <trkpt lat="43.64784" lon="1.32511">
        <ele>143.832022</ele>
        <time>2026-04-17T11:00:44.733Z</time>
      </trkpt>
      <trkpt lat="43.64786" lon="1.32497">
        <ele>143.792655</ele>
        <time>2026-04-17T11:00:46.924Z</time>
      </trkpt>
      <trkpt lat="43.6479" lon="1.32493">
        <ele>143.767936</ele>
        <time>2026-04-17T11:00:48.324Z</time>
      </trkpt>
      <trkpt lat="43.64789" lon="1.32478">
        <ele>143.716779</ele>
        <time>2026-04-17T11:00:50.816Z</time>
      </trkpt>
      <trkpt lat="43.64793" lon="1.32442">
        <ele>143.599799</ele>
        <time>2026-04-17T11:00:56.974Z</time>
      </trkpt>
      <trkpt lat="43.64802" lon="1.32407">
        <ele>143.477233</ele>
        <time>2026-04-17T11:01:02.728Z</time>
      </trkpt>
      <trkpt lat="43.64811" lon="1.32383">
        <ele>143.389919</ele>
        <time>2026-04-17T11:01:05.737Z</time>
      </trkpt>
      <trkpt lat="43.64831" lon="1.32354">
        <ele>143.259544</ele>
        <time>2026-04-17T11:01:09.656Z</time>
      </trkpt>
      <trkpt lat="43.64854" lon="1.32331">
        <ele>143.132066</ele>
        <time>2026-04-17T11:01:13.368Z</time>
      </trkpt>
      <trkpt lat="43.64873" lon="1.32295">
        <ele>142.942532</ele>
        <time>2026-04-17T11:01:17.711Z</time>
      </trkpt>
      <trkpt lat="43.6488" lon="1.32287">
        <ele>142.862529</ele>
        <time>2026-04-17T11:01:18.907Z</time>
      </trkpt>
      <trkpt lat="43.64889" lon="1.32283">
        <ele>142.771857</ele>
        <time>2026-04-17T11:01:20.252Z</time>
      </trkpt>
      <trkpt lat="43.64929" lon="1.3228">
        <ele>142.407202</ele>
        <time>2026-04-17T11:01:25.908Z</time>
      </trkpt>
      <trkpt lat="43.64934" lon="1.3228">
        <ele>142.35738</ele>
        <time>2026-04-17T11:01:26.693Z</time>
      </trkpt>
      <trkpt lat="43.6494" lon="1.32285">
        <ele>142.287549</ele>
        <time>2026-04-17T11:01:27.822Z</time>
      </trkpt>
      <trkpt lat="43.64944" lon="1.32285">
        <ele>142.25246</ele>
        <time>2026-04-17T11:01:28.406Z</time>
      </trkpt>
      <trkpt lat="43.6495" lon="1.32278">
        <ele>142.178231</ele>
        <time>2026-04-17T11:01:29.581Z</time>
      </trkpt>
      <trkpt lat="43.6495" lon="1.32266">
        <ele>142.098831</ele>
        <time>2026-04-17T11:01:30.924Z</time>
      </trkpt>
      <trkpt lat="43.64956" lon="1.32261">
        <ele>142.033542</ele>
        <time>2026-04-17T11:01:32.018Z</time>
      </trkpt>
      <trkpt lat="43.64981" lon="1.32242">
        <ele>141.771163</ele>
        <time>2026-04-17T11:01:36.693Z</time>
      </trkpt>
      <trkpt lat="43.64991" lon="1.32243">
        <ele>141.677936</ele>
        <time>2026-04-17T11:01:38.470Z</time>
      </trkpt>
      <trkpt lat="43.65002" lon="1.32248">
        <ele>141.572221</ele>
        <time>2026-04-17T11:01:40.399Z</time>
      </trkpt>
      <trkpt lat="43.65035" lon="1.32325">
        <ele>141.145322</ele>
        <time>2026-04-17T11:01:51.432Z</time>
      </trkpt>
      <trkpt lat="43.65064" lon="1.32403">
        <ele>140.81175</ele>
        <time>2026-04-17T11:02:01.399Z</time>
      </trkpt>
      <trkpt lat="43.6509" lon="1.32426">
        <ele>140.648429</ele>
        <time>2026-04-17T11:02:06.243Z</time>
      </trkpt>
      <trkpt lat="43.65105" lon="1.3243">
        <ele>140.567547</ele>
        <time>2026-04-17T11:02:08.523Z</time>
      </trkpt>
      <trkpt lat="43.65115" lon="1.32447">
        <ele>140.481897</ele>
        <time>2026-04-17T11:02:11.345Z</time>
      </trkpt>
      <trkpt lat="43.65117" lon="1.3246">
        <ele>140.433865</ele>
        <time>2026-04-17T11:02:12.910Z</time>
      </trkpt>
      <trkpt lat="43.65126" lon="1.32482">
        <ele>140.433309</ele>
        <time>2026-04-17T11:02:16.092Z</time>
      </trkpt>
      <trkpt lat="43.65126" lon="1.32499">
        <ele>140.440571</ele>
        <time>2026-04-17T11:02:18.304Z</time>
      </trkpt>
      <trkpt lat="43.6511" lon="1.32515">
        <ele>140.452365</ele>
        <time>2026-04-17T11:02:22.062Z</time>
      </trkpt>
      <trkpt lat="43.65126" lon="1.32499">
        <ele>140.46416</ele>
        <time>2026-04-17T11:02:26.063Z</time>
      </trkpt>
      <trkpt lat="43.65131" lon="1.32493">
        <ele>140.467748</ele>
        <time>2026-04-17T11:02:27.413Z</time>
      </trkpt>
      <trkpt lat="43.65135" lon="1.32498">
        <ele>140.470834</ele>
        <time>2026-04-17T11:02:28.697Z</time>
      </trkpt>
      <trkpt lat="43.65142" lon="1.32499">
        <ele>140.475238</ele>
        <time>2026-04-17T11:02:30.442Z</time>
      </trkpt>
      <trkpt lat="43.65155" lon="1.32497">
        <ele>140.482546</ele>
        <time>2026-04-17T11:02:33.294Z</time>
      </trkpt>
      <trkpt lat="43.65154" lon="1.32488">
        <ele>140.486347</ele>
        <time>2026-04-17T11:02:34.796Z</time>
      </trkpt>
      <trkpt lat="43.65142" lon="1.32475">
        <ele>140.495276</ele>
        <time>2026-04-17T11:02:38.242Z</time>
      </trkpt>
      <trkpt lat="43.65143" lon="1.32468">
        <ele>140.498275</ele>
        <time>2026-04-17T11:02:39.407Z</time>
      </trkpt>
      <trkpt lat="43.65156" lon="1.32441">
        <ele>140.511735</ele>
        <time>2026-04-17T11:02:44.251Z</time>
      </trkpt>
      <trkpt lat="43.65159" lon="1.32438">
        <ele>140.514238</ele>
        <time>2026-04-17T11:02:45.116Z</time>
      </trkpt>
      <trkpt lat="43.65171" lon="1.32437">
        <ele>140.521467</ele>
        <time>2026-04-17T11:02:47.410Z</time>
      </trkpt>
      <trkpt lat="43.65172" lon="1.32437">
        <ele>140.521933</ele>
        <time>2026-04-17T11:02:47.564Z</time>
      </trkpt>
      <trkpt lat="43.65178" lon="1.32431">
        <ele>140.525996</ele>
        <time>2026-04-17T11:02:48.859Z</time>
      </trkpt>
      <trkpt lat="43.6518" lon="1.32425">
        <ele>140.528646</ele>
        <time>2026-04-17T11:02:49.775Z</time>
      </trkpt>
      <trkpt lat="43.65179" lon="1.32403">
        <ele>140.651733</ele>
        <time>2026-04-17T11:02:52.896Z</time>
      </trkpt>
      <trkpt lat="43.65155" lon="1.32361">
        <ele>140.957514</ele>
        <time>2026-04-17T11:03:01.182Z</time>
      </trkpt>
      <trkpt lat="43.65152" lon="1.32337">
        <ele>141.095972</ele>
        <time>2026-04-17T11:03:05.257Z</time>
      </trkpt>
      <trkpt lat="43.65131" lon="1.32292">
        <ele>141.403989</ele>
        <time>2026-04-17T11:03:13.888Z</time>
      </trkpt>
      <trkpt lat="43.65125" lon="1.32274">
        <ele>141.513454</ele>
        <time>2026-04-17T11:03:16.793Z</time>
      </trkpt>
      <trkpt lat="43.65137" lon="1.32256">
        <ele>141.657071</ele>
        <time>2026-04-17T11:03:23.405Z</time>
      </trkpt>
      <trkpt lat="43.65159" lon="1.32222">
        <ele>141.912254</ele>
        <time>2026-04-17T11:03:35.971Z</time>
      </trkpt>
      <trkpt lat="43.6514" lon="1.322">
        <ele>142.380163</ele>
        <time>2026-04-17T11:03:41.961Z</time>
      </trkpt>
      <trkpt lat="43.65146" lon="1.32191">
        <ele>142.5636</ele>
        <time>2026-04-17T11:03:44.458Z</time>
      </trkpt>
      <trkpt lat="43.65162" lon="1.32198">
        <ele>142.918859</ele>
        <time>2026-04-17T11:03:49.295Z</time>
      </trkpt>
      <trkpt lat="43.65169" lon="1.32197">
        <ele>143.062409</ele>
        <time>2026-04-17T11:03:51.279Z</time>
      </trkpt>
      <trkpt lat="43.65174" lon="1.3219">
        <ele>143.22019</ele>
        <time>2026-04-17T11:03:53.452Z</time>
      </trkpt>
      <trkpt lat="43.65206" lon="1.32099">
        <ele>144.732371</ele>
        <time>2026-04-17T11:04:13.357Z</time>
      </trkpt>
      <trkpt lat="43.65218" lon="1.32049">
        <ele>145.517417</ele>
        <time>2026-04-17T11:04:23.836Z</time>
      </trkpt>
      <trkpt lat="43.65227" lon="1.32019">
        <ele>146.069975</ele>
        <time>2026-04-17T11:04:30.390Z</time>
      </trkpt>
      <trkpt lat="43.65237" lon="1.32007">
        <ele>146.386352</ele>
        <time>2026-04-17T11:04:33.973Z</time>
      </trkpt>
      <trkpt lat="43.65248" lon="1.31996">
        <ele>146.737426</ele>
        <time>2026-04-17T11:04:38.262Z</time>
      </trkpt>
      <trkpt lat="43.65247" lon="1.31981">
        <ele>147.009267</ele>
        <time>2026-04-17T11:04:41.576Z</time>
      </trkpt>
      <trkpt lat="43.65254" lon="1.31976">
        <ele>147.204511</ele>
        <time>2026-04-17T11:04:43.822Z</time>
      </trkpt>
      <trkpt lat="43.65259" lon="1.3196">
        <ele>147.51569</ele>
        <time>2026-04-17T11:04:47.364Z</time>
      </trkpt>
      <trkpt lat="43.65262" lon="1.31938">
        <ele>147.900265</ele>
        <time>2026-04-17T11:04:51.787Z</time>
      </trkpt>
      <trkpt lat="43.65264" lon="1.31906">
        <ele>148.470536</ele>
        <time>2026-04-17T11:04:58.371Z</time>
      </trkpt>
      <trkpt lat="43.65271" lon="1.31903">
        <ele>148.661806</ele>
        <time>2026-04-17T11:05:00.597Z</time>
      </trkpt>
      <trkpt lat="43.65275" lon="1.31893">
        <ele>148.863348</ele>
        <time>2026-04-17T11:05:02.946Z</time>
      </trkpt>
      <trkpt lat="43.65273" lon="1.31881">
        <ele>149.087037</ele>
        <time>2026-04-17T11:05:05.618Z</time>
      </trkpt>
      <trkpt lat="43.65269" lon="1.31877">
        <ele>149.202044</ele>
        <time>2026-04-17T11:05:06.967Z</time>
      </trkpt>
      <trkpt lat="43.6528" lon="1.31819">
        <ele>150.289809</ele>
        <time>2026-04-17T11:05:20.382Z</time>
      </trkpt>
      <trkpt lat="43.65304" lon="1.31739">
        <ele>152.078195</ele>
        <time>2026-04-17T11:05:39.804Z</time>
      </trkpt>
      <trkpt lat="43.65318" lon="1.31726">
        <ele>152.562664</ele>
        <time>2026-04-17T11:05:45.077Z</time>
      </trkpt>
      <trkpt lat="43.65362" lon="1.31709">
        <ele>153.88786</ele>
        <time>2026-04-17T11:06:00.006Z</time>
      </trkpt>
      <trkpt lat="43.65382" lon="1.31683">
        <ele>154.658044</ele>
        <time>2026-04-17T11:06:09.056Z</time>
      </trkpt>
      <trkpt lat="43.65398" lon="1.31624">
        <ele>156.314949</ele>
        <time>2026-04-17T11:06:25.601Z</time>
      </trkpt>
      <trkpt lat="43.65416" lon="1.31543">
        <ele>158.909778</ele>
        <time>2026-04-17T11:06:49.354Z</time>
      </trkpt>
      <trkpt lat="43.6542" lon="1.31509">
        <ele>159.989098</ele>
        <time>2026-04-17T11:06:59.849Z</time>
      </trkpt>
      <trkpt lat="43.6542" lon="1.31504">
        <ele>160.122876</ele>
        <time>2026-04-17T11:07:01.203Z</time>
      </trkpt>
      <trkpt lat="43.65387" lon="1.31479">
        <ele>161.739189</ele>
        <time>2026-04-17T11:07:15.616Z</time>
      </trkpt>
      <trkpt lat="43.65405" lon="1.31386">
        <ele>164.630033</ele>
        <time>2026-04-17T11:07:48.064Z</time>
      </trkpt>
      <trkpt lat="43.654" lon="1.31382">
        <ele>164.870276</ele>
        <time>2026-04-17T11:07:50.168Z</time>
      </trkpt>
      <trkpt lat="43.65387" lon="1.31374">
        <ele>165.43206</ele>
        <time>2026-04-17T11:07:55.416Z</time>
      </trkpt>
      <trkpt lat="43.65363" lon="1.31349">
        <ele>166.679492</ele>
        <time>2026-04-17T11:08:07.064Z</time>
      </trkpt>
      <trkpt lat="43.65318" lon="1.31326">
        <ele>168.598071</ele>
        <time>2026-04-17T11:08:23.624Z</time>
      </trkpt>
      <trkpt lat="43.65325" lon="1.31283">
        <ele>169.898261</ele>
        <time>2026-04-17T11:08:33.927Z</time>
      </trkpt>
      <trkpt lat="43.65297" lon="1.31269">
        <ele>170.747875</ele>
        <time>2026-04-17T11:08:43.578Z</time>
      </trkpt>
      <trkpt lat="43.65241" lon="1.31258">
        <ele>172.133147</ele>
        <time>2026-04-17T11:09:00.013Z</time>
      </trkpt>
      <trkpt lat="43.65223" lon="1.31257">
        <ele>172.58325</ele>
        <time>2026-04-17T11:09:04.716Z</time>
      </trkpt>
      <trkpt lat="43.65216" lon="1.31256">
        <ele>172.760249</ele>
        <time>2026-04-17T11:09:06.645Z</time>
      </trkpt>
      <trkpt lat="43.65208" lon="1.31256">
        <ele>172.949596</ele>
        <time>2026-04-17T11:09:08.654Z</time>
      </trkpt>
      <trkpt lat="43.65184" lon="1.31261">
        <ele>173.540194</ele>
        <time>2026-04-17T11:09:15.004Z</time>
      </trkpt>
      <trkpt lat="43.65171" lon="1.31267">
        <ele>173.872133</ele>
        <time>2026-04-17T11:09:18.619Z</time>
      </trkpt>
      <trkpt lat="43.65152" lon="1.31276">
        <ele>174.370138</ele>
        <time>2026-04-17T11:09:24.387Z</time>
      </trkpt>
      <trkpt lat="43.65132" lon="1.31275">
        <ele>174.91345</ele>
        <time>2026-04-17T11:09:30.664Z</time>
      </trkpt>
      <trkpt lat="43.65141" lon="1.31178">
        <ele>176.930934</ele>
        <time>2026-04-17T11:09:53.029Z</time>
      </trkpt>
      <trkpt lat="43.65148" lon="1.31066">
        <ele>179.251465</ele>
        <time>2026-04-17T11:10:19.273Z</time>
      </trkpt>
      <trkpt lat="43.65148" lon="1.31013">
        <ele>179.898061</ele>
        <time>2026-04-17T11:10:30.207Z</time>
      </trkpt>
      <trkpt lat="43.65138" lon="1.31012">
        <ele>179.970385</ele>
        <time>2026-04-17T11:10:34.258Z</time>
      </trkpt>
      <trkpt lat="43.65148" lon="1.31013">
        <ele>180.04271</ele>
        <time>2026-04-17T11:10:38.197Z</time>
      </trkpt>
      <trkpt lat="43.65207" lon="1.3101">
        <ele>180.476385</ele>
        <time>2026-04-17T11:10:50.180Z</time>
      </trkpt>
      <trkpt lat="43.65219" lon="1.31003">
        <ele>180.57256</ele>
        <time>2026-04-17T11:10:52.328Z</time>
      </trkpt>
      <trkpt lat="43.65226" lon="1.30991">
        <ele>180.653411</ele>
        <time>2026-04-17T11:10:54.111Z</time>
      </trkpt>
      <trkpt lat="43.65252" lon="1.30924">
        <ele>181.049534</ele>
        <time>2026-04-17T11:11:02.931Z</time>
      </trkpt>
      <trkpt lat="43.65261" lon="1.30907">
        <ele>181.028659</ele>
        <time>2026-04-17T11:11:05.511Z</time>
      </trkpt>
      <trkpt lat="43.65282" lon="1.30864">
        <ele>180.979226</ele>
        <time>2026-04-17T11:11:11.750Z</time>
      </trkpt>
      <trkpt lat="43.65342" lon="1.3075">
        <ele>180.843836</ele>
        <time>2026-04-17T11:11:28.884Z</time>
      </trkpt>
      <trkpt lat="43.65355" lon="1.30717">
        <ele>180.811574</ele>
        <time>2026-04-17T11:11:33.495Z</time>
      </trkpt>
      <trkpt lat="43.65466" lon="1.3046">
        <ele>180.817567</ele>
        <time>2026-04-17T11:12:10.495Z</time>
      </trkpt>
      <trkpt lat="43.65474" lon="1.30442">
        <ele>180.824035</ele>
        <time>2026-04-17T11:12:13.130Z</time>
      </trkpt>
      <trkpt lat="43.65481" lon="1.30426">
        <ele>180.8299</ele>
        <time>2026-04-17T11:12:15.519Z</time>
      </trkpt>
      <trkpt lat="43.65546" lon="1.30283">
        <ele>180.870763</ele>
        <time>2026-04-17T11:12:36.608Z</time>
      </trkpt>
      <trkpt lat="43.65596" lon="1.30195">
        <ele>180.821308</ele>
        <time>2026-04-17T11:12:50.578Z</time>
      </trkpt>
      <trkpt lat="43.65646" lon="1.30108">
        <ele>180.772267</ele>
        <time>2026-04-17T11:13:04.136Z</time>
      </trkpt>
      <trkpt lat="43.65696" lon="1.29996">
        <ele>180.585916</ele>
        <time>2026-04-17T11:13:19.882Z</time>
      </trkpt>
      <trkpt lat="43.6573" lon="1.29939">
        <ele>180.475786</ele>
        <time>2026-04-17T11:13:28.573Z</time>
      </trkpt>
      <trkpt lat="43.65739" lon="1.29917">
        <ele>180.438963</ele>
        <time>2026-04-17T11:13:31.500Z</time>
      </trkpt>
      <trkpt lat="43.6574" lon="1.29907">
        <ele>180.423001</ele>
        <time>2026-04-17T11:13:32.762Z</time>
      </trkpt>
      <trkpt lat="43.65738" lon="1.2989">
        <ele>180.397238</ele>
        <time>2026-04-17T11:13:34.808Z</time>
      </trkpt>
      <trkpt lat="43.65693" lon="1.29717">
        <ele>179.945907</ele>
        <time>2026-04-17T11:13:56.712Z</time>
      </trkpt>
      <trkpt lat="43.6567" lon="1.29604">
        <ele>179.630517</ele>
        <time>2026-04-17T11:14:09.951Z</time>
      </trkpt>
      <trkpt lat="43.6567" lon="1.29584">
        <ele>179.56955</ele>
        <time>2026-04-17T11:14:12.203Z</time>
      </trkpt>
      <trkpt lat="43.65675" lon="1.29575">
        <ele>179.538399</ele>
        <time>2026-04-17T11:14:13.357Z</time>
      </trkpt>
      <trkpt lat="43.65683" lon="1.29568">
        <ele>179.498286</ele>
        <time>2026-04-17T11:14:14.828Z</time>
      </trkpt>
      <trkpt lat="43.65688" lon="1.29563">
        <ele>179.470234</ele>
        <time>2026-04-17T11:14:15.876Z</time>
      </trkpt>
      <trkpt lat="43.6576" lon="1.29513">
        <ele>179.138562</ele>
        <time>2026-04-17T11:14:28.465Z</time>
      </trkpt>
      <trkpt lat="43.65794" lon="1.29493">
        <ele>179.120577</ele>
        <time>2026-04-17T11:14:34.770Z</time>
      </trkpt>
      <trkpt lat="43.65799" lon="1.29486">
        <ele>179.17074</ele>
        <time>2026-04-17T11:14:36.080Z</time>
      </trkpt>
      <trkpt lat="43.658" lon="1.29476">
        <ele>179.223265</ele>
        <time>2026-04-17T11:14:37.484Z</time>
      </trkpt>
      <trkpt lat="43.658" lon="1.29461">
        <ele>179.299036</ele>
        <time>2026-04-17T11:14:39.551Z</time>
      </trkpt>
      <trkpt lat="43.65776" lon="1.293">
        <ele>180.126471</ele>
        <time>2026-04-17T11:15:05.066Z</time>
      </trkpt>
      <trkpt lat="43.65776" lon="1.29266">
        <ele>180.29383</ele>
        <time>2026-04-17T11:15:10.420Z</time>
      </trkpt>
      <trkpt lat="43.65779" lon="1.29201">
        <ele>180.438092</ele>
        <time>2026-04-17T11:15:20.262Z</time>
      </trkpt>
      <trkpt lat="43.65777" lon="1.29179">
        <ele>180.487033</ele>
        <time>2026-04-17T11:15:23.446Z</time>
      </trkpt>
      <trkpt lat="43.65711" lon="1.2878">
        <ele>180.9102</ele>
        <time>2026-04-17T11:16:14.120Z</time>
      </trkpt>
      <trkpt lat="43.65711" lon="1.28754">
        <ele>180.934316</ele>
        <time>2026-04-17T11:16:17.547Z</time>
      </trkpt>
      <trkpt lat="43.65701" lon="1.28747">
        <ele>180.948599</ele>
        <time>2026-04-17T11:16:21.467Z</time>
      </trkpt>
      <trkpt lat="43.6567" lon="1.28682">
        <ele>181.019344</ele>
        <time>2026-04-17T11:16:40.983Z</time>
      </trkpt>
      <trkpt lat="43.65471" lon="1.283">
        <ele>181.599751</ele>
        <time>2026-04-17T11:18:38.137Z</time>
      </trkpt>
      <trkpt lat="43.65467" lon="1.28276">
        <ele>181.650164</ele>
        <time>2026-04-17T11:18:44.331Z</time>
      </trkpt>
      <trkpt lat="43.65375" lon="1.2812">
        <ele>182.052561</ele>
        <time>2026-04-17T11:19:35.905Z</time>
      </trkpt>
      <trkpt lat="43.65234" lon="1.28253">
        <ele>182.341915</ele>
        <time>2026-04-17T11:20:22.854Z</time>
      </trkpt>
      <trkpt lat="43.65202" lon="1.28293">
        <ele>182.29932</ele>
        <time>2026-04-17T11:20:34.205Z</time>
      </trkpt>
      <trkpt lat="43.65168" lon="1.28347">
        <ele>182.248495</ele>
        <time>2026-04-17T11:20:47.516Z</time>
      </trkpt>
      <trkpt lat="43.65057" lon="1.28558">
        <ele>181.768631</ele>
        <time>2026-04-17T11:21:45.263Z</time>
      </trkpt>
      <trkpt lat="43.65044" lon="1.28567">
        <ele>181.724717</ele>
        <time>2026-04-17T11:21:49.889Z</time>
      </trkpt>
      <trkpt lat="43.64987" lon="1.28591">
        <ele>181.786957</ele>
        <time>2026-04-17T11:22:09.119Z</time>
      </trkpt>
      <trkpt lat="43.64905" lon="1.28624">
        <ele>182.032016</ele>
        <time>2026-04-17T11:22:37.681Z</time>
      </trkpt>
      <trkpt lat="43.64823" lon="1.28669">
        <ele>182.280506</ele>
        <time>2026-04-17T11:23:07.509Z</time>
      </trkpt>
      <trkpt lat="43.64824" lon="1.28676">
        <ele>182.294872</ele>
        <time>2026-04-17T11:23:08.482Z</time>
      </trkpt>
      <trkpt lat="43.64823" lon="1.28669">
        <ele>182.309238</ele>
        <time>2026-04-17T11:23:09.482Z</time>
      </trkpt>
      <trkpt lat="43.64814" lon="1.28585">
        <ele>182.475325</ele>
        <time>2026-04-17T11:23:20.721Z</time>
      </trkpt>
      <trkpt lat="43.6478" lon="1.28415">
        <ele>182.805856</ele>
        <time>2026-04-17T11:23:43.772Z</time>
      </trkpt>
      <trkpt lat="43.64776" lon="1.28354">
        <ele>182.914663</ele>
        <time>2026-04-17T11:23:51.947Z</time>
      </trkpt>
      <trkpt lat="43.64765" lon="1.28274">
        <ele>183.058572</ele>
        <time>2026-04-17T11:24:02.738Z</time>
      </trkpt>
      <trkpt lat="43.64764" lon="1.28242">
        <ele>183.112604</ele>
        <time>2026-04-17T11:24:06.962Z</time>
      </trkpt>
      <trkpt lat="43.64768" lon="1.28148">
        <ele>183.151721</ele>
        <time>2026-04-17T11:24:19.103Z</time>
      </trkpt>
      <trkpt lat="43.64762" lon="1.2805">
        <ele>183.191874</ele>
        <time>2026-04-17T11:24:31.157Z</time>
      </trkpt>
      <trkpt lat="43.64765" lon="1.28023">
        <ele>183.203477</ele>
        <time>2026-04-17T11:24:34.624Z</time>
      </trkpt>
      <trkpt lat="43.64785" lon="1.27945">
        <ele>183.257364</ele>
        <time>2026-04-17T11:24:44.825Z</time>
      </trkpt>
      <trkpt lat="43.64805" lon="1.27886">
        <ele>183.307043</ele>
        <time>2026-04-17T11:24:53.063Z</time>
      </trkpt>
      <trkpt lat="43.6482" lon="1.27848">
        <ele>183.340115</ele>
        <time>2026-04-17T11:24:58.691Z</time>
      </trkpt>
      <trkpt lat="43.6485" lon="1.27783">
        <ele>183.399042</ele>
        <time>2026-04-17T11:25:08.616Z</time>
      </trkpt>
      <trkpt lat="43.6486" lon="1.27756">
        <ele>183.413259</ele>
        <time>2026-04-17T11:25:12.495Z</time>
      </trkpt>
      <trkpt lat="43.64857" lon="1.27734">
        <ele>183.421953</ele>
        <time>2026-04-17T11:25:15.383Z</time>
      </trkpt>
      <trkpt lat="43.64846" lon="1.2774">
        <ele>183.428371</ele>
        <time>2026-04-17T11:25:17.501Z</time>
      </trkpt>
      <trkpt lat="43.64831" lon="1.27738">
        <ele>183.43636</ele>
        <time>2026-04-17T11:25:20.137Z</time>
      </trkpt>
      <trkpt lat="43.64716" lon="1.27681">
        <ele>183.500582</ele>
        <time>2026-04-17T11:25:41.069Z</time>
      </trkpt>
      <trkpt lat="43.64695" lon="1.27677">
        <ele>183.505273</ele>
        <time>2026-04-17T11:25:44.744Z</time>
      </trkpt>
      <trkpt lat="43.64685" lon="1.2768">
        <ele>183.507546</ele>
        <time>2026-04-17T11:25:46.531Z</time>
      </trkpt>
      <trkpt lat="43.64644" lon="1.27705">
        <ele>183.517286</ele>
        <time>2026-04-17T11:25:54.224Z</time>
      </trkpt>
      <trkpt lat="43.64582" lon="1.27761">
        <ele>183.533607</ele>
        <time>2026-04-17T11:26:06.924Z</time>
      </trkpt>
      <trkpt lat="43.64572" lon="1.27766">
        <ele>183.536041</ele>
        <time>2026-04-17T11:26:08.838Z</time>
      </trkpt>
      <trkpt lat="43.64503" lon="1.27787">
        <ele>183.615612</ele>
        <time>2026-04-17T11:26:20.933Z</time>
      </trkpt>
      <trkpt lat="43.64473" lon="1.27801">
        <ele>183.659883</ele>
        <time>2026-04-17T11:26:26.493Z</time>
      </trkpt>
      <trkpt lat="43.6445" lon="1.27815">
        <ele>183.695314</ele>
        <time>2026-04-17T11:26:31.004Z</time>
      </trkpt>
      <trkpt lat="43.64348" lon="1.27892">
        <ele>183.684234</ele>
        <time>2026-04-17T11:26:51.902Z</time>
      </trkpt>
      <trkpt lat="43.64288" lon="1.27933">
        <ele>183.532539</ele>
        <time>2026-04-17T11:27:02.956Z</time>
      </trkpt>
      <trkpt lat="43.64236" lon="1.27959">
        <ele>183.40734</ele>
        <time>2026-04-17T11:27:11.639Z</time>
      </trkpt>
      <trkpt lat="43.64162" lon="1.27982">
        <ele>183.326829</ele>
        <time>2026-04-17T11:27:23.745Z</time>
      </trkpt>
      <trkpt lat="43.64122" lon="1.27988">
        <ele>183.291538</ele>
        <time>2026-04-17T11:27:30.506Z</time>
      </trkpt>
      <trkpt lat="43.64077" lon="1.27992">
        <ele>183.252504</ele>
        <time>2026-04-17T11:27:38.438Z</time>
      </trkpt>
      <trkpt lat="43.64002" lon="1.27992">
        <ele>183.351151</ele>
        <time>2026-04-17T11:27:52.724Z</time>
      </trkpt>
      <trkpt lat="43.63998" lon="1.27992">
        <ele>183.362959</ele>
        <time>2026-04-17T11:27:53.576Z</time>
      </trkpt>
      <trkpt lat="43.64213" lon="1.27418">
        <ele>184.541227</ele>
        <time>2026-04-17T11:29:31.895Z</time>
      </trkpt>
      <trkpt lat="43.64226" lon="1.27373">
        <ele>184.611793</ele>
        <time>2026-04-17T11:29:38.942Z</time>
      </trkpt>
      <trkpt lat="43.64248" lon="1.27273">
        <ele>184.741473</ele>
        <time>2026-04-17T11:29:53.981Z</time>
      </trkpt>
      <trkpt lat="43.64256" lon="1.27241">
        <ele>184.784541</ele>
        <time>2026-04-17T11:29:59.106Z</time>
      </trkpt>
      <trkpt lat="43.64266" lon="1.27218">
        <ele>184.81692</ele>
        <time>2026-04-17T11:30:03.029Z</time>
      </trkpt>
      <trkpt lat="43.64278" lon="1.27196">
        <ele>184.85135</ele>
        <time>2026-04-17T11:30:07.256Z</time>
      </trkpt>
      <trkpt lat="43.64348" lon="1.27064">
        <ele>185.078074</ele>
        <time>2026-04-17T11:30:32.749Z</time>
      </trkpt>
      <trkpt lat="43.63855" lon="1.26795">
        <ele>185.491048</ele>
        <time>2026-04-17T11:32:19.064Z</time>
      </trkpt>
      <trkpt lat="43.63848" lon="1.2679">
        <ele>185.494806</ele>
        <time>2026-04-17T11:32:20.705Z</time>
      </trkpt>
      <trkpt lat="43.63384" lon="1.26533">
        <ele>185.758374</ele>
        <time>2026-04-17T11:34:01.030Z</time>
      </trkpt>
      <trkpt lat="43.6337" lon="1.26559">
        <ele>185.788637</ele>
        <time>2026-04-17T11:34:05.794Z</time>
      </trkpt>
      <trkpt lat="43.63384" lon="1.26533">
        <ele>185.818901</ele>
        <time>2026-04-17T11:34:10.599Z</time>
      </trkpt>
      <trkpt lat="43.6314" lon="1.26226">
        <ele>186.164674</ele>
        <time>2026-04-17T11:35:18.569Z</time>
      </trkpt>
      <trkpt lat="43.62937" lon="1.26034">
        <ele>185.96452</ele>
        <time>2026-04-17T11:36:35.586Z</time>
      </trkpt>
      <trkpt lat="43.62914" lon="1.26016">
        <ele>185.934471</ele>
        <time>2026-04-17T11:36:43.919Z</time>
      </trkpt>
      <trkpt lat="43.62904" lon="1.26015">
        <ele>185.922421</ele>
        <time>2026-04-17T11:36:47.252Z</time>
      </trkpt>
      <trkpt lat="43.62887" lon="1.26025">
        <ele>185.917758</ele>
        <time>2026-04-17T11:36:53.044Z</time>
      </trkpt>
      <trkpt lat="43.62857" lon="1.26069">
        <ele>185.940239</ele>
        <time>2026-04-17T11:37:07.088Z</time>
      </trkpt>
      <trkpt lat="43.62845" lon="1.26078">
        <ele>185.947097</ele>
        <time>2026-04-17T11:37:11.376Z</time>
      </trkpt>
      <trkpt lat="43.62806" lon="1.26083">
        <ele>185.967202</ele>
        <time>2026-04-17T11:37:24.018Z</time>
      </trkpt>
      <trkpt lat="43.62673" lon="1.26081">
        <ele>186.100569</ele>
        <time>2026-04-17T11:38:06.571Z</time>
      </trkpt>
      <trkpt lat="43.62635" lon="1.26074">
        <ele>186.16283</ele>
        <time>2026-04-17T11:38:19.003Z</time>
      </trkpt>
      <trkpt lat="43.62394" lon="1.25973">
        <ele>186.774778</ele>
        <time>2026-04-17T11:39:42.073Z</time>
      </trkpt>
      <trkpt lat="43.62353" lon="1.25929">
        <ele>186.788696</ele>
        <time>2026-04-17T11:39:59.463Z</time>
      </trkpt>
      <trkpt lat="43.62335" lon="1.25921">
        <ele>186.781829</ele>
        <time>2026-04-17T11:40:05.984Z</time>
      </trkpt>
      <trkpt lat="43.62307" lon="1.25917">
        <ele>186.77202</ele>
        <time>2026-04-17T11:40:15.201Z</time>
      </trkpt>
      <trkpt lat="43.62288" lon="1.25908">
        <ele>186.764761</ele>
        <time>2026-04-17T11:40:21.969Z</time>
      </trkpt>
      <trkpt lat="43.62278" lon="1.25894">
        <ele>186.759679</ele>
        <time>2026-04-17T11:40:26.640Z</time>
      </trkpt>
      <trkpt lat="43.62268" lon="1.25867">
        <ele>186.752108</ele>
        <time>2026-04-17T11:40:33.339Z</time>
      </trkpt>
      <trkpt lat="43.6224" lon="1.25773">
        <ele>186.055246</ele>
        <time>2026-04-17T11:40:55.213Z</time>
      </trkpt>
      <trkpt lat="43.62232" lon="1.25756">
        <ele>185.801132</ele>
        <time>2026-04-17T11:40:59.300Z</time>
      </trkpt>
      <trkpt lat="43.62191" lon="1.25688">
        <ele>184.674918</ele>
        <time>2026-04-17T11:41:17.067Z</time>
      </trkpt>
      <trkpt lat="43.62175" lon="1.25674">
        <ele>184.342999</ele>
        <time>2026-04-17T11:41:22.221Z</time>
      </trkpt>
      <trkpt lat="43.62158" lon="1.25667">
        <ele>184.036418</ele>
        <time>2026-04-17T11:41:26.916Z</time>
      </trkpt>
      <trkpt lat="43.62133" lon="1.25666">
        <ele>183.590909</ele>
        <time>2026-04-17T11:41:33.663Z</time>
      </trkpt>
      <trkpt lat="43.62091" lon="1.25669">
        <ele>182.034188</ele>
        <time>2026-04-17T11:41:44.640Z</time>
      </trkpt>
      <trkpt lat="43.62069" lon="1.25666">
        <ele>181.18929</ele>
        <time>2026-04-17T11:41:50.454Z</time>
      </trkpt>
      <trkpt lat="43.62032" lon="1.25655">
        <ele>179.780081</ele>
        <time>2026-04-17T11:41:59.981Z</time>
      </trkpt>
      <trkpt lat="43.62001" lon="1.25658">
        <ele>178.597915</ele>
        <time>2026-04-17T11:42:07.751Z</time>
      </trkpt>
      <trkpt lat="43.61906" lon="1.25695">
        <ele>174.956632</ele>
        <time>2026-04-17T11:42:31.490Z</time>
      </trkpt>
      <trkpt lat="43.61869" lon="1.25738">
        <ele>173.176495</ele>
        <time>2026-04-17T11:42:43.509Z</time>
      </trkpt>
      <trkpt lat="43.61834" lon="1.25753">
        <ele>171.85918</ele>
        <time>2026-04-17T11:42:52.766Z</time>
      </trkpt>
      <trkpt lat="43.61834" lon="1.25742">
        <ele>171.569117</ele>
        <time>2026-04-17T11:42:54.894Z</time>
      </trkpt>
      <trkpt lat="43.61834" lon="1.25753">
        <ele>171.279054</ele>
        <time>2026-04-17T11:42:56.975Z</time>
      </trkpt>
      <trkpt lat="43.61836" lon="1.25783">
        <ele>170.486609</ele>
        <time>2026-04-17T11:43:03.330Z</time>
      </trkpt>
      <trkpt lat="43.61842" lon="1.25805">
        <ele>170.195652</ele>
        <time>2026-04-17T11:43:08.350Z</time>
      </trkpt>
      <trkpt lat="43.61888" lon="1.25918">
        <ele>169.588461</ele>
        <time>2026-04-17T11:43:38.099Z</time>
      </trkpt>
      <trkpt lat="43.61903" lon="1.25966">
        <ele>169.34361</ele>
        <time>2026-04-17T11:43:51.077Z</time>
      </trkpt>
      <trkpt lat="43.61913" lon="1.26012">
        <ele>169.117516</ele>
        <time>2026-04-17T11:44:03.089Z</time>
      </trkpt>
      <trkpt lat="43.6192" lon="1.26074">
        <ele>168.865788</ele>
        <time>2026-04-17T11:44:18.031Z</time>
      </trkpt>
      <trkpt lat="43.61922" lon="1.26141">
        <ele>168.594671</ele>
        <time>2026-04-17T11:44:33.868Z</time>
      </trkpt>
      <trkpt lat="43.61937" lon="1.26306">
        <ele>167.965458</ele>
        <time>2026-04-17T11:45:11.731Z</time>
      </trkpt>
      <trkpt lat="43.61905" lon="1.26335">
        <ele>167.799333</ele>
        <time>2026-04-17T11:45:23.834Z</time>
      </trkpt>
      <trkpt lat="43.61887" lon="1.26359">
        <ele>167.691557</ele>
        <time>2026-04-17T11:45:31.802Z</time>
      </trkpt>
      <trkpt lat="43.61875" lon="1.26388">
        <ele>167.586121</ele>
        <time>2026-04-17T11:45:39.778Z</time>
      </trkpt>
      <trkpt lat="43.6187" lon="1.26431">
        <ele>167.450894</ele>
        <time>2026-04-17T11:45:50.516Z</time>
      </trkpt>
      <trkpt lat="43.6187" lon="1.26441">
        <ele>167.41959</ele>
        <time>2026-04-17T11:45:53.247Z</time>
      </trkpt>
      <trkpt lat="43.61862" lon="1.2645">
        <ele>167.376535</ele>
        <time>2026-04-17T11:45:57.026Z</time>
      </trkpt>
      <trkpt lat="43.61862" lon="1.26467">
        <ele>167.326158</ele>
        <time>2026-04-17T11:46:01.144Z</time>
      </trkpt>
      <trkpt lat="43.61852" lon="1.26511">
        <ele>167.365308</ele>
        <time>2026-04-17T11:46:12.609Z</time>
      </trkpt>
      <trkpt lat="43.61844" lon="1.2653">
        <ele>167.384836</ele>
        <time>2026-04-17T11:46:18.260Z</time>
      </trkpt>
      <trkpt lat="43.61837" lon="1.26537">
        <ele>167.39528</ele>
        <time>2026-04-17T11:46:21.309Z</time>
      </trkpt>
      <trkpt lat="43.61823" lon="1.26541">
        <ele>167.411618</ele>
        <time>2026-04-17T11:46:26.481Z</time>
      </trkpt>
      <trkpt lat="43.61837" lon="1.26537">
        <ele>167.427956</ele>
        <time>2026-04-17T11:46:31.601Z</time>
      </trkpt>
      <trkpt lat="43.61831" lon="1.26497">
        <ele>167.463159</ele>
        <time>2026-04-17T11:46:37.408Z</time>
      </trkpt>
      <trkpt lat="43.61821" lon="1.26449">
        <ele>167.505917</ele>
        <time>2026-04-17T11:46:44.395Z</time>
      </trkpt>
      <trkpt lat="43.61767" lon="1.26224">
        <ele>168.184093</ele>
        <time>2026-04-17T11:47:18.081Z</time>
      </trkpt>
      <trkpt lat="43.61762" lon="1.26155">
        <ele>168.628163</ele>
        <time>2026-04-17T11:47:30.497Z</time>
      </trkpt>
      <trkpt lat="43.61734" lon="1.2605">
        <ele>170.213773</ele>
        <time>2026-04-17T11:47:55.000Z</time>
      </trkpt>
      <trkpt lat="43.61712" lon="1.25998">
        <ele>171.078223</ele>
        <time>2026-04-17T11:48:08.964Z</time>
      </trkpt>
      <trkpt lat="43.61704" lon="1.25988">
        <ele>171.288902</ele>
        <time>2026-04-17T11:48:12.416Z</time>
      </trkpt>
      <trkpt lat="43.61685" lon="1.25975">
        <ele>171.709503</ele>
        <time>2026-04-17T11:48:18.650Z</time>
      </trkpt>
      <trkpt lat="43.61681" lon="1.25969">
        <ele>171.82243</ele>
        <time>2026-04-17T11:48:20.108Z</time>
      </trkpt>
      <trkpt lat="43.61659" lon="1.25923">
        <ele>171.712035</ele>
        <time>2026-04-17T11:48:30.429Z</time>
      </trkpt>
      <trkpt lat="43.61644" lon="1.25876">
        <ele>171.530172</ele>
        <time>2026-04-17T11:48:38.195Z</time>
      </trkpt>
      <trkpt lat="43.61638" lon="1.25862">
        <ele>171.474951</ele>
        <time>2026-04-17T11:48:40.320Z</time>
      </trkpt>
      <trkpt lat="43.61645" lon="1.25853">
        <ele>171.429949</ele>
        <time>2026-04-17T11:48:41.655Z</time>
      </trkpt>
      <trkpt lat="43.61651" lon="1.25843">
        <ele>171.381256</ele>
        <time>2026-04-17T11:48:43.067Z</time>
      </trkpt>
      <trkpt lat="43.61637" lon="1.25813">
        <ele>171.251549</ele>
        <time>2026-04-17T11:48:46.743Z</time>
      </trkpt>
      <trkpt lat="43.61591" lon="1.25701">
        <ele>170.786095</ele>
        <time>2026-04-17T11:48:59.153Z</time>
      </trkpt>
      <trkpt lat="43.61588" lon="1.25692">
        <ele>170.75051</ele>
        <time>2026-04-17T11:49:00.144Z</time>
      </trkpt>
      <trkpt lat="43.61573" lon="1.25643">
        <ele>170.549205</ele>
        <time>2026-04-17T11:49:05.766Z</time>
      </trkpt>
      <trkpt lat="43.61565" lon="1.256">
        <ele>170.38461</ele>
        <time>2026-04-17T11:49:10.878Z</time>
      </trkpt>
      <trkpt lat="43.61564" lon="1.25576">
        <ele>170.293949</ele>
        <time>2026-04-17T11:49:14.101Z</time>
      </trkpt>
      <trkpt lat="43.61566" lon="1.25504">
        <ele>170.318731</ele>
        <time>2026-04-17T11:49:25.812Z</time>
      </trkpt>
      <trkpt lat="43.61557" lon="1.25425">
        <ele>171.557178</ele>
        <time>2026-04-17T11:49:41.419Z</time>
      </trkpt>
      <trkpt lat="43.61553" lon="1.25341">
        <ele>172.868755</ele>
        <time>2026-04-17T11:49:58.840Z</time>
      </trkpt>
      <trkpt lat="43.61559" lon="1.25239">
        <ele>174.520097</ele>
        <time>2026-04-17T11:50:19.236Z</time>
      </trkpt>
      <trkpt lat="43.61575" lon="1.2516">
        <ele>175.945152</ele>
        <time>2026-04-17T11:50:35.535Z</time>
      </trkpt>
      <trkpt lat="43.61579" lon="1.25122">
        <ele>176.612985</ele>
        <time>2026-04-17T11:50:42.982Z</time>
      </trkpt>
      <trkpt lat="43.61572" lon="1.25086">
        <ele>177.256022</ele>
        <time>2026-04-17T11:50:50.112Z</time>
      </trkpt>
      <trkpt lat="43.61557" lon="1.25047">
        <ele>178.020739</ele>
        <time>2026-04-17T11:50:58.954Z</time>
      </trkpt>
      <trkpt lat="43.61555" lon="1.25024">
        <ele>178.473144</ele>
        <time>2026-04-17T11:51:04.161Z</time>
      </trkpt>
      <trkpt lat="43.61557" lon="1.25005">
        <ele>178.885114</ele>
        <time>2026-04-17T11:51:08.481Z</time>
      </trkpt>
      <trkpt lat="43.6156" lon="1.24989">
        <ele>179.256864</ele>
        <time>2026-04-17T11:51:12.441Z</time>
      </trkpt>
      <trkpt lat="43.61576" lon="1.24923">
        <ele>180.772549</ele>
        <time>2026-04-17T11:51:28.635Z</time>
      </trkpt>
      <trkpt lat="43.61551" lon="1.24899">
        <ele>181.702858</ele>
        <time>2026-04-17T11:51:43.466Z</time>
      </trkpt>
      <trkpt lat="43.61524" lon="1.24832">
        <ele>183.370289</ele>
        <time>2026-04-17T11:52:10.013Z</time>
      </trkpt>
      <trkpt lat="43.6148" lon="1.24673">
        <ele>185.938694</ele>
        <time>2026-04-17T11:53:04.811Z</time>
      </trkpt>
      <trkpt lat="43.61463" lon="1.24643">
        <ele>186.486995</ele>
        <time>2026-04-17T11:53:15.691Z</time>
      </trkpt>
      <trkpt lat="43.61443" lon="1.24577">
        <ele>187.397405</ele>
        <time>2026-04-17T11:53:35.837Z</time>
      </trkpt>
      <trkpt lat="43.61441" lon="1.24547">
        <ele>187.596556</ele>
        <time>2026-04-17T11:53:44.030Z</time>
      </trkpt>
      <trkpt lat="43.61442" lon="1.24522">
        <ele>187.764362</ele>
        <time>2026-04-17T11:53:50.866Z</time>
      </trkpt>
      <trkpt lat="43.61438" lon="1.24496">
        <ele>187.945117</ele>
        <time>2026-04-17T11:53:54.998Z</time>
      </trkpt>
      <trkpt lat="43.61435" lon="1.24427">
        <ele>188.404014</ele>
        <time>2026-04-17T11:54:05.573Z</time>
      </trkpt>
      <trkpt lat="43.61428" lon="1.24408">
        <ele>188.550285</ele>
        <time>2026-04-17T11:54:08.878Z</time>
      </trkpt>
      <trkpt lat="43.61425" lon="1.24384">
        <ele>188.714557</ele>
        <time>2026-04-17T11:54:12.564Z</time>
      </trkpt>
      <trkpt lat="43.6142" lon="1.24313">
        <ele>189.098495</ele>
        <time>2026-04-17T11:54:23.299Z</time>
      </trkpt>
      <trkpt lat="43.61403" lon="1.24111">
        <ele>189.927055</ele>
        <time>2026-04-17T11:54:52.030Z</time>
      </trkpt>
      <trkpt lat="43.61386" lon="1.24114">
        <ele>189.984989</ele>
        <time>2026-04-17T11:54:55.100Z</time>
      </trkpt>
      <trkpt lat="43.61364" lon="1.24119">
        <ele>190.031403</ele>
        <time>2026-04-17T11:54:59.247Z</time>
      </trkpt>
      <trkpt lat="43.61386" lon="1.24114">
        <ele>190.077816</ele>
        <time>2026-04-17T11:55:03.289Z</time>
      </trkpt>
      <trkpt lat="43.61383" lon="1.24027">
        <ele>190.208119</ele>
        <time>2026-04-17T11:55:14.661Z</time>
      </trkpt>
      <trkpt lat="43.61385" lon="1.2399">
        <ele>190.263737</ele>
        <time>2026-04-17T11:55:19.300Z</time>
      </trkpt>
      <trkpt lat="43.61392" lon="1.23928">
        <ele>190.366569</ele>
        <time>2026-04-17T11:55:27.290Z</time>
      </trkpt>
      <trkpt lat="43.61404" lon="1.23866">
        <ele>190.503266</ele>
        <time>2026-04-17T11:55:35.732Z</time>
      </trkpt>
      <trkpt lat="43.61426" lon="1.23773">
        <ele>190.709838</ele>
        <time>2026-04-17T11:55:48.679Z</time>
      </trkpt>
      <trkpt lat="43.61427" lon="1.23768">
        <ele>190.72122</ele>
        <time>2026-04-17T11:55:49.434Z</time>
      </trkpt>
      <trkpt lat="43.61428" lon="1.23761">
        <ele>190.736098</ele>
        <time>2026-04-17T11:55:50.419Z</time>
      </trkpt>
      <trkpt lat="43.61422" lon="1.23759">
        <ele>190.753627</ele>
        <time>2026-04-17T11:55:52.115Z</time>
      </trkpt>
      <trkpt lat="43.61428" lon="1.23761">
        <ele>190.771156</ele>
        <time>2026-04-17T11:55:53.844Z</time>
      </trkpt>
      <trkpt lat="43.61431" lon="1.23748">
        <ele>190.798813</ele>
        <time>2026-04-17T11:55:55.648Z</time>
      </trkpt>
      <trkpt lat="43.61435" lon="1.23742">
        <ele>190.816029</ele>
        <time>2026-04-17T11:55:56.802Z</time>
      </trkpt>
      <trkpt lat="43.61431" lon="1.23739">
        <ele>190.829072</ele>
        <time>2026-04-17T11:55:57.639Z</time>
      </trkpt>
      <trkpt lat="43.61423" lon="1.23726">
        <ele>190.864754</ele>
        <time>2026-04-17T11:55:59.991Z</time>
      </trkpt>
      <trkpt lat="43.61402" lon="1.2371">
        <ele>190.934786</ele>
        <time>2026-04-17T11:56:04.564Z</time>
      </trkpt>
      <trkpt lat="43.61408" lon="1.23687">
        <ele>190.988082</ele>
        <time>2026-04-17T11:56:08.043Z</time>
      </trkpt>
      <trkpt lat="43.61416" lon="1.23655">
        <ele>191.058701</ele>
        <time>2026-04-17T11:56:12.524Z</time>
      </trkpt>
      <trkpt lat="43.61431" lon="1.23598">
        <ele>191.187189</ele>
        <time>2026-04-17T11:56:20.520Z</time>
      </trkpt>
      <trkpt lat="43.6144" lon="1.23564">
        <ele>191.263312</ele>
        <time>2026-04-17T11:56:25.214Z</time>
      </trkpt>
      <trkpt lat="43.61454" lon="1.23506">
        <ele>191.390737</ele>
        <time>2026-04-17T11:56:33.279Z</time>
      </trkpt>
      <trkpt lat="43.6147" lon="1.23428">
        <ele>191.466793</ele>
        <time>2026-04-17T11:56:43.602Z</time>
      </trkpt>
      <trkpt lat="43.61477" lon="1.23388">
        <ele>191.505097</ele>
        <time>2026-04-17T11:56:48.720Z</time>
      </trkpt>
      <trkpt lat="43.61479" lon="1.23373">
        <ele>191.519162</ele>
        <time>2026-04-17T11:56:50.651Z</time>
      </trkpt>
      <trkpt lat="43.61489" lon="1.23336">
        <ele>191.555998</ele>
        <time>2026-04-17T11:56:55.712Z</time>
      </trkpt>
      <trkpt lat="43.61507" lon="1.23307">
        <ele>191.592464</ele>
        <time>2026-04-17T11:57:00.763Z</time>
      </trkpt>
      <trkpt lat="43.61516" lon="1.23252">
        <ele>191.62139</ele>
        <time>2026-04-17T11:57:08.079Z</time>
      </trkpt>
      <trkpt lat="43.61521" lon="1.23215">
        <ele>191.62212</ele>
        <time>2026-04-17T11:57:12.827Z</time>
      </trkpt>
      <trkpt lat="43.61522" lon="1.23209">
        <ele>191.622237</ele>
        <time>2026-04-17T11:57:13.588Z</time>
      </trkpt>
      <trkpt lat="43.61534" lon="1.23131">
        <ele>191.623773</ele>
        <time>2026-04-17T11:57:23.538Z</time>
      </trkpt>
      <trkpt lat="43.61535" lon="1.23121">
        <ele>191.623965</ele>
        <time>2026-04-17T11:57:24.765Z</time>
      </trkpt>
      <trkpt lat="43.61541" lon="1.2309">
        <ele>191.624591</ele>
        <time>2026-04-17T11:57:28.787Z</time>
      </trkpt>
      <trkpt lat="43.61547" lon="1.23066">
        <ele>191.625071</ele>
        <time>2026-04-17T11:57:31.825Z</time>
      </trkpt>
      <trkpt lat="43.61551" lon="1.23045">
        <ele>191.625501</ele>
        <time>2026-04-17T11:57:34.536Z</time>
      </trkpt>
      <trkpt lat="43.61544" lon="1.23042">
        <ele>191.625675</ele>
        <time>2026-04-17T11:57:36.228Z</time>
      </trkpt>
      <trkpt lat="43.6153" lon="1.23041">
        <ele>191.618842</ele>
        <time>2026-04-17T11:57:40.002Z</time>
      </trkpt>
      <trkpt lat="43.61544" lon="1.23042">
        <ele>191.611835</ele>
        <time>2026-04-17T11:57:43.767Z</time>
      </trkpt>
      <trkpt lat="43.61551" lon="1.23045">
        <ele>191.608683</ele>
        <time>2026-04-17T11:57:45.470Z</time>
      </trkpt>
      <trkpt lat="43.61554" lon="1.23005">
        <ele>191.594571</ele>
        <time>2026-04-17T11:57:50.900Z</time>
      </trkpt>
      <trkpt lat="43.61563" lon="1.2299">
        <ele>191.587568</ele>
        <time>2026-04-17T11:57:53.621Z</time>
      </trkpt>
      <trkpt lat="43.61568" lon="1.22977">
        <ele>191.582472</ele>
        <time>2026-04-17T11:57:55.596Z</time>
      </trkpt>
      <trkpt lat="43.61577" lon="1.22937">
        <ele>191.568044</ele>
        <time>2026-04-17T11:58:01.202Z</time>
      </trkpt>
      <trkpt lat="43.61598" lon="1.22866">
        <ele>191.541166</ele>
        <time>2026-04-17T11:58:11.857Z</time>
      </trkpt>
      <trkpt lat="43.61619" lon="1.22807">
        <ele>191.650341</ele>
        <time>2026-04-17T11:58:21.621Z</time>
      </trkpt>
      <trkpt lat="43.61655" lon="1.22731">
        <ele>191.820661</ele>
        <time>2026-04-17T11:58:35.756Z</time>
      </trkpt>
      <trkpt lat="43.61687" lon="1.22673">
        <ele>191.958777</ele>
        <time>2026-04-17T11:58:46.659Z</time>
      </trkpt>
      <trkpt lat="43.61697" lon="1.2266">
        <ele>191.995226</ele>
        <time>2026-04-17T11:58:49.400Z</time>
      </trkpt>
      <trkpt lat="43.61823" lon="1.22648">
        <ele>192.06915</ele>
        <time>2026-04-17T11:59:13.019Z</time>
      </trkpt>
      <trkpt lat="43.61889" lon="1.22645">
        <ele>192.168143</ele>
        <time>2026-04-17T11:59:25.908Z</time>
      </trkpt>
      <trkpt lat="43.61893" lon="1.2264">
        <ele>192.225637</ele>
        <time>2026-04-17T11:59:27.193Z</time>
      </trkpt>
      <trkpt lat="43.61912" lon="1.2259">
        <ele>192.604526</ele>
        <time>2026-04-17T11:59:36.032Z</time>
      </trkpt>
      <trkpt lat="43.62123" lon="1.22065">
        <ele>197.363984</ele>
        <time>2026-04-17T12:01:19.676Z</time>
      </trkpt>
      <trkpt lat="43.62145" lon="1.22021">
        <ele>197.937378</ele>
        <time>2026-04-17T12:01:30.431Z</time>
      </trkpt>
      <trkpt lat="43.62165" lon="1.21993">
        <ele>198.763055</ele>
        <time>2026-04-17T12:01:39.209Z</time>
      </trkpt>
      <trkpt lat="43.62172" lon="1.21975">
        <ele>199.350461</ele>
        <time>2026-04-17T12:01:44.164Z</time>
      </trkpt>
      <trkpt lat="43.62175" lon="1.2197">
        <ele>199.546805</ele>
        <time>2026-04-17T12:01:45.856Z</time>
      </trkpt>
      <trkpt lat="43.62181" lon="1.21961">
        <ele>199.884756</ele>
        <time>2026-04-17T12:01:48.848Z</time>
      </trkpt>
      <trkpt lat="43.62196" lon="1.21936">
        <ele>200.815026</ele>
        <time>2026-04-17T12:01:57.506Z</time>
      </trkpt>
      <trkpt lat="43.62205" lon="1.21915">
        <ele>201.519632</ele>
        <time>2026-04-17T12:02:06.592Z</time>
      </trkpt>
      <trkpt lat="43.62233" lon="1.21882">
        <ele>202.976527</ele>
        <time>2026-04-17T12:02:25.865Z</time>
      </trkpt>
      <trkpt lat="43.62247" lon="1.21828">
        <ele>204.580583</ele>
        <time>2026-04-17T12:02:47.769Z</time>
      </trkpt>
      <trkpt lat="43.62263" lon="1.21775">
        <ele>205.909095</ele>
        <time>2026-04-17T12:03:10.723Z</time>
      </trkpt>
      <trkpt lat="43.62293" lon="1.21707">
        <ele>207.471992</ele>
        <time>2026-04-17T12:03:39.225Z</time>
      </trkpt>
      <trkpt lat="43.62297" lon="1.21681">
        <ele>208.00263</ele>
        <time>2026-04-17T12:03:47.848Z</time>
      </trkpt>
      <trkpt lat="43.62312" lon="1.21642">
        <ele>208.869085</ele>
        <time>2026-04-17T12:04:00.854Z</time>
      </trkpt>
      <trkpt lat="43.62305" lon="1.21637">
        <ele>209.075318</ele>
        <time>2026-04-17T12:04:03.741Z</time>
      </trkpt>
      <trkpt lat="43.62176" lon="1.21531">
        <ele>210.28292</ele>
        <time>2026-04-17T12:04:51.985Z</time>
      </trkpt>
      <trkpt lat="43.62083" lon="1.21458">
        <ele>210.401314</ele>
        <time>2026-04-17T12:05:26.403Z</time>
      </trkpt>
      <trkpt lat="43.62053" lon="1.21431">
        <ele>210.405444</ele>
        <time>2026-04-17T12:05:38.927Z</time>
      </trkpt>
      <trkpt lat="43.62043" lon="1.2143">
        <ele>210.406588</ele>
        <time>2026-04-17T12:05:42.359Z</time>
      </trkpt>
      <trkpt lat="43.62031" lon="1.21434">
        <ele>210.407932</ele>
        <time>2026-04-17T12:05:46.237Z</time>
      </trkpt>
      <trkpt lat="43.62048" lon="1.21395">
        <ele>210.411646</ele>
        <time>2026-04-17T12:05:57.014Z</time>
      </trkpt>
      <trkpt lat="43.6203" lon="1.21381">
        <ele>210.413987</ele>
        <time>2026-04-17T12:06:03.606Z</time>
      </trkpt>
      <trkpt lat="43.61769" lon="1.21162">
        <ele>208.219945</ele>
        <time>2026-04-17T12:07:32.270Z</time>
      </trkpt>
      <trkpt lat="43.61701" lon="1.21108">
        <ele>207.935223</ele>
        <time>2026-04-17T12:07:57.471Z</time>
      </trkpt>
      <trkpt lat="43.61739" lon="1.21027">
        <ele>209.044683</ele>
        <time>2026-04-17T12:08:23.529Z</time>
      </trkpt>
      <trkpt lat="43.61753" lon="1.20987">
        <ele>209.621464</ele>
        <time>2026-04-17T12:08:36.624Z</time>
      </trkpt>
      <trkpt lat="43.61807" lon="1.2087">
        <ele>211.917561</ele>
        <time>2026-04-17T12:09:18.225Z</time>
      </trkpt>
      <trkpt lat="43.61825" lon="1.2082">
        <ele>213.9043</ele>
        <time>2026-04-17T12:09:36.724Z</time>
      </trkpt>
      <trkpt lat="43.61859" lon="1.20744">
        <ele>217.037889</ele>
        <time>2026-04-17T12:10:10.993Z</time>
      </trkpt>
      <trkpt lat="43.61844" lon="1.20732">
        <ele>217.843999</ele>
        <time>2026-04-17T12:10:21.195Z</time>
      </trkpt>
      <trkpt lat="43.61744" lon="1.20649">
        <ele>223.375081</ele>
        <time>2026-04-17T12:11:41.293Z</time>
      </trkpt>
      <trkpt lat="43.61704" lon="1.20616">
        <ele>225.52354</ele>
        <time>2026-04-17T12:12:09.119Z</time>
      </trkpt>
      <trkpt lat="43.61674" lon="1.20591">
        <ele>227.111142</ele>
        <time>2026-04-17T12:12:25.385Z</time>
      </trkpt>
      <trkpt lat="43.61644" lon="1.20566">
        <ele>227.528926</ele>
        <time>2026-04-17T12:12:38.321Z</time>
      </trkpt>
      <trkpt lat="43.61633" lon="1.20557">
        <ele>226.914823</ele>
        <time>2026-04-17T12:12:41.995Z</time>
      </trkpt>
      <trkpt lat="43.6155" lon="1.20489">
        <ele>222.036774</ele>
        <time>2026-04-17T12:13:06.312Z</time>
      </trkpt>
      <trkpt lat="43.61474" lon="1.20427">
        <ele>218.116887</ele>
        <time>2026-04-17T12:13:27.333Z</time>
      </trkpt>
      <trkpt lat="43.61423" lon="1.20382">
        <ele>216.164897</ele>
        <time>2026-04-17T12:13:42.605Z</time>
      </trkpt>
      <trkpt lat="43.61406" lon="1.20378">
        <ele>215.600291</ele>
        <time>2026-04-17T12:13:47.501Z</time>
      </trkpt>
      <trkpt lat="43.6139" lon="1.20365">
        <ele>215.008453</ele>
        <time>2026-04-17T12:13:53.207Z</time>
      </trkpt>
      <trkpt lat="43.61317" lon="1.20308">
        <ele>214.150469</ele>
        <time>2026-04-17T12:14:25.745Z</time>
      </trkpt>
      <trkpt lat="43.6131" lon="1.20302">
        <ele>214.388418</ele>
        <time>2026-04-17T12:14:29.488Z</time>
      </trkpt>
      <trkpt lat="43.61294" lon="1.20289">
        <ele>214.933071</ele>
        <time>2026-04-17T12:14:38.407Z</time>
      </trkpt>
      <trkpt lat="43.61301" lon="1.20281">
        <ele>215.217261</ele>
        <time>2026-04-17T12:14:42.861Z</time>
      </trkpt>
      <trkpt lat="43.61305" lon="1.20267">
        <ele>215.518778</ele>
        <time>2026-04-17T12:14:47.740Z</time>
      </trkpt>
      <trkpt lat="43.61332" lon="1.20235">
        <ele>216.546777</ele>
        <time>2026-04-17T12:15:04.615Z</time>
      </trkpt>
      <trkpt lat="43.61354" lon="1.2018">
        <ele>217.882386</ele>
        <time>2026-04-17T12:15:26.953Z</time>
      </trkpt>
      <trkpt lat="43.61353" lon="1.20161">
        <ele>218.286352</ele>
        <time>2026-04-17T12:15:33.424Z</time>
      </trkpt>
      <trkpt lat="43.61335" lon="1.20123">
        <ele>219.281417</ele>
        <time>2026-04-17T12:15:49.068Z</time>
      </trkpt>
      <trkpt lat="43.61328" lon="1.20088">
        <ele>220.078831</ele>
        <time>2026-04-17T12:16:02.348Z</time>
      </trkpt>
      <trkpt lat="43.61326" lon="1.20044">
        <ele>221.031009</ele>
        <time>2026-04-17T12:16:17.641Z</time>
      </trkpt>
      <trkpt lat="43.61332" lon="1.19969">
        <ele>222.698873</ele>
        <time>2026-04-17T12:16:41.555Z</time>
      </trkpt>
      <trkpt lat="43.61329" lon="1.19954">
        <ele>223.045402</ele>
        <time>2026-04-17T12:16:46.445Z</time>
      </trkpt>
      <trkpt lat="43.61333" lon="1.19938">
        <ele>223.401501</ele>
        <time>2026-04-17T12:16:51.618Z</time>
      </trkpt>
      <trkpt lat="43.61361" lon="1.19917">
        <ele>224.244537</ele>
        <time>2026-04-17T12:17:05.130Z</time>
      </trkpt>
      <trkpt lat="43.6139" lon="1.19881">
        <ele>225.052954</ele>
        <time>2026-04-17T12:17:20.742Z</time>
      </trkpt>
      <trkpt lat="43.61394" lon="1.19872">
        <ele>225.19811</ele>
        <time>2026-04-17T12:17:23.296Z</time>
      </trkpt>
      <trkpt lat="43.61384" lon="1.19864">
        <ele>225.423929</ele>
        <time>2026-04-17T12:17:27.097Z</time>
      </trkpt>
      <trkpt lat="43.61397" lon="1.19835">
        <ele>225.933007</ele>
        <time>2026-04-17T12:17:35.422Z</time>
      </trkpt>
      <trkpt lat="43.61437" lon="1.19744">
        <ele>227.509728</ele>
        <time>2026-04-17T12:18:03.593Z</time>
      </trkpt>
      <trkpt lat="43.6143" lon="1.1972">
        <ele>227.908376</ele>
        <time>2026-04-17T12:18:12.109Z</time>
      </trkpt>
      <trkpt lat="43.61425" lon="1.19711">
        <ele>228.090595</ele>
        <time>2026-04-17T12:18:15.716Z</time>
      </trkpt>
      <trkpt lat="43.61405" lon="1.19695">
        <ele>228.582794</ele>
        <time>2026-04-17T12:18:25.145Z</time>
      </trkpt>
      <trkpt lat="43.61388" lon="1.19692">
        <ele>228.952608</ele>
        <time>2026-04-17T12:18:32.382Z</time>
      </trkpt>
      <trkpt lat="43.61376" lon="1.19673">
        <ele>229.349119</ele>
        <time>2026-04-17T12:18:40.287Z</time>
      </trkpt>
      <trkpt lat="43.61362" lon="1.19643">
        <ele>229.90868</ele>
        <time>2026-04-17T12:18:51.886Z</time>
      </trkpt>
      <trkpt lat="43.61335" lon="1.19603">
        <ele>230.778106</ele>
        <time>2026-04-17T12:19:09.907Z</time>
      </trkpt>
      <trkpt lat="43.6133" lon="1.19583">
        <ele>231.111676</ele>
        <time>2026-04-17T12:19:16.442Z</time>
      </trkpt>
      <trkpt lat="43.61341" lon="1.19554">
        <ele>231.606329</ele>
        <time>2026-04-17T12:19:25.535Z</time>
      </trkpt>
      <trkpt lat="43.61341" lon="1.19546">
        <ele>231.715652</ele>
        <time>2026-04-17T12:19:28.050Z</time>
      </trkpt>
      <trkpt lat="43.61328" lon="1.19495">
        <ele>232.398553</ele>
        <time>2026-04-17T12:19:43.871Z</time>
      </trkpt>
      <trkpt lat="43.61322" lon="1.19485">
        <ele>232.571396</ele>
        <time>2026-04-17T12:19:47.963Z</time>
      </trkpt>
      <trkpt lat="43.61307" lon="1.19477">
        <ele>232.843892</ele>
        <time>2026-04-17T12:19:54.390Z</time>
      </trkpt>
      <trkpt lat="43.6128" lon="1.19485">
        <ele>233.321295</ele>
        <time>2026-04-17T12:20:05.509Z</time>
      </trkpt>
      <trkpt lat="43.61263" lon="1.19483">
        <ele>233.623841</ele>
        <time>2026-04-17T12:20:12.524Z</time>
      </trkpt>
      <trkpt lat="43.61247" lon="1.19486">
        <ele>233.91788</ele>
        <time>2026-04-17T12:20:19.169Z</time>
      </trkpt>
      <trkpt lat="43.61226" lon="1.19485">
        <ele>234.28247</ele>
        <time>2026-04-17T12:20:27.115Z</time>
      </trkpt>
      <trkpt lat="43.61211" lon="1.19472">
        <ele>234.597638</ele>
        <time>2026-04-17T12:20:33.749Z</time>
      </trkpt>
      <trkpt lat="43.61212" lon="1.19437">
        <ele>234.836706</ele>
        <time>2026-04-17T12:20:42.793Z</time>
      </trkpt>
      <trkpt lat="43.61203" lon="1.19401">
        <ele>235.015471</ele>
        <time>2026-04-17T12:20:52.937Z</time>
      </trkpt>
      <trkpt lat="43.61176" lon="1.19358">
        <ele>235.284387</ele>
        <time>2026-04-17T12:21:07.934Z</time>
      </trkpt>
      <trkpt lat="43.60984" lon="1.19457">
        <ele>236.15237</ele>
        <time>2026-04-17T12:22:15.058Z</time>
      </trkpt>
      <trkpt lat="43.60917" lon="1.19339">
        <ele>236.355529</ele>
        <time>2026-04-17T12:22:51.387Z</time>
      </trkpt>
      <trkpt lat="43.60916" lon="1.19336">
        <ele>236.357843</ele>
        <time>2026-04-17T12:22:52.155Z</time>
      </trkpt>
      <trkpt lat="43.60848" lon="1.19214">
        <ele>236.465008</ele>
        <time>2026-04-17T12:23:27.000Z</time>
      </trkpt>
      <trkpt lat="43.60803" lon="1.1914">
        <ele>237.010862</ele>
        <time>2026-04-17T12:23:50.061Z</time>
      </trkpt>
      <trkpt lat="43.60784" lon="1.19125">
        <ele>237.270656</ele>
        <time>2026-04-17T12:23:58.461Z</time>
      </trkpt>
      <trkpt lat="43.60778" lon="1.19121">
        <ele>237.339448</ele>
        <time>2026-04-17T12:24:00.729Z</time>
      </trkpt>
      <trkpt lat="43.6076" lon="1.19088">
        <ele>237.686905</ele>
        <time>2026-04-17T12:24:12.570Z</time>
      </trkpt>
      <trkpt lat="43.60744" lon="1.19068">
        <ele>237.937191</ele>
        <time>2026-04-17T12:24:21.440Z</time>
      </trkpt>
      <trkpt lat="43.6074" lon="1.19056">
        <ele>238.042215</ele>
        <time>2026-04-17T12:24:24.735Z</time>
      </trkpt>
      <trkpt lat="43.60712" lon="1.19033">
        <ele>238.41587</ele>
        <time>2026-04-17T12:24:37.369Z</time>
      </trkpt>
      <trkpt lat="43.60705" lon="1.19026">
        <ele>238.515357</ele>
        <time>2026-04-17T12:24:40.958Z</time>
      </trkpt>
      <trkpt lat="43.60698" lon="1.19014">
        <ele>238.615577</ele>
        <time>2026-04-17T12:24:45.301Z</time>
      </trkpt>
      <trkpt lat="43.60698" lon="1.19007">
        <ele>238.648578</ele>
        <time>2026-04-17T12:24:47.156Z</time>
      </trkpt>
      <trkpt lat="43.60692" lon="1.18999">
        <ele>238.712128</ele>
        <time>2026-04-17T12:24:50.669Z</time>
      </trkpt>
      <trkpt lat="43.60677" lon="1.18988">
        <ele>238.834272</ele>
        <time>2026-04-17T12:24:57.504Z</time>
      </trkpt>
      <trkpt lat="43.60664" lon="1.18965">
        <ele>238.983405</ele>
        <time>2026-04-17T12:25:05.642Z</time>
      </trkpt>
      <trkpt lat="43.60664" lon="1.18965">
        <ele>238.983405</ele>
        <time>2026-04-17T12:25:05.662Z</time>
      </trkpt>
      <trkpt lat="43.60592" lon="1.18904">
        <ele>239.584169</ele>
        <time>2026-04-17T12:25:23.707Z</time>
      </trkpt>
      <trkpt lat="43.6052" lon="1.18843">
        <ele>240.461687</ele>
        <time>2026-04-17T12:25:41.743Z</time>
      </trkpt>
      <trkpt lat="43.60448" lon="1.18782">
        <ele>241.558059</ele>
        <time>2026-04-17T12:25:59.807Z</time>
      </trkpt>
      <trkpt lat="43.60376" lon="1.18721">
        <ele>242.755868</ele>
        <time>2026-04-17T12:26:17.846Z</time>
      </trkpt>
      <trkpt lat="43.60304" lon="1.1866">
        <ele>244.091152</ele>
        <time>2026-04-17T12:26:35.892Z</time>
      </trkpt>
      <trkpt lat="43.60232" lon="1.18599">
        <ele>245.679875</ele>
        <time>2026-04-17T12:26:53.957Z</time>
      </trkpt>
      <trkpt lat="43.6016" lon="1.18538">
        <ele>247.857837</ele>
        <time>2026-04-17T12:27:11.998Z</time>
      </trkpt>
      <trkpt lat="43.60089" lon="1.18477">
        <ele>249.65693</ele>
        <time>2026-04-17T12:27:30.052Z</time>
      </trkpt>
      <trkpt lat="43.60017" lon="1.18416">
        <ele>249.559834</ele>
        <time>2026-04-17T12:27:48.105Z</time>
      </trkpt>
      <trkpt lat="43.59994" lon="1.18465">
        <ele>249.511583</ele>
        <time>2026-04-17T12:28:00.993Z</time>
      </trkpt>
      <trkpt lat="43.59908" lon="1.18666">
        <ele>244.732106</ele>
        <time>2026-04-17T12:28:45.593Z</time>
      </trkpt>
      <trkpt lat="43.59877" lon="1.18642">
        <ele>243.404643</ele>
        <time>2026-04-17T12:28:50.991Z</time>
      </trkpt>
      <trkpt lat="43.59856" lon="1.18626">
        <ele>242.716229</ele>
        <time>2026-04-17T12:28:54.648Z</time>
      </trkpt>
      <trkpt lat="43.59702" lon="1.18496">
        <ele>239.503281</ele>
        <time>2026-04-17T12:29:24.929Z</time>
      </trkpt>
      <trkpt lat="43.597" lon="1.18484">
        <ele>239.344919</ele>
        <time>2026-04-17T12:29:27.460Z</time>
      </trkpt>
      <trkpt lat="43.59705" lon="1.18434">
        <ele>238.658109</ele>
        <time>2026-04-17T12:29:38.665Z</time>
      </trkpt>
      <trkpt lat="43.59692" lon="1.18424">
        <ele>238.391033</ele>
        <time>2026-04-17T12:29:43.008Z</time>
      </trkpt>
      <trkpt lat="43.59688" lon="1.18425">
        <ele>238.301572</ele>
        <time>2026-04-17T12:29:44.469Z</time>
      </trkpt>
      <trkpt lat="43.59586" lon="1.18474">
        <ele>236.229282</ele>
        <time>2026-04-17T12:30:16.097Z</time>
      </trkpt>
      <trkpt lat="43.59529" lon="1.18529">
        <ele>232.565386</ele>
        <time>2026-04-17T12:30:35.539Z</time>
      </trkpt>
      <trkpt lat="43.59501" lon="1.18547">
        <ele>230.977932</ele>
        <time>2026-04-17T12:30:43.337Z</time>
      </trkpt>
      <trkpt lat="43.59487" lon="1.18551">
        <ele>230.235754</ele>
        <time>2026-04-17T12:30:46.884Z</time>
      </trkpt>
      <trkpt lat="43.59466" lon="1.18556">
        <ele>229.119622</ele>
        <time>2026-04-17T12:30:52.144Z</time>
      </trkpt>
      <trkpt lat="43.59459" lon="1.1854">
        <ele>228.43821</ele>
        <time>2026-04-17T12:30:53.580Z</time>
      </trkpt>
      <trkpt lat="43.59383" lon="1.1857">
        <ele>223.187158</ele>
        <time>2026-04-17T12:31:02.066Z</time>
      </trkpt>
      <trkpt lat="43.59356" lon="1.18578">
        <ele>221.116593</ele>
        <time>2026-04-17T12:31:05.055Z</time>
      </trkpt>
      <trkpt lat="43.59351" lon="1.18579">
        <ele>220.774543</ele>
        <time>2026-04-17T12:31:05.544Z</time>
      </trkpt>
      <trkpt lat="43.59346" lon="1.18582">
        <ele>220.385291</ele>
        <time>2026-04-17T12:31:06.110Z</time>
      </trkpt>
      <trkpt lat="43.59327" lon="1.18601">
        <ele>218.641696</ele>
        <time>2026-04-17T12:31:08.624Z</time>
      </trkpt>
      <trkpt lat="43.59313" lon="1.18613">
        <ele>217.398042</ele>
        <time>2026-04-17T12:31:10.453Z</time>
      </trkpt>
      <trkpt lat="43.59284" lon="1.18628">
        <ele>215.068786</ele>
        <time>2026-04-17T12:31:13.933Z</time>
      </trkpt>
      <trkpt lat="43.59169" lon="1.18653">
        <ele>211.051189</ele>
        <time>2026-04-17T12:31:44.675Z</time>
      </trkpt>
      <trkpt lat="43.59128" lon="1.18646">
        <ele>209.933338</ele>
        <time>2026-04-17T12:31:57.415Z</time>
      </trkpt>
      <trkpt lat="43.58982" lon="1.18603">
        <ele>209.009567</ele>
        <time>2026-04-17T12:32:48.374Z</time>
      </trkpt>
      <trkpt lat="43.58894" lon="1.18588">
        <ele>209.315752</ele>
        <time>2026-04-17T12:33:19.567Z</time>
      </trkpt>
      <trkpt lat="43.58752" lon="1.18549">
        <ele>210.841384</ele>
        <time>2026-04-17T12:34:14.356Z</time>
      </trkpt>
      <trkpt lat="43.58773" lon="1.18461">
        <ele>211.718735</ele>
        <time>2026-04-17T12:34:32.439Z</time>
      </trkpt>
      <trkpt lat="43.58799" lon="1.18365">
        <ele>212.758991</ele>
        <time>2026-04-17T12:34:51.254Z</time>
      </trkpt>
      <trkpt lat="43.58816" lon="1.18313">
        <ele>213.340838</ele>
        <time>2026-04-17T12:34:59.811Z</time>
      </trkpt>
      <trkpt lat="43.58818" lon="1.18305">
        <ele>213.42943</ele>
        <time>2026-04-17T12:35:01.029Z</time>
      </trkpt>
      <trkpt lat="43.58845" lon="1.18232">
        <ele>214.008643</ele>
        <time>2026-04-17T12:35:11.639Z</time>
      </trkpt>
      <trkpt lat="43.5886" lon="1.18191">
        <ele>214.309867</ele>
        <time>2026-04-17T12:35:17.810Z</time>
      </trkpt>
      <trkpt lat="43.58891" lon="1.18105">
        <ele>214.931179</ele>
        <time>2026-04-17T12:35:33.559Z</time>
      </trkpt>
      <trkpt lat="43.58902" lon="1.18083">
        <ele>215.106637</ele>
        <time>2026-04-17T12:35:38.288Z</time>
      </trkpt>
      <trkpt lat="43.58873" lon="1.18081">
        <ele>215.359014</ele>
        <time>2026-04-17T12:35:45.377Z</time>
      </trkpt>
      <trkpt lat="43.58852" lon="1.18079">
        <ele>215.542295</ele>
        <time>2026-04-17T12:35:50.469Z</time>
      </trkpt>
      <trkpt lat="43.58847" lon="1.18079">
        <ele>215.590055</ele>
        <time>2026-04-17T12:35:51.792Z</time>
      </trkpt>
      <trkpt lat="43.58819" lon="1.18076">
        <ele>215.835884</ele>
        <time>2026-04-17T12:35:58.395Z</time>
      </trkpt>
      <trkpt lat="43.58789" lon="1.18073">
        <ele>216.093612</ele>
        <time>2026-04-17T12:36:04.939Z</time>
      </trkpt>
      <trkpt lat="43.58761" lon="1.18069">
        <ele>216.339945</ele>
        <time>2026-04-17T12:36:10.599Z</time>
      </trkpt>
      <trkpt lat="43.5875" lon="1.18067">
        <ele>216.429037</ele>
        <time>2026-04-17T12:36:12.471Z</time>
      </trkpt>
      <trkpt lat="43.58727" lon="1.18064">
        <ele>216.635072</ele>
        <time>2026-04-17T12:36:16.782Z</time>
      </trkpt>
      <trkpt lat="43.58723" lon="1.18063">
        <ele>216.669176</ele>
        <time>2026-04-17T12:36:17.464Z</time>
      </trkpt>
      <trkpt lat="43.58683" lon="1.18056">
        <ele>216.476395</ele>
        <time>2026-04-17T12:36:24.095Z</time>
      </trkpt>
      <trkpt lat="43.58657" lon="1.1805">
        <ele>216.262943</ele>
        <time>2026-04-17T12:36:28.259Z</time>
      </trkpt>
      <trkpt lat="43.58627" lon="1.18041">
        <ele>216.012235</ele>
        <time>2026-04-17T12:36:33.043Z</time>
      </trkpt>
      <trkpt lat="43.58597" lon="1.18029">
        <ele>215.758171</ele>
        <time>2026-04-17T12:36:37.671Z</time>
      </trkpt>
      <trkpt lat="43.58583" lon="1.18024">
        <ele>215.6426</ele>
        <time>2026-04-17T12:36:39.664Z</time>
      </trkpt>
      <trkpt lat="43.585" lon="1.17992">
        <ele>215.412263</ele>
        <time>2026-04-17T12:36:51.886Z</time>
      </trkpt>
      <trkpt lat="43.58469" lon="1.17981">
        <ele>215.509819</ele>
        <time>2026-04-17T12:36:56.781Z</time>
      </trkpt>
      <trkpt lat="43.58421" lon="1.17963">
        <ele>215.665975</ele>
        <time>2026-04-17T12:37:06.044Z</time>
      </trkpt>
      <trkpt lat="43.58279" lon="1.17917">
        <ele>218.271775</ele>
        <time>2026-04-17T12:37:45.427Z</time>
      </trkpt>
      <trkpt lat="43.58268" lon="1.17914">
        <ele>218.584558</ele>
        <time>2026-04-17T12:37:49.002Z</time>
      </trkpt>
      <trkpt lat="43.5822" lon="1.17898">
        <ele>219.900196</ele>
        <time>2026-04-17T12:38:04.385Z</time>
      </trkpt>
      <trkpt lat="43.58204" lon="1.17898">
        <ele>220.346273</ele>
        <time>2026-04-17T12:38:09.645Z</time>
      </trkpt>
      <trkpt lat="43.58205" lon="1.17888">
        <ele>220.542015</ele>
        <time>2026-04-17T12:38:13.005Z</time>
      </trkpt>
      <trkpt lat="43.582" lon="1.17878">
        <ele>220.790113</ele>
        <time>2026-04-17T12:38:17.074Z</time>
      </trkpt>
      <trkpt lat="43.58151" lon="1.17836">
        <ele>222.789047</ele>
        <time>2026-04-17T12:38:44.452Z</time>
      </trkpt>
      <trkpt lat="43.5815" lon="1.17818">
        <ele>223.232466</ele>
        <time>2026-04-17T12:38:50.725Z</time>
      </trkpt>
      <trkpt lat="43.5816" lon="1.17768">
        <ele>224.528313</ele>
        <time>2026-04-17T12:39:09.171Z</time>
      </trkpt>
      <trkpt lat="43.58166" lon="1.17721">
        <ele>225.70021</ele>
        <time>2026-04-17T12:39:25.232Z</time>
      </trkpt>
      <trkpt lat="43.58171" lon="1.17698">
        <ele>226.300411</ele>
        <time>2026-04-17T12:39:33.358Z</time>
      </trkpt>
      <trkpt lat="43.58195" lon="1.17628">
        <ele>228.302095</ele>
        <time>2026-04-17T12:39:59.143Z</time>
      </trkpt>
      <trkpt lat="43.58213" lon="1.1755">
        <ele>230.479751</ele>
        <time>2026-04-17T12:40:27.414Z</time>
      </trkpt>
      <trkpt lat="43.58243" lon="1.17443">
        <ele>233.522711</ele>
        <time>2026-04-17T12:41:08.151Z</time>
      </trkpt>
      <trkpt lat="43.58258" lon="1.17405">
        <ele>235.279402</ele>
        <time>2026-04-17T12:41:24.072Z</time>
      </trkpt>
      <trkpt lat="43.58275" lon="1.17386">
        <ele>236.537858</ele>
        <time>2026-04-17T12:41:35.565Z</time>
      </trkpt>
      <trkpt lat="43.58281" lon="1.17372">
        <ele>237.154408</ele>
        <time>2026-04-17T12:41:41.352Z</time>
      </trkpt>
      <trkpt lat="43.58283" lon="1.17352">
        <ele>237.995974</ele>
        <time>2026-04-17T12:41:49.420Z</time>
      </trkpt>
      <trkpt lat="43.58282" lon="1.17325">
        <ele>239.100393</ele>
        <time>2026-04-17T12:42:00.444Z</time>
      </trkpt>
      <trkpt lat="43.58288" lon="1.17276">
        <ele>241.123493</ele>
        <time>2026-04-17T12:42:21.777Z</time>
      </trkpt>
      <trkpt lat="43.58295" lon="1.17245">
        <ele>242.446623</ele>
        <time>2026-04-17T12:42:36.417Z</time>
      </trkpt>
      <trkpt lat="43.58306" lon="1.17208">
        <ele>244.390761</ele>
        <time>2026-04-17T12:42:54.889Z</time>
      </trkpt>
      <trkpt lat="43.58316" lon="1.17151">
        <ele>248.403001</ele>
        <time>2026-04-17T12:43:24.030Z</time>
      </trkpt>
      <trkpt lat="43.58321" lon="1.17084">
        <ele>253.066969</ele>
        <time>2026-04-17T12:44:01.046Z</time>
      </trkpt>
      <trkpt lat="43.58316" lon="1.17083">
        <ele>253.570301</ele>
        <time>2026-04-17T12:44:05.259Z</time>
      </trkpt>
      <trkpt lat="43.58309" lon="1.17076">
        <ele>254.380452</ele>
        <time>2026-04-17T12:44:12.051Z</time>
      </trkpt>
      <trkpt lat="43.58247" lon="1.16892">
        <ele>267.569763</ele>
        <time>2026-04-17T12:46:10.913Z</time>
      </trkpt>
      <trkpt lat="43.58237" lon="1.16854">
        <ele>270.11446</ele>
        <time>2026-04-17T12:46:32.788Z</time>
      </trkpt>
      <trkpt lat="43.5823" lon="1.16793">
        <ele>273.93509</ele>
        <time>2026-04-17T12:47:02.812Z</time>
      </trkpt>
      <trkpt lat="43.58159" lon="1.16441">
        <ele>282.669139</ele>
        <time>2026-04-17T12:49:11.189Z</time>
      </trkpt>
      <trkpt lat="43.58135" lon="1.1632">
        <ele>282.033009</ele>
        <time>2026-04-17T12:49:36.236Z</time>
      </trkpt>
      <trkpt lat="43.58125" lon="1.16304">
        <ele>281.928658</ele>
        <time>2026-04-17T12:49:39.899Z</time>
      </trkpt>
      <trkpt lat="43.58101" lon="1.16292">
        <ele>281.162281</ele>
        <time>2026-04-17T12:49:45.974Z</time>
      </trkpt>
      <trkpt lat="43.58087" lon="1.16276">
        <ele>280.179748</ele>
        <time>2026-04-17T12:49:50.296Z</time>
      </trkpt>
      <trkpt lat="43.58073" lon="1.16254">
        <ele>279.037851</ele>
        <time>2026-04-17T12:49:55.285Z</time>
      </trkpt>
      <trkpt lat="43.58061" lon="1.16245">
        <ele>278.297047</ele>
        <time>2026-04-17T12:49:58.519Z</time>
      </trkpt>
      <trkpt lat="43.58054" lon="1.16245">
        <ele>277.957556</ele>
        <time>2026-04-17T12:49:59.966Z</time>
      </trkpt>
      <trkpt lat="43.58059" lon="1.16287">
        <ele>276.274935</ele>
        <time>2026-04-17T12:50:04.152Z</time>
      </trkpt>
      <trkpt lat="43.5806" lon="1.16313">
        <ele>275.264259</ele>
        <time>2026-04-17T12:50:06.678Z</time>
      </trkpt>
      <trkpt lat="43.58047" lon="1.16414">
        <ele>271.178001</ele>
        <time>2026-04-17T12:50:17.001Z</time>
      </trkpt>
      <trkpt lat="43.5802" lon="1.166">
        <ele>263.003725</ele>
        <time>2026-04-17T12:50:35.668Z</time>
      </trkpt>
      <trkpt lat="43.58001" lon="1.16714">
        <ele>257.068001</ele>
        <time>2026-04-17T12:50:46.683Z</time>
      </trkpt>
      <trkpt lat="43.57976" lon="1.16834">
        <ele>250.273796</ele>
        <time>2026-04-17T12:50:58.427Z</time>
      </trkpt>
      <trkpt lat="43.57961" lon="1.16886">
        <ele>247.23336</ele>
        <time>2026-04-17T12:51:03.680Z</time>
      </trkpt>
      <trkpt lat="43.57933" lon="1.16956">
        <ele>242.862532</ele>
        <time>2026-04-17T12:51:11.142Z</time>
      </trkpt>
      <trkpt lat="43.57921" lon="1.17112">
        <ele>234.325822</ele>
        <time>2026-04-17T12:51:25.884Z</time>
      </trkpt>
      <trkpt lat="43.57907" lon="1.17246">
        <ele>228.993582</ele>
        <time>2026-04-17T12:51:36.934Z</time>
      </trkpt>
      <trkpt lat="43.57889" lon="1.17337">
        <ele>225.265703</ele>
        <time>2026-04-17T12:51:45.102Z</time>
      </trkpt>
      <trkpt lat="43.57868" lon="1.17428">
        <ele>222.854039</ele>
        <time>2026-04-17T12:51:53.596Z</time>
      </trkpt>
      <trkpt lat="43.57857" lon="1.17492">
        <ele>221.379986</ele>
        <time>2026-04-17T12:51:59.617Z</time>
      </trkpt>
      <trkpt lat="43.57823" lon="1.17676">
        <ele>217.681939</ele>
        <time>2026-04-17T12:52:17.637Z</time>
      </trkpt>
      <trkpt lat="43.57812" lon="1.17739">
        <ele>216.67086</ele>
        <time>2026-04-17T12:52:23.831Z</time>
      </trkpt>
      <trkpt lat="43.57782" lon="1.17811">
        <ele>215.353544</ele>
        <time>2026-04-17T12:52:32.166Z</time>
      </trkpt>
      <trkpt lat="43.57777" lon="1.17841">
        <ele>215.012282</ele>
        <time>2026-04-17T12:52:35.305Z</time>
      </trkpt>
      <trkpt lat="43.57768" lon="1.17915">
        <ele>214.43989</ele>
        <time>2026-04-17T12:52:43.083Z</time>
      </trkpt>
      <trkpt lat="43.57767" lon="1.17943">
        <ele>214.22844</ele>
        <time>2026-04-17T12:52:46.019Z</time>
      </trkpt>
      <trkpt lat="43.57777" lon="1.18021">
        <ele>213.620988</ele>
        <time>2026-04-17T12:52:54.732Z</time>
      </trkpt>
      <trkpt lat="43.57768" lon="1.18022">
        <ele>213.520182</ele>
        <time>2026-04-17T12:52:56.205Z</time>
      </trkpt>
      <trkpt lat="43.57754" lon="1.18025">
        <ele>213.378644</ele>
        <time>2026-04-17T12:52:58.283Z</time>
      </trkpt>
      <trkpt lat="43.57732" lon="1.18029">
        <ele>213.180556</ele>
        <time>2026-04-17T12:53:01.778Z</time>
      </trkpt>
      <trkpt lat="43.57638" lon="1.1805">
        <ele>212.552972</ele>
        <time>2026-04-17T12:53:17.184Z</time>
      </trkpt>
      <trkpt lat="43.57581" lon="1.18047">
        <ele>212.172047</ele>
        <time>2026-04-17T12:53:26.142Z</time>
      </trkpt>
      <trkpt lat="43.57567" lon="1.18051">
        <ele>212.080467</ele>
        <time>2026-04-17T12:53:28.213Z</time>
      </trkpt>
      <trkpt lat="43.5756" lon="1.18059">
        <ele>211.962025</ele>
        <time>2026-04-17T12:53:29.601Z</time>
      </trkpt>
      <trkpt lat="43.5752" lon="1.1812">
        <ele>211.021081</ele>
        <time>2026-04-17T12:53:37.906Z</time>
      </trkpt>
      <trkpt lat="43.57498" lon="1.18153">
        <ele>210.493181</ele>
        <time>2026-04-17T12:53:42.381Z</time>
      </trkpt>
      <trkpt lat="43.5748" lon="1.18185">
        <ele>210.037061</ele>
        <time>2026-04-17T12:53:46.205Z</time>
      </trkpt>
      <trkpt lat="43.57478" lon="1.18188">
        <ele>209.991411</ele>
        <time>2026-04-17T12:53:46.586Z</time>
      </trkpt>
      <trkpt lat="43.57462" lon="1.18218">
        <ele>209.556689</ele>
        <time>2026-04-17T12:53:50.327Z</time>
      </trkpt>
      <trkpt lat="43.57412" lon="1.18184">
        <ele>209.172387</ele>
        <time>2026-04-17T12:54:07.276Z</time>
      </trkpt>
      <trkpt lat="43.57267" lon="1.18058">
        <ele>209.064993</ele>
        <time>2026-04-17T12:55:07.434Z</time>
      </trkpt>
      <trkpt lat="43.57256" lon="1.18053">
        <ele>209.078951</ele>
        <time>2026-04-17T12:55:11.805Z</time>
      </trkpt>
      <trkpt lat="43.57214" lon="1.18049">
        <ele>209.132353</ele>
        <time>2026-04-17T12:55:27.895Z</time>
      </trkpt>
      <trkpt lat="43.57163" lon="1.18053">
        <ele>209.197176</ele>
        <time>2026-04-17T12:55:46.222Z</time>
      </trkpt>
      <trkpt lat="43.57084" lon="1.18069">
        <ele>208.8553</ele>
        <time>2026-04-17T12:56:10.061Z</time>
      </trkpt>
      <trkpt lat="43.57072" lon="1.18068">
        <ele>208.691975</ele>
        <time>2026-04-17T12:56:13.429Z</time>
      </trkpt>
      <trkpt lat="43.57043" lon="1.1806">
        <ele>208.287404</ele>
        <time>2026-04-17T12:56:21.579Z</time>
      </trkpt>
      <trkpt lat="43.56997" lon="1.18037">
        <ele>207.627994</ele>
        <time>2026-04-17T12:56:34.945Z</time>
      </trkpt>
      <trkpt lat="43.5696" lon="1.18026">
        <ele>207.119134</ele>
        <time>2026-04-17T12:56:45.464Z</time>
      </trkpt>
      <trkpt lat="43.56847" lon="1.17976">
        <ele>206.137577</ele>
        <time>2026-04-17T12:57:20.633Z</time>
      </trkpt>
      <trkpt lat="43.5655" lon="1.1785">
        <ele>204.775965</ele>
        <time>2026-04-17T12:58:39.488Z</time>
      </trkpt>
      <trkpt lat="43.56477" lon="1.17819">
        <ele>204.705868</ele>
        <time>2026-04-17T12:58:59.677Z</time>
      </trkpt>
      <trkpt lat="43.56271" lon="1.1773">
        <ele>204.677345</ele>
        <time>2026-04-17T12:59:57.621Z</time>
      </trkpt>
      <trkpt lat="43.56199" lon="1.1787">
        <ele>204.369829</ele>
        <time>2026-04-17T13:00:17.762Z</time>
      </trkpt>
      <trkpt lat="43.56156" lon="1.17919">
        <ele>204.203149</ele>
        <time>2026-04-17T13:00:26.816Z</time>
      </trkpt>
      <trkpt lat="43.56091" lon="1.18013">
        <ele>204.00917</ele>
        <time>2026-04-17T13:00:42.412Z</time>
      </trkpt>
      <trkpt lat="43.56025" lon="1.18076">
        <ele>203.864696</ele>
        <time>2026-04-17T13:00:55.743Z</time>
      </trkpt>
      <trkpt lat="43.56009" lon="1.18082">
        <ele>203.834009</ele>
        <time>2026-04-17T13:00:58.602Z</time>
      </trkpt>
      <trkpt lat="43.55991" lon="1.18083">
        <ele>203.798883</ele>
        <time>2026-04-17T13:01:01.663Z</time>
      </trkpt>
      <trkpt lat="43.55913" lon="1.18045">
        <ele>203.634723</ele>
        <time>2026-04-17T13:01:15.343Z</time>
      </trkpt>
      <trkpt lat="43.55905" lon="1.18041">
        <ele>203.616827</ele>
        <time>2026-04-17T13:01:16.829Z</time>
      </trkpt>
      <trkpt lat="43.55887" lon="1.18032">
        <ele>203.578969</ele>
        <time>2026-04-17T13:01:19.929Z</time>
      </trkpt>
      <trkpt lat="43.55844" lon="1.18027">
        <ele>203.491869</ele>
        <time>2026-04-17T13:01:27.024Z</time>
      </trkpt>
      <trkpt lat="43.5583" lon="1.18022">
        <ele>203.463286</ele>
        <time>2026-04-17T13:01:29.362Z</time>
      </trkpt>
      <trkpt lat="43.55764" lon="1.17995">
        <ele>203.507558</ele>
        <time>2026-04-17T13:01:40.913Z</time>
      </trkpt>
      <trkpt lat="43.55743" lon="1.17981">
        <ele>203.523525</ele>
        <time>2026-04-17T13:01:44.923Z</time>
      </trkpt>
      <trkpt lat="43.55734" lon="1.17968">
        <ele>203.532478</ele>
        <time>2026-04-17T13:01:47.144Z</time>
      </trkpt>
      <trkpt lat="43.55722" lon="1.17937">
        <ele>203.549813</ele>
        <time>2026-04-17T13:01:51.732Z</time>
      </trkpt>
      <trkpt lat="43.55712" lon="1.17856">
        <ele>203.559456</ele>
        <time>2026-04-17T13:02:02.993Z</time>
      </trkpt>
      <trkpt lat="43.557" lon="1.17844">
        <ele>203.513183</ele>
        <time>2026-04-17T13:02:05.752Z</time>
      </trkpt>
      <trkpt lat="43.55694" lon="1.17844">
        <ele>203.495956</ele>
        <time>2026-04-17T13:02:06.749Z</time>
      </trkpt>
      <trkpt lat="43.55703" lon="1.17814">
        <ele>203.424551</ele>
        <time>2026-04-17T13:02:10.890Z</time>
      </trkpt>
      <trkpt lat="43.55714" lon="1.17791">
        <ele>203.36354</ele>
        <time>2026-04-17T13:02:14.317Z</time>
      </trkpt>
      <trkpt lat="43.5571" lon="1.17788">
        <ele>203.347889</ele>
        <time>2026-04-17T13:02:15.303Z</time>
      </trkpt>
      <trkpt lat="43.55707" lon="1.17779">
        <ele>203.325744</ele>
        <time>2026-04-17T13:02:16.736Z</time>
      </trkpt>
      <trkpt lat="43.55686" lon="1.17821">
        <ele>203.212061</ele>
        <time>2026-04-17T13:02:23.841Z</time>
      </trkpt>
      <trkpt lat="43.55684" lon="1.17844">
        <ele>203.161096</ele>
        <time>2026-04-17T13:02:26.963Z</time>
      </trkpt>
      <trkpt lat="43.55682" lon="1.17851">
        <ele>203.143894</ele>
        <time>2026-04-17T13:02:28.021Z</time>
      </trkpt>
      <trkpt lat="43.55623" lon="1.17954">
        <ele>202.845742</ele>
        <time>2026-04-17T13:02:44.715Z</time>
      </trkpt>
      <trkpt lat="43.55615" lon="1.17953">
        <ele>202.819302</ele>
        <time>2026-04-17T13:02:46.158Z</time>
      </trkpt>
      <trkpt lat="43.55608" lon="1.17943">
        <ele>202.789445</ele>
        <time>2026-04-17T13:02:47.842Z</time>
      </trkpt>
      <trkpt lat="43.55539" lon="1.17887">
        <ele>202.532811</ele>
        <time>2026-04-17T13:03:03.192Z</time>
      </trkpt>
      <trkpt lat="43.55519" lon="1.17896">
        <ele>202.468317</ele>
        <time>2026-04-17T13:03:10.242Z</time>
      </trkpt>
      <trkpt lat="43.55392" lon="1.17869">
        <ele>203.739837</ele>
        <time>2026-04-17T13:03:58.221Z</time>
      </trkpt>
      <trkpt lat="43.55324" lon="1.17855">
        <ele>204.309672</ele>
        <time>2026-04-17T13:04:23.477Z</time>
      </trkpt>
      <trkpt lat="43.55312" lon="1.17857">
        <ele>204.357569</ele>
        <time>2026-04-17T13:04:27.645Z</time>
      </trkpt>
      <trkpt lat="43.55318" lon="1.17823">
        <ele>204.46158</ele>
        <time>2026-04-17T13:04:32.620Z</time>
      </trkpt>
      <trkpt lat="43.55319" lon="1.17801">
        <ele>204.525473</ele>
        <time>2026-04-17T13:04:35.559Z</time>
      </trkpt>
      <trkpt lat="43.55322" lon="1.17773">
        <ele>204.607053</ele>
        <time>2026-04-17T13:04:39.230Z</time>
      </trkpt>
      <trkpt lat="43.55326" lon="1.17757">
        <ele>204.656502</ele>
        <time>2026-04-17T13:04:41.414Z</time>
      </trkpt>
      <trkpt lat="43.55319" lon="1.17751">
        <ele>204.691578</ele>
        <time>2026-04-17T13:04:44.198Z</time>
      </trkpt>
      <trkpt lat="43.55314" lon="1.1774">
        <ele>204.727206</ele>
        <time>2026-04-17T13:04:47.060Z</time>
      </trkpt>
      <trkpt lat="43.55306" lon="1.17688">
        <ele>204.884863</ele>
        <time>2026-04-17T13:04:59.538Z</time>
      </trkpt>
      <trkpt lat="43.55288" lon="1.17341">
        <ele>205.598845</ele>
        <time>2026-04-17T13:06:21.966Z</time>
      </trkpt>
      <trkpt lat="43.55289" lon="1.17257">
        <ele>205.93432</ele>
        <time>2026-04-17T13:06:42.774Z</time>
      </trkpt>
      <trkpt lat="43.55299" lon="1.17155">
        <ele>206.406395</ele>
        <time>2026-04-17T13:07:09.013Z</time>
      </trkpt>
      <trkpt lat="43.55306" lon="1.17092">
        <ele>207.0003</ele>
        <time>2026-04-17T13:07:25.931Z</time>
      </trkpt>
      <trkpt lat="43.55318" lon="1.16962">
        <ele>208.219169</ele>
        <time>2026-04-17T13:08:01.811Z</time>
      </trkpt>
      <trkpt lat="43.55325" lon="1.16922">
        <ele>208.607337</ele>
        <time>2026-04-17T13:08:13.500Z</time>
      </trkpt>
      <trkpt lat="43.55326" lon="1.16901">
        <ele>208.888856</ele>
        <time>2026-04-17T13:08:19.386Z</time>
      </trkpt>
      <trkpt lat="43.55346" lon="1.16778">
        <ele>210.586089</ele>
        <time>2026-04-17T13:08:55.655Z</time>
      </trkpt>
      <trkpt lat="43.55352" lon="1.16752">
        <ele>210.945879</ele>
        <time>2026-04-17T13:09:03.431Z</time>
      </trkpt>
      <trkpt lat="43.55359" lon="1.16731">
        <ele>211.261941</ele>
        <time>2026-04-17T13:09:10.319Z</time>
      </trkpt>
      <trkpt lat="43.55377" lon="1.16699">
        <ele>211.805001</ele>
        <time>2026-04-17T13:09:22.268Z</time>
      </trkpt>
      <trkpt lat="43.5538" lon="1.16671">
        <ele>212.350991</ele>
        <time>2026-04-17T13:09:30.842Z</time>
      </trkpt>
      <trkpt lat="43.55386" lon="1.16638">
        <ele>213.110164</ele>
        <time>2026-04-17T13:09:41.198Z</time>
      </trkpt>
      <trkpt lat="43.55412" lon="1.16544">
        <ele>215.389926</ele>
        <time>2026-04-17T13:10:13.381Z</time>
      </trkpt>
      <trkpt lat="43.55413" lon="1.16532">
        <ele>215.65383</ele>
        <time>2026-04-17T13:10:17.324Z</time>
      </trkpt>
      <trkpt lat="43.55408" lon="1.16529">
        <ele>215.830302</ele>
        <time>2026-04-17T13:10:19.973Z</time>
      </trkpt>
      <trkpt lat="43.55405" lon="1.16518">
        <ele>216.096278</ele>
        <time>2026-04-17T13:10:24.017Z</time>
      </trkpt>
      <trkpt lat="43.55397" lon="1.16498">
        <ele>216.593908</ele>
        <time>2026-04-17T13:10:31.658Z</time>
      </trkpt>
      <trkpt lat="43.5539" lon="1.16491">
        <ele>216.874285</ele>
        <time>2026-04-17T13:10:36.071Z</time>
      </trkpt>
      <trkpt lat="43.55389" lon="1.1648">
        <ele>217.119005</ele>
        <time>2026-04-17T13:10:39.945Z</time>
      </trkpt>
      <trkpt lat="43.55427" lon="1.16342">
        <ele>222.843212</ele>
        <time>2026-04-17T13:11:38.335Z</time>
      </trkpt>
      <trkpt lat="43.55455" lon="1.1634">
        <ele>224.393522</ele>
        <time>2026-04-17T13:11:55.108Z</time>
      </trkpt>
      <trkpt lat="43.55469" lon="1.16335">
        <ele>225.230772</ele>
        <time>2026-04-17T13:12:04.265Z</time>
      </trkpt>
      <trkpt lat="43.55489" lon="1.16318">
        <ele>226.547603</ele>
        <time>2026-04-17T13:12:18.828Z</time>
      </trkpt>
      <trkpt lat="43.5552" lon="1.1628">
        <ele>228.799981</ele>
        <time>2026-04-17T13:12:44.839Z</time>
      </trkpt>
      <trkpt lat="43.55535" lon="1.16254">
        <ele>230.028108</ele>
        <time>2026-04-17T13:12:59.439Z</time>
      </trkpt>
      <trkpt lat="43.55566" lon="1.16215">
        <ele>232.157431</ele>
        <time>2026-04-17T13:13:23.573Z</time>
      </trkpt>
      <trkpt lat="43.55596" lon="1.16181">
        <ele>234.171823</ele>
        <time>2026-04-17T13:13:44.732Z</time>
      </trkpt>
      <trkpt lat="43.55667" lon="1.16083">
        <ele>238.859124</ele>
        <time>2026-04-17T13:14:32.219Z</time>
      </trkpt>
      <trkpt lat="43.55682" lon="1.16067">
        <ele>239.690004</ele>
        <time>2026-04-17T13:14:41.202Z</time>
      </trkpt>
      <trkpt lat="43.55695" lon="1.16049">
        <ele>240.457783</ele>
        <time>2026-04-17T13:14:49.639Z</time>
      </trkpt>
      <trkpt lat="43.5569" lon="1.15923">
        <ele>244.308678</ele>
        <time>2026-04-17T13:15:36.562Z</time>
      </trkpt>
      <trkpt lat="43.55695" lon="1.15911">
        <ele>244.900752</ele>
        <time>2026-04-17T13:15:42.524Z</time>
      </trkpt>
      <trkpt lat="43.55705" lon="1.15904">
        <ele>245.676293</ele>
        <time>2026-04-17T13:15:48.899Z</time>
      </trkpt>
      <trkpt lat="43.55706" lon="1.15896">
        <ele>246.104151</ele>
        <time>2026-04-17T13:15:52.481Z</time>
      </trkpt>
      <trkpt lat="43.55691" lon="1.15851">
        <ele>248.702886</ele>
        <time>2026-04-17T13:16:14.934Z</time>
      </trkpt>
      <trkpt lat="43.55676" lon="1.15825">
        <ele>250.413914</ele>
        <time>2026-04-17T13:16:30.254Z</time>
      </trkpt>
      <trkpt lat="43.55674" lon="1.15812">
        <ele>251.12385</ele>
        <time>2026-04-17T13:16:36.708Z</time>
      </trkpt>
      <trkpt lat="43.55677" lon="1.15793">
        <ele>252.155497</ele>
        <time>2026-04-17T13:16:46.203Z</time>
      </trkpt>
      <trkpt lat="43.55704" lon="1.15736">
        <ele>255.704842</ele>
        <time>2026-04-17T13:17:19.648Z</time>
      </trkpt>
      <trkpt lat="43.5572" lon="1.15718">
        <ele>257.183966</ele>
        <time>2026-04-17T13:17:33.989Z</time>
      </trkpt>
      <trkpt lat="43.55724" lon="1.1571">
        <ele>257.694395</ele>
        <time>2026-04-17T13:17:38.906Z</time>
      </trkpt>
      <trkpt lat="43.55724" lon="1.15691">
        <ele>258.689553</ele>
        <time>2026-04-17T13:17:48.523Z</time>
      </trkpt>
      <trkpt lat="43.55718" lon="1.15671">
        <ele>259.870603</ele>
        <time>2026-04-17T13:18:00.037Z</time>
      </trkpt>
      <trkpt lat="43.5571" lon="1.15662">
        <ele>260.605283</ele>
        <time>2026-04-17T13:18:07.183Z</time>
      </trkpt>
      <trkpt lat="43.55695" lon="1.15653">
        <ele>261.772795</ele>
        <time>2026-04-17T13:18:18.598Z</time>
      </trkpt>
      <trkpt lat="43.55691" lon="1.15649">
        <ele>262.175839</ele>
        <time>2026-04-17T13:18:22.494Z</time>
      </trkpt>
      <trkpt lat="43.55691" lon="1.15643">
        <ele>262.466944</ele>
        <time>2026-04-17T13:18:25.327Z</time>
      </trkpt>
      <trkpt lat="43.55742" lon="1.15515">
        <ele>270.19133</ele>
        <time>2026-04-17T13:19:36.081Z</time>
      </trkpt>
      <trkpt lat="43.55761" lon="1.15455">
        <ele>270.136004</ele>
        <time>2026-04-17T13:19:58.236Z</time>
      </trkpt>
      <trkpt lat="43.55761" lon="1.15424">
        <ele>269.881487</ele>
        <time>2026-04-17T13:20:06.363Z</time>
      </trkpt>
      <trkpt lat="43.55757" lon="1.15413">
        <ele>269.778061</ele>
        <time>2026-04-17T13:20:09.294Z</time>
      </trkpt>
      <trkpt lat="43.5574" lon="1.15403">
        <ele>269.574227</ele>
        <time>2026-04-17T13:20:14.687Z</time>
      </trkpt>
      <trkpt lat="43.55736" lon="1.15395">
        <ele>269.493123</ele>
        <time>2026-04-17T13:20:16.739Z</time>
      </trkpt>
      <trkpt lat="43.55708" lon="1.15259">
        <ele>267.342281</ele>
        <time>2026-04-17T13:20:43.155Z</time>
      </trkpt>
      <trkpt lat="43.55707" lon="1.1521">
        <ele>265.332385</ele>
        <time>2026-04-17T13:20:52.177Z</time>
      </trkpt>
      <trkpt lat="43.5569" lon="1.15054">
        <ele>258.819371</ele>
        <time>2026-04-17T13:21:21.267Z</time>
      </trkpt>
      <trkpt lat="43.55681" lon="1.15054">
        <ele>258.265808</ele>
        <time>2026-04-17T13:21:23.012Z</time>
      </trkpt>
      <trkpt lat="43.55596" lon="1.1508">
        <ele>250.809294</ele>
        <time>2026-04-17T13:21:38.557Z</time>
      </trkpt>
      <trkpt lat="43.55529" lon="1.15095">
        <ele>245.030135</ele>
        <time>2026-04-17T13:21:50.266Z</time>
      </trkpt>
      <trkpt lat="43.55422" lon="1.15131">
        <ele>236.629047</ele>
        <time>2026-04-17T13:22:09.935Z</time>
      </trkpt>
      <trkpt lat="43.55166" lon="1.15201">
        <ele>220.83963</ele>
        <time>2026-04-17T13:22:59.282Z</time>
      </trkpt>
      <trkpt lat="43.55162" lon="1.15196">
        <ele>220.525918</ele>
        <time>2026-04-17T13:23:00.122Z</time>
      </trkpt>
      <trkpt lat="43.55145" lon="1.15184">
        <ele>219.898803</ele>
        <time>2026-04-17T13:23:02.853Z</time>
      </trkpt>
      <trkpt lat="43.55059" lon="1.15116">
        <ele>217.921146</ele>
        <time>2026-04-17T13:23:18.642Z</time>
      </trkpt>
      <trkpt lat="43.5503" lon="1.15092">
        <ele>217.250464</ele>
        <time>2026-04-17T13:23:24.830Z</time>
      </trkpt>
      <trkpt lat="43.55018" lon="1.15083">
        <ele>216.975885</ele>
        <time>2026-04-17T13:23:27.384Z</time>
      </trkpt>
      <trkpt lat="43.54945" lon="1.15023">
        <ele>216.319831</ele>
        <time>2026-04-17T13:23:43.151Z</time>
      </trkpt>
      <trkpt lat="43.5491" lon="1.15002">
        <ele>216.185462</ele>
        <time>2026-04-17T13:23:50.516Z</time>
      </trkpt>
      <trkpt lat="43.54861" lon="1.14979">
        <ele>216.003542</ele>
        <time>2026-04-17T13:24:00.600Z</time>
      </trkpt>
      <trkpt lat="43.54856" lon="1.14976">
        <ele>215.986042</ele>
        <time>2026-04-17T13:24:01.620Z</time>
      </trkpt>
      <trkpt lat="43.54847" lon="1.14972">
        <ele>215.951626</ele>
        <time>2026-04-17T13:24:03.363Z</time>
      </trkpt>
      <trkpt lat="43.54767" lon="1.14942">
        <ele>215.671654</ele>
        <time>2026-04-17T13:24:19.073Z</time>
      </trkpt>
      <trkpt lat="43.54767" lon="1.14942">
        <ele>215.671654</ele>
        <time>2026-04-17T13:24:19.087Z</time>
      </trkpt>
      <trkpt lat="43.54775" lon="1.15033">
        <ele>215.44965</ele>
        <time>2026-04-17T13:24:33.312Z</time>
      </trkpt>
      <trkpt lat="43.54783" lon="1.15125">
        <ele>215.345349</ele>
        <time>2026-04-17T13:24:47.553Z</time>
      </trkpt>
      <trkpt lat="43.54791" lon="1.15216">
        <ele>215.444682</ele>
        <time>2026-04-17T13:25:01.797Z</time>
      </trkpt>
      <trkpt lat="43.54787" lon="1.15217">
        <ele>215.451468</ele>
        <time>2026-04-17T13:25:03.223Z</time>
      </trkpt>
      <trkpt lat="43.54775" lon="1.15218">
        <ele>215.468332</ele>
        <time>2026-04-17T13:25:06.809Z</time>
      </trkpt>
      <trkpt lat="43.54772" lon="1.1521">
        <ele>215.478581</ele>
        <time>2026-04-17T13:25:09.036Z</time>
      </trkpt>
      <trkpt lat="43.54772" lon="1.1519">
        <ele>215.500771</ele>
        <time>2026-04-17T13:25:13.903Z</time>
      </trkpt>
      <trkpt lat="43.54771" lon="1.15177">
        <ele>215.514894</ele>
        <time>2026-04-17T13:25:17.091Z</time>
      </trkpt>
      <trkpt lat="43.54763" lon="1.15164">
        <ele>215.532256</ele>
        <time>2026-04-17T13:25:21.075Z</time>
      </trkpt>
      <trkpt lat="43.54753" lon="1.15159">
        <ele>215.547814</ele>
        <time>2026-04-17T13:25:24.668Z</time>
      </trkpt>
      <trkpt lat="43.5475" lon="1.1515">
        <ele>215.558719</ele>
        <time>2026-04-17T13:25:27.243Z</time>
      </trkpt>
      <trkpt lat="43.54743" lon="1.15143">
        <ele>215.572345</ele>
        <time>2026-04-17T13:25:30.446Z</time>
      </trkpt>
      <trkpt lat="43.54737" lon="1.15141">
        <ele>215.634299</ele>
        <time>2026-04-17T13:25:32.607Z</time>
      </trkpt>
      <trkpt lat="43.5473" lon="1.15132">
        <ele>215.847537</ele>
        <time>2026-04-17T13:25:36.214Z</time>
      </trkpt>
      <trkpt lat="43.54728" lon="1.15107">
        <ele>216.236983</ele>
        <time>2026-04-17T13:25:43.047Z</time>
      </trkpt>
      <trkpt lat="43.54665" lon="1.15057">
        <ele>217.805629</ele>
        <time>2026-04-17T13:26:09.309Z</time>
      </trkpt>
      <trkpt lat="43.54607" lon="1.15009">
        <ele>219.268869</ele>
        <time>2026-04-17T13:26:35.965Z</time>
      </trkpt>
      <trkpt lat="43.546" lon="1.15004">
        <ele>219.444819</ele>
        <time>2026-04-17T13:26:39.256Z</time>
      </trkpt>
      <trkpt lat="43.54598" lon="1.15015">
        <ele>219.63174</ele>
        <time>2026-04-17T13:26:41.886Z</time>
      </trkpt>
      <trkpt lat="43.54588" lon="1.15077">
        <ele>220.614315</ele>
        <time>2026-04-17T13:26:55.477Z</time>
      </trkpt>
      <trkpt lat="43.5458" lon="1.15099">
        <ele>220.987604</ele>
        <time>2026-04-17T13:27:00.318Z</time>
      </trkpt>
      <trkpt lat="43.54576" lon="1.1511">
        <ele>221.188528</ele>
        <time>2026-04-17T13:27:03.045Z</time>
      </trkpt>
      <trkpt lat="43.54554" lon="1.15061">
        <ele>222.078819</ele>
        <time>2026-04-17T13:27:14.815Z</time>
      </trkpt>
      <trkpt lat="43.5452" lon="1.15017">
        <ele>223.08533</ele>
        <time>2026-04-17T13:27:28.083Z</time>
      </trkpt>
      <trkpt lat="43.54499" lon="1.14977">
        <ele>223.576374</ele>
        <time>2026-04-17T13:27:37.305Z</time>
      </trkpt>
      <trkpt lat="43.5444" lon="1.14846">
        <ele>224.72465</ele>
        <time>2026-04-17T13:28:04.591Z</time>
      </trkpt>
      <trkpt lat="43.54408" lon="1.14794">
        <ele>225.201337</ele>
        <time>2026-04-17T13:28:15.980Z</time>
      </trkpt>
      <trkpt lat="43.54391" lon="1.14771">
        <ele>225.333126</ele>
        <time>2026-04-17T13:28:21.392Z</time>
      </trkpt>
      <trkpt lat="43.54357" lon="1.14742">
        <ele>225.549714</ele>
        <time>2026-04-17T13:28:30.024Z</time>
      </trkpt>
      <trkpt lat="43.54286" lon="1.14669">
        <ele>226.036005</ele>
        <time>2026-04-17T13:28:48.673Z</time>
      </trkpt>
      <trkpt lat="43.54211" lon="1.14561">
        <ele>227.846164</ele>
        <time>2026-04-17T13:29:15.631Z</time>
      </trkpt>
      <trkpt lat="43.54159" lon="1.1449">
        <ele>229.266037</ele>
        <time>2026-04-17T13:29:37.784Z</time>
      </trkpt>
      <trkpt lat="43.54075" lon="1.14386">
        <ele>234.279679</ele>
        <time>2026-04-17T13:30:19.516Z</time>
      </trkpt>
      <trkpt lat="43.54068" lon="1.14388">
        <ele>234.615472</ele>
        <time>2026-04-17T13:30:23.333Z</time>
      </trkpt>
      <trkpt lat="43.54063" lon="1.14401">
        <ele>235.155754</ele>
        <time>2026-04-17T13:30:29.490Z</time>
      </trkpt>
      <trkpt lat="43.54053" lon="1.144">
        <ele>235.646664</ele>
        <time>2026-04-17T13:30:35.241Z</time>
      </trkpt>
      <trkpt lat="43.53992" lon="1.14373">
        <ele>238.985111</ele>
        <time>2026-04-17T13:31:15.505Z</time>
      </trkpt>
      <trkpt lat="43.53962" lon="1.14363">
        <ele>241.483205</ele>
        <time>2026-04-17T13:31:37.001Z</time>
      </trkpt>
      <trkpt lat="43.53811" lon="1.14348">
        <ele>253.765259</ele>
        <time>2026-04-17T13:33:25.580Z</time>
      </trkpt>
      <trkpt lat="43.53806" lon="1.1434">
        <ele>254.510772</ele>
        <time>2026-04-17T13:33:30.679Z</time>
      </trkpt>
      <trkpt lat="43.53818" lon="1.14188">
        <ele>264.975297</ele>
        <time>2026-04-17T13:34:51.315Z</time>
      </trkpt>
      <trkpt lat="43.53813" lon="1.14185">
        <ele>265.415607</ele>
        <time>2026-04-17T13:34:55.069Z</time>
      </trkpt>
      <trkpt lat="43.53716" lon="1.14198">
        <ele>274.485801</ele>
        <time>2026-04-17T13:36:18.956Z</time>
      </trkpt>
      <trkpt lat="43.53639" lon="1.14204">
        <ele>281.61666</ele>
        <time>2026-04-17T13:37:23.216Z</time>
      </trkpt>
      <trkpt lat="43.53618" lon="1.142">
        <ele>283.630402</ele>
        <time>2026-04-17T13:37:37.901Z</time>
      </trkpt>
      <trkpt lat="43.53584" lon="1.14199">
        <ele>286.6183</ele>
        <time>2026-04-17T13:37:57.638Z</time>
      </trkpt>
      <trkpt lat="43.53549" lon="1.14192">
        <ele>287.271671</ele>
        <time>2026-04-17T13:38:15.897Z</time>
      </trkpt>
      <trkpt lat="43.53468" lon="1.1419">
        <ele>288.752237</ele>
        <time>2026-04-17T13:38:49.832Z</time>
      </trkpt>
      <trkpt lat="43.53492" lon="1.14261">
        <ele>289.785513</ele>
        <time>2026-04-17T13:39:07.587Z</time>
      </trkpt>
      <trkpt lat="43.53509" lon="1.14329">
        <ele>288.548911</ele>
        <time>2026-04-17T13:39:23.042Z</time>
      </trkpt>
      <trkpt lat="43.53494" lon="1.1467">
        <ele>278.69818</ele>
        <time>2026-04-17T13:40:25.214Z</time>
      </trkpt>
      <trkpt lat="43.53445" lon="1.14659">
        <ele>276.09635</ele>
        <time>2026-04-17T13:40:31.768Z</time>
      </trkpt>
      <trkpt lat="43.53302" lon="1.14617">
        <ele>264.11618</ele>
        <time>2026-04-17T13:40:50.475Z</time>
      </trkpt>
      <trkpt lat="43.53189" lon="1.14584">
        <ele>253.306351</ele>
        <time>2026-04-17T13:41:05.030Z</time>
      </trkpt>
      <trkpt lat="43.53072" lon="1.14521">
        <ele>241.216689</ele>
        <time>2026-04-17T13:41:20.397Z</time>
      </trkpt>
      <trkpt lat="43.53001" lon="1.14485">
        <ele>236.194412</ele>
        <time>2026-04-17T13:41:29.990Z</time>
      </trkpt>
      <trkpt lat="43.52977" lon="1.14476">
        <ele>234.565029</ele>
        <time>2026-04-17T13:41:33.235Z</time>
      </trkpt>
      <trkpt lat="43.52953" lon="1.14853">
        <ele>225.999831</ele>
        <time>2026-04-17T13:42:16.229Z</time>
      </trkpt>
      <trkpt lat="43.52935" lon="1.15076">
        <ele>226.504984</ele>
        <time>2026-04-17T13:42:51.545Z</time>
      </trkpt>
      <trkpt lat="43.52986" lon="1.15088">
        <ele>228.375986</ele>
        <time>2026-04-17T13:43:08.282Z</time>
      </trkpt>
      <trkpt lat="43.52994" lon="1.15091">
        <ele>228.685076</ele>
        <time>2026-04-17T13:43:11.331Z</time>
      </trkpt>
      <trkpt lat="43.53002" lon="1.15098">
        <ele>229.020867</ele>
        <time>2026-04-17T13:43:14.814Z</time>
      </trkpt>
      <trkpt lat="43.5301" lon="1.1511">
        <ele>229.43973</ele>
        <time>2026-04-17T13:43:19.332Z</time>
      </trkpt>
      <trkpt lat="43.53039" lon="1.15175">
        <ele>231.476788</ele>
        <time>2026-04-17T13:43:43.233Z</time>
      </trkpt>
      <trkpt lat="43.53064" lon="1.15233">
        <ele>232.501121</ele>
        <time>2026-04-17T13:44:00.327Z</time>
      </trkpt>
      <trkpt lat="43.53073" lon="1.15265">
        <ele>232.182328</ele>
        <time>2026-04-17T13:44:06.999Z</time>
      </trkpt>
      <trkpt lat="43.53068" lon="1.15323">
        <ele>231.634936</ele>
        <time>2026-04-17T13:44:16.052Z</time>
      </trkpt>
      <trkpt lat="43.53062" lon="1.15461">
        <ele>230.261439</ele>
        <time>2026-04-17T13:44:30.613Z</time>
      </trkpt>
      <trkpt lat="43.53034" lon="1.15595">
        <ele>225.209326</ele>
        <time>2026-04-17T13:44:44.257Z</time>
      </trkpt>
      <trkpt lat="43.52988" lon="1.15736">
        <ele>220.600183</ele>
        <time>2026-04-17T13:45:00.246Z</time>
      </trkpt>
      <trkpt lat="43.52904" lon="1.15822">
        <ele>218.210646</ele>
        <time>2026-04-17T13:45:16.843Z</time>
      </trkpt>
      <trkpt lat="43.5287" lon="1.15914">
        <ele>217.019488</ele>
        <time>2026-04-17T13:45:30.207Z</time>
      </trkpt>
      <trkpt lat="43.52843" lon="1.16029">
        <ele>216.343872</ele>
        <time>2026-04-17T13:45:46.174Z</time>
      </trkpt>
      <trkpt lat="43.5283" lon="1.16071">
        <ele>216.086506</ele>
        <time>2026-04-17T13:45:52.179Z</time>
      </trkpt>
      <trkpt lat="43.528" lon="1.16133">
        <ele>215.615199</ele>
        <time>2026-04-17T13:46:01.880Z</time>
      </trkpt>
      <trkpt lat="43.52783" lon="1.16179">
        <ele>215.267223</ele>
        <time>2026-04-17T13:46:08.385Z</time>
      </trkpt>
      <trkpt lat="43.52736" lon="1.16326">
        <ele>214.18075</ele>
        <time>2026-04-17T13:46:28.822Z</time>
      </trkpt>
      <trkpt lat="43.52689" lon="1.16447">
        <ele>213.477096</ele>
        <time>2026-04-17T13:46:46.946Z</time>
      </trkpt>
      <trkpt lat="43.5263" lon="1.16584">
        <ele>212.792063</ele>
        <time>2026-04-17T13:47:08.108Z</time>
      </trkpt>
      <trkpt lat="43.52599" lon="1.16647">
        <ele>212.581353</ele>
        <time>2026-04-17T13:47:18.139Z</time>
      </trkpt>
      <trkpt lat="43.52583" lon="1.16661">
        <ele>212.507797</ele>
        <time>2026-04-17T13:47:21.752Z</time>
      </trkpt>
      <trkpt lat="43.52564" lon="1.1667">
        <ele>212.427215</ele>
        <time>2026-04-17T13:47:25.765Z</time>
      </trkpt>
      <trkpt lat="43.52517" lon="1.1668">
        <ele>212.253049</ele>
        <time>2026-04-17T13:47:34.919Z</time>
      </trkpt>
      <trkpt lat="43.52491" lon="1.16692">
        <ele>212.288615</ele>
        <time>2026-04-17T13:47:40.266Z</time>
      </trkpt>
      <trkpt lat="43.52479" lon="1.167">
        <ele>212.305784</ele>
        <time>2026-04-17T13:47:42.848Z</time>
      </trkpt>
      <trkpt lat="43.52461" lon="1.16711">
        <ele>212.331691</ele>
        <time>2026-04-17T13:47:46.841Z</time>
      </trkpt>
      <trkpt lat="43.52457" lon="1.16713">
        <ele>212.337813</ele>
        <time>2026-04-17T13:47:47.800Z</time>
      </trkpt>
      <trkpt lat="43.52428" lon="1.16729">
        <ele>212.37764</ele>
        <time>2026-04-17T13:47:54.229Z</time>
      </trkpt>
      <trkpt lat="43.52428" lon="1.16729">
        <ele>212.378757</ele>
        <time>2026-04-17T13:47:54.409Z</time>
      </trkpt>
      <trkpt lat="43.52419" lon="1.16734">
        <ele>212.390614</ele>
        <time>2026-04-17T13:47:56.406Z</time>
      </trkpt>
      <trkpt lat="43.52413" lon="1.16737">
        <ele>212.399198</ele>
        <time>2026-04-17T13:47:57.851Z</time>
      </trkpt>
      <trkpt lat="43.52365" lon="1.16762">
        <ele>212.466413</ele>
        <time>2026-04-17T13:48:08.856Z</time>
      </trkpt>
      <trkpt lat="43.52327" lon="1.16783">
        <ele>212.380582</ele>
        <time>2026-04-17T13:48:17.126Z</time>
      </trkpt>
      <trkpt lat="43.52312" lon="1.16792">
        <ele>212.315991</ele>
        <time>2026-04-17T13:48:20.258Z</time>
      </trkpt>
      <trkpt lat="43.52286" lon="1.16814">
        <ele>212.188407</ele>
        <time>2026-04-17T13:48:26.254Z</time>
      </trkpt>
      <trkpt lat="43.52252" lon="1.16855">
        <ele>212.004283</ele>
        <time>2026-04-17T13:48:34.619Z</time>
      </trkpt>
      <trkpt lat="43.52176" lon="1.16947">
        <ele>211.466828</ele>
        <time>2026-04-17T13:48:52.643Z</time>
      </trkpt>
      <trkpt lat="43.52106" lon="1.17042">
        <ele>210.752084</ele>
        <time>2026-04-17T13:49:10.341Z</time>
      </trkpt>
      <trkpt lat="43.52071" lon="1.17084">
        <ele>210.409526</ele>
        <time>2026-04-17T13:49:18.903Z</time>
      </trkpt>
      <trkpt lat="43.52055" lon="1.17101">
        <ele>210.238783</ele>
        <time>2026-04-17T13:49:22.594Z</time>
      </trkpt>
      <trkpt lat="43.5195" lon="1.17145">
        <ele>209.29425</ele>
        <time>2026-04-17T13:49:42.505Z</time>
      </trkpt>
      <trkpt lat="43.51888" lon="1.17185">
        <ele>208.660982</ele>
        <time>2026-04-17T13:49:54.184Z</time>
      </trkpt>
      <trkpt lat="43.5187" lon="1.17201">
        <ele>208.442288</ele>
        <time>2026-04-17T13:49:57.684Z</time>
      </trkpt>
      <trkpt lat="43.51856" lon="1.17223">
        <ele>208.225292</ele>
        <time>2026-04-17T13:50:01.204Z</time>
      </trkpt>
      <trkpt lat="43.51839" lon="1.17258">
        <ele>207.904142</ele>
        <time>2026-04-17T13:50:06.610Z</time>
      </trkpt>
      <trkpt lat="43.5182" lon="1.1731">
        <ele>207.466433</ele>
        <time>2026-04-17T13:50:14.428Z</time>
      </trkpt>
      <trkpt lat="43.51816" lon="1.17311">
        <ele>207.423614</ele>
        <time>2026-04-17T13:50:15.255Z</time>
      </trkpt>
      <trkpt lat="43.51809" lon="1.17321">
        <ele>207.322009</ele>
        <time>2026-04-17T13:50:17.007Z</time>
      </trkpt>
      <trkpt lat="43.51779" lon="1.17397">
        <ele>206.515943</ele>
        <time>2026-04-17T13:50:27.991Z</time>
      </trkpt>
      <trkpt lat="43.51783" lon="1.17401">
        <ele>206.446319</ele>
        <time>2026-04-17T13:50:28.850Z</time>
      </trkpt>
      <trkpt lat="43.51768" lon="1.17437">
        <ele>205.988475</ele>
        <time>2026-04-17T13:50:33.319Z</time>
      </trkpt>
      <trkpt lat="43.5174" lon="1.17492">
        <ele>205.259288</ele>
        <time>2026-04-17T13:50:40.189Z</time>
      </trkpt>
      <trkpt lat="43.51721" lon="1.17509">
        <ele>204.914674</ele>
        <time>2026-04-17T13:50:43.300Z</time>
      </trkpt>
      <trkpt lat="43.51698" lon="1.17513">
        <ele>204.571532</ele>
        <time>2026-04-17T13:50:46.362Z</time>
      </trkpt>
      <trkpt lat="43.51669" lon="1.17514">
        <ele>204.182868</ele>
        <time>2026-04-17T13:50:50.203Z</time>
      </trkpt>
      <trkpt lat="43.51672" lon="1.17641">
        <ele>203.119187</ele>
        <time>2026-04-17T13:51:05.663Z</time>
      </trkpt>
      <trkpt lat="43.51672" lon="1.17645">
        <ele>203.084015</ele>
        <time>2026-04-17T13:51:06.207Z</time>
      </trkpt>
      <trkpt lat="43.5168" lon="1.17669">
        <ele>202.865891</ele>
        <time>2026-04-17T13:51:09.134Z</time>
      </trkpt>
      <trkpt lat="43.51685" lon="1.17744">
        <ele>202.254823</ele>
        <time>2026-04-17T13:51:18.312Z</time>
      </trkpt>
      <trkpt lat="43.51688" lon="1.17755">
        <ele>202.235166</ele>
        <time>2026-04-17T13:51:19.770Z</time>
      </trkpt>
      <trkpt lat="43.51693" lon="1.17788">
        <ele>202.178325</ele>
        <time>2026-04-17T13:51:24.112Z</time>
      </trkpt>
      <trkpt lat="43.51698" lon="1.17808">
        <ele>202.143126</ele>
        <time>2026-04-17T13:51:26.901Z</time>
      </trkpt>
      <trkpt lat="43.51701" lon="1.17833">
        <ele>202.09993</ele>
        <time>2026-04-17T13:51:30.138Z</time>
      </trkpt>
      <trkpt lat="43.51701" lon="1.1787">
        <ele>202.037913</ele>
        <time>2026-04-17T13:51:35.062Z</time>
      </trkpt>
      <trkpt lat="43.51698" lon="1.17902">
        <ele>201.982952</ele>
        <time>2026-04-17T13:51:39.296Z</time>
      </trkpt>
      <trkpt lat="43.51692" lon="1.1793">
        <ele>201.933869</ele>
        <time>2026-04-17T13:51:43.071Z</time>
      </trkpt>
      <trkpt lat="43.51682" lon="1.17949">
        <ele>201.894278</ele>
        <time>2026-04-17T13:51:46.067Z</time>
      </trkpt>
      <trkpt lat="43.51672" lon="1.17956">
        <ele>201.869198</ele>
        <time>2026-04-17T13:51:47.840Z</time>
      </trkpt>
      <trkpt lat="43.51682" lon="1.17988">
        <ele>201.709143</ele>
        <time>2026-04-17T13:51:51.822Z</time>
      </trkpt>
      <trkpt lat="43.51671" lon="1.18035">
        <ele>201.359965</ele>
        <time>2026-04-17T13:51:58.315Z</time>
      </trkpt>
      <trkpt lat="43.51668" lon="1.18069">
        <ele>201.125239</ele>
        <time>2026-04-17T13:52:02.573Z</time>
      </trkpt>
      <trkpt lat="43.51669" lon="1.18132">
        <ele>200.688239</ele>
        <time>2026-04-17T13:52:10.446Z</time>
      </trkpt>
      <trkpt lat="43.51674" lon="1.18134">
        <ele>200.639665</ele>
        <time>2026-04-17T13:52:11.333Z</time>
      </trkpt>
      <trkpt lat="43.51678" lon="1.1815">
        <ele>200.519407</ele>
        <time>2026-04-17T13:52:13.495Z</time>
      </trkpt>
      <trkpt lat="43.51679" lon="1.18156">
        <ele>200.473693</ele>
        <time>2026-04-17T13:52:14.320Z</time>
      </trkpt>
      <trkpt lat="43.51688" lon="1.1822">
        <ele>200.025132</ele>
        <time>2026-04-17T13:52:28.923Z</time>
      </trkpt>
      <trkpt lat="43.51704" lon="1.18304">
        <ele>199.440343</ele>
        <time>2026-04-17T13:52:48.456Z</time>
      </trkpt>
      <trkpt lat="43.51711" lon="1.18331">
        <ele>199.248373</ele>
        <time>2026-04-17T13:52:55.009Z</time>
      </trkpt>
      <trkpt lat="43.51698" lon="1.18349">
        <ele>199.077</ele>
        <time>2026-04-17T13:53:00.453Z</time>
      </trkpt>
      <trkpt lat="43.51691" lon="1.18366">
        <ele>198.945806</ele>
        <time>2026-04-17T13:53:04.665Z</time>
      </trkpt>
      <trkpt lat="43.51688" lon="1.18384">
        <ele>198.826769</ele>
        <time>2026-04-17T13:53:08.454Z</time>
      </trkpt>
      <trkpt lat="43.51687" lon="1.18391">
        <ele>198.772484</ele>
        <time>2026-04-17T13:53:10.159Z</time>
      </trkpt>
      <trkpt lat="43.51687" lon="1.18431">
        <ele>198.50534</ele>
        <time>2026-04-17T13:53:18.618Z</time>
      </trkpt>
      <trkpt lat="43.51693" lon="1.18463">
        <ele>198.380877</ele>
        <time>2026-04-17T13:53:25.546Z</time>
      </trkpt>
      <trkpt lat="43.51718" lon="1.18512">
        <ele>198.211356</ele>
        <time>2026-04-17T13:53:38.555Z</time>
      </trkpt>
      <trkpt lat="43.51724" lon="1.18555">
        <ele>198.084881</ele>
        <time>2026-04-17T13:53:48.985Z</time>
      </trkpt>
      <trkpt lat="43.51733" lon="1.1858">
        <ele>198.003903</ele>
        <time>2026-04-17T13:53:55.591Z</time>
      </trkpt>
      <trkpt lat="43.51746" lon="1.18607">
        <ele>197.913327</ele>
        <time>2026-04-17T13:54:02.786Z</time>
      </trkpt>
      <trkpt lat="43.51791" lon="1.18635">
        <ele>197.689223</ele>
        <time>2026-04-17T13:54:18.006Z</time>
      </trkpt>
      <trkpt lat="43.51819" lon="1.18644">
        <ele>197.436023</ele>
        <time>2026-04-17T13:54:26.445Z</time>
      </trkpt>
      <trkpt lat="43.51821" lon="1.18662">
        <ele>197.315729</ele>
        <time>2026-04-17T13:54:30.691Z</time>
      </trkpt>
      <trkpt lat="43.51799" lon="1.18663">
        <ele>197.118489</ele>
        <time>2026-04-17T13:54:37.659Z</time>
      </trkpt>
      <trkpt lat="43.51789" lon="1.1866">
        <ele>197.034467</ele>
        <time>2026-04-17T13:54:40.589Z</time>
      </trkpt>
      <trkpt lat="43.51785" lon="1.18654">
        <ele>196.980796</ele>
        <time>2026-04-17T13:54:42.476Z</time>
      </trkpt>
      <trkpt lat="43.51761" lon="1.18657">
        <ele>196.761379</ele>
        <time>2026-04-17T13:54:50.028Z</time>
      </trkpt>
      <trkpt lat="43.51752" lon="1.18666">
        <ele>196.661998</ele>
        <time>2026-04-17T13:54:53.399Z</time>
      </trkpt>
      <trkpt lat="43.51748" lon="1.1868">
        <ele>196.564513</ele>
        <time>2026-04-17T13:54:56.734Z</time>
      </trkpt>
      <trkpt lat="43.51751" lon="1.18699">
        <ele>196.441668</ele>
        <time>2026-04-17T13:55:00.888Z</time>
      </trkpt>
      <trkpt lat="43.51756" lon="1.18711">
        <ele>196.348733</ele>
        <time>2026-04-17T13:55:04.002Z</time>
      </trkpt>
      <trkpt lat="43.5175" lon="1.18738">
        <ele>196.169061</ele>
        <time>2026-04-17T13:55:10.197Z</time>
      </trkpt>
      <trkpt lat="43.51753" lon="1.18783">
        <ele>196.024182</ele>
        <time>2026-04-17T13:55:20.547Z</time>
      </trkpt>
      <trkpt lat="43.51746" lon="1.18816">
        <ele>195.933115</ele>
        <time>2026-04-17T13:55:28.487Z</time>
      </trkpt>
      <trkpt lat="43.51732" lon="1.18831">
        <ele>195.86879</ele>
        <time>2026-04-17T13:55:34.211Z</time>
      </trkpt>
      <trkpt lat="43.51728" lon="1.1884">
        <ele>195.84125</ele>
        <time>2026-04-17T13:55:36.697Z</time>
      </trkpt>
      <trkpt lat="43.51729" lon="1.18851">
        <ele>195.811329</ele>
        <time>2026-04-17T13:55:39.377Z</time>
      </trkpt>
      <trkpt lat="43.51733" lon="1.18866">
        <ele>195.770573</ele>
        <time>2026-04-17T13:55:43.080Z</time>
      </trkpt>
      <trkpt lat="43.51765" lon="1.18914">
        <ele>195.594591</ele>
        <time>2026-04-17T13:55:59.133Z</time>
      </trkpt>
      <trkpt lat="43.51771" lon="1.18927">
        <ele>195.554118</ele>
        <time>2026-04-17T13:56:02.847Z</time>
      </trkpt>
      <trkpt lat="43.51772" lon="1.1894">
        <ele>195.519889</ele>
        <time>2026-04-17T13:56:05.987Z</time>
      </trkpt>
      <trkpt lat="43.51768" lon="1.18967">
        <ele>195.464144</ele>
        <time>2026-04-17T13:56:12.848Z</time>
      </trkpt>
      <trkpt lat="43.51771" lon="1.19021">
        <ele>195.430821</ele>
        <time>2026-04-17T13:56:26.183Z</time>
      </trkpt>
      <trkpt lat="43.51767" lon="1.19035">
        <ele>195.421245</ele>
        <time>2026-04-17T13:56:29.987Z</time>
      </trkpt>
      <trkpt lat="43.51748" lon="1.19066">
        <ele>195.395989</ele>
        <time>2026-04-17T13:56:40.012Z</time>
      </trkpt>
      <trkpt lat="43.51745" lon="1.19073">
        <ele>195.390739</ele>
        <time>2026-04-17T13:56:42.117Z</time>
      </trkpt>
      <trkpt lat="43.51744" lon="1.19083">
        <ele>195.38471</ele>
        <time>2026-04-17T13:56:44.509Z</time>
      </trkpt>
      <trkpt lat="43.51745" lon="1.19091">
        <ele>195.37961</ele>
        <time>2026-04-17T13:56:46.538Z</time>
      </trkpt>
      <trkpt lat="43.51783" lon="1.19156">
        <ele>195.327896</ele>
        <time>2026-04-17T13:57:06.605Z</time>
      </trkpt>
      <trkpt lat="43.51819" lon="1.19206">
        <ele>195.059332</ele>
        <time>2026-04-17T13:57:23.205Z</time>
      </trkpt>
      <trkpt lat="43.51832" lon="1.19216">
        <ele>194.955719</ele>
        <time>2026-04-17T13:57:28.018Z</time>
      </trkpt>
      <trkpt lat="43.51862" lon="1.19257">
        <ele>194.664057</ele>
        <time>2026-04-17T13:57:41.473Z</time>
      </trkpt>
      <trkpt lat="43.51864" lon="1.19274">
        <ele>194.580314</ele>
        <time>2026-04-17T13:57:45.296Z</time>
      </trkpt>
      <trkpt lat="43.51885" lon="1.19322">
        <ele>194.301655</ele>
        <time>2026-04-17T13:57:57.917Z</time>
      </trkpt>
      <trkpt lat="43.5193" lon="1.19407">
        <ele>193.843822</ele>
        <time>2026-04-17T13:58:22.058Z</time>
      </trkpt>
      <trkpt lat="43.51939" lon="1.19455">
        <ele>193.656233</ele>
        <time>2026-04-17T13:58:33.561Z</time>
      </trkpt>
      <trkpt lat="43.51954" lon="1.19589">
        <ele>193.14148</ele>
        <time>2026-04-17T13:59:05.793Z</time>
      </trkpt>
      <trkpt lat="43.51954" lon="1.19643">
        <ele>192.939947</ele>
        <time>2026-04-17T13:59:18.513Z</time>
      </trkpt>
      <trkpt lat="43.5195" lon="1.19667">
        <ele>192.84698</ele>
        <time>2026-04-17T13:59:24.327Z</time>
      </trkpt>
      <trkpt lat="43.51938" lon="1.19693">
        <ele>192.728791</ele>
        <time>2026-04-17T13:59:31.680Z</time>
      </trkpt>
      <trkpt lat="43.51926" lon="1.19713">
        <ele>192.630067</ele>
        <time>2026-04-17T13:59:37.818Z</time>
      </trkpt>
      <trkpt lat="43.51898" lon="1.19785">
        <ele>192.321248</ele>
        <time>2026-04-17T13:59:56.684Z</time>
      </trkpt>
      <trkpt lat="43.51898" lon="1.19796">
        <ele>192.277324</ele>
        <time>2026-04-17T13:59:59.326Z</time>
      </trkpt>
      <trkpt lat="43.51884" lon="1.19837">
        <ele>192.123609</ele>
        <time>2026-04-17T14:00:09.549Z</time>
      </trkpt>
      <trkpt lat="43.51889" lon="1.1986">
        <ele>192.048415</ele>
        <time>2026-04-17T14:00:15.111Z</time>
      </trkpt>
      <trkpt lat="43.51932" lon="1.1993">
        <ele>191.763395</ele>
        <time>2026-04-17T14:00:36.510Z</time>
      </trkpt>
      <trkpt lat="43.51954" lon="1.20052">
        <ele>191.420556</ele>
        <time>2026-04-17T14:01:06.564Z</time>
      </trkpt>
      <trkpt lat="43.51941" lon="1.2023">
        <ele>191.418069</ele>
        <time>2026-04-17T14:01:51.077Z</time>
      </trkpt>
      <trkpt lat="43.51953" lon="1.20302">
        <ele>191.356496</ele>
        <time>2026-04-17T14:02:08.848Z</time>
      </trkpt>
      <trkpt lat="43.51956" lon="1.20359">
        <ele>191.183235</ele>
        <time>2026-04-17T14:02:22.532Z</time>
      </trkpt>
      <trkpt lat="43.51981" lon="1.2043">
        <ele>190.943973</ele>
        <time>2026-04-17T14:02:41.342Z</time>
      </trkpt>
      <trkpt lat="43.51988" lon="1.20484">
        <ele>190.77931</ele>
        <time>2026-04-17T14:02:54.168Z</time>
      </trkpt>
      <trkpt lat="43.52" lon="1.20528">
        <ele>190.613928</ele>
        <time>2026-04-17T14:03:04.824Z</time>
      </trkpt>
      <trkpt lat="43.52008" lon="1.20569">
        <ele>190.379957</ele>
        <time>2026-04-17T14:03:10.401Z</time>
      </trkpt>
      <trkpt lat="43.52013" lon="1.2058">
        <ele>190.308181</ele>
        <time>2026-04-17T14:03:12.143Z</time>
      </trkpt>
      <trkpt lat="43.52017" lon="1.20598">
        <ele>190.202556</ele>
        <time>2026-04-17T14:03:16.557Z</time>
      </trkpt>
      <trkpt lat="43.52025" lon="1.2062">
        <ele>190.067628</ele>
        <time>2026-04-17T14:03:22.238Z</time>
      </trkpt>
      <trkpt lat="43.5209" lon="1.20762">
        <ele>189.367924</ele>
        <time>2026-04-17T14:04:00.587Z</time>
      </trkpt>
      <trkpt lat="43.52087" lon="1.20785">
        <ele>189.418067</ele>
        <time>2026-04-17T14:04:06.042Z</time>
      </trkpt>
      <trkpt lat="43.52095" lon="1.20805">
        <ele>189.465938</ele>
        <time>2026-04-17T14:04:11.315Z</time>
      </trkpt>
      <trkpt lat="43.52126" lon="1.20823">
        <ele>189.56293</ele>
        <time>2026-04-17T14:04:22.163Z</time>
      </trkpt>
      <trkpt lat="43.52136" lon="1.20874">
        <ele>189.673479</ele>
        <time>2026-04-17T14:04:34.934Z</time>
      </trkpt>
      <trkpt lat="43.52138" lon="1.20944">
        <ele>189.821047</ele>
        <time>2026-04-17T14:04:54.696Z</time>
      </trkpt>
      <trkpt lat="43.52155" lon="1.20987">
        <ele>191.333344</ele>
        <time>2026-04-17T14:05:11.115Z</time>
      </trkpt>
      <trkpt lat="43.52177" lon="1.21026">
        <ele>192.910411</ele>
        <time>2026-04-17T14:05:29.149Z</time>
      </trkpt>
      <trkpt lat="43.52371" lon="1.20868">
        <ele>202.25482</ele>
        <time>2026-04-17T14:07:11.273Z</time>
      </trkpt>
      <trkpt lat="43.52377" lon="1.20866">
        <ele>202.498961</ele>
        <time>2026-04-17T14:07:13.405Z</time>
      </trkpt>
      <trkpt lat="43.52382" lon="1.2087">
        <ele>202.731305</ele>
        <time>2026-04-17T14:07:15.159Z</time>
      </trkpt>
      <trkpt lat="43.52466" lon="1.21">
        <ele>204.789814</ele>
        <time>2026-04-17T14:07:39.442Z</time>
      </trkpt>
      <trkpt lat="43.52521" lon="1.21091">
        <ele>204.829247</ele>
        <time>2026-04-17T14:07:52.807Z</time>
      </trkpt>
      <trkpt lat="43.52615" lon="1.21245">
        <ele>204.998766</ele>
        <time>2026-04-17T14:08:18.674Z</time>
      </trkpt>
      <trkpt lat="43.52632" lon="1.21265">
        <ele>205.027464</ele>
        <time>2026-04-17T14:08:22.856Z</time>
      </trkpt>
      <trkpt lat="43.52664" lon="1.21294">
        <ele>205.08175</ele>
        <time>2026-04-17T14:08:29.896Z</time>
      </trkpt>
      <trkpt lat="43.52788" lon="1.21385">
        <ele>205.394413</ele>
        <time>2026-04-17T14:08:55.503Z</time>
      </trkpt>
      <trkpt lat="43.52845" lon="1.21448">
        <ele>205.326086</ele>
        <time>2026-04-17T14:09:08.602Z</time>
      </trkpt>
      <trkpt lat="43.52846" lon="1.21441">
        <ele>205.308224</ele>
        <time>2026-04-17T14:09:09.523Z</time>
      </trkpt>
      <trkpt lat="43.52855" lon="1.21417">
        <ele>205.238642</ele>
        <time>2026-04-17T14:09:12.830Z</time>
      </trkpt>
      <trkpt lat="43.52872" lon="1.21408">
        <ele>205.172133</ele>
        <time>2026-04-17T14:09:15.880Z</time>
      </trkpt>
      <trkpt lat="43.52877" lon="1.21413">
        <ele>205.152738</ele>
        <time>2026-04-17T14:09:16.761Z</time>
      </trkpt>
      <trkpt lat="43.52887" lon="1.21416">
        <ele>205.114297</ele>
        <time>2026-04-17T14:09:18.460Z</time>
      </trkpt>
      <trkpt lat="43.529" lon="1.21408">
        <ele>205.063991</ele>
        <time>2026-04-17T14:09:20.670Z</time>
      </trkpt>
      <trkpt lat="43.52905" lon="1.21395">
        <ele>205.024717</ele>
        <time>2026-04-17T14:09:22.389Z</time>
      </trkpt>
      <trkpt lat="43.52904" lon="1.2138">
        <ele>204.985593</ele>
        <time>2026-04-17T14:09:24.089Z</time>
      </trkpt>
      <trkpt lat="43.5291" lon="1.21366">
        <ele>204.945106</ele>
        <time>2026-04-17T14:09:25.821Z</time>
      </trkpt>
      <trkpt lat="43.52919" lon="1.21342">
        <ele>204.875902</ele>
        <time>2026-04-17T14:09:28.741Z</time>
      </trkpt>
      <trkpt lat="43.5292" lon="1.21321">
        <ele>204.824946</ele>
        <time>2026-04-17T14:09:30.999Z</time>
      </trkpt>
      <trkpt lat="43.52919" lon="1.21294">
        <ele>204.794963</ele>
        <time>2026-04-17T14:09:34.055Z</time>
      </trkpt>
      <trkpt lat="43.52919" lon="1.2129">
        <ele>204.79096</ele>
        <time>2026-04-17T14:09:34.545Z</time>
      </trkpt>
      <trkpt lat="43.52924" lon="1.21249">
        <ele>204.745935</ele>
        <time>2026-04-17T14:09:39.156Z</time>
      </trkpt>
      <trkpt lat="43.5293" lon="1.21224">
        <ele>204.71722</ele>
        <time>2026-04-17T14:09:42.113Z</time>
      </trkpt>
      <trkpt lat="43.52939" lon="1.21205">
        <ele>204.69329</ele>
        <time>2026-04-17T14:09:44.633Z</time>
      </trkpt>
      <trkpt lat="43.52947" lon="1.21183">
        <ele>204.666065</ele>
        <time>2026-04-17T14:09:47.660Z</time>
      </trkpt>
      <trkpt lat="43.52948" lon="1.21178">
        <ele>204.660312</ele>
        <time>2026-04-17T14:09:48.326Z</time>
      </trkpt>
      <trkpt lat="43.52953" lon="1.21154">
        <ele>204.633482</ele>
        <time>2026-04-17T14:09:51.552Z</time>
      </trkpt>
      <trkpt lat="43.52963" lon="1.21118">
        <ele>204.591861</ele>
        <time>2026-04-17T14:09:56.885Z</time>
      </trkpt>
      <trkpt lat="43.52972" lon="1.21086">
        <ele>204.596612</ele>
        <time>2026-04-17T14:10:01.824Z</time>
      </trkpt>
      <trkpt lat="43.52981" lon="1.2105">
        <ele>204.959836</ele>
        <time>2026-04-17T14:10:07.562Z</time>
      </trkpt>
      <trkpt lat="43.52982" lon="1.2104">
        <ele>205.058895</ele>
        <time>2026-04-17T14:10:09.219Z</time>
      </trkpt>
      <trkpt lat="43.5298" lon="1.21027">
        <ele>205.184831</ele>
        <time>2026-04-17T14:10:11.427Z</time>
      </trkpt>
      <trkpt lat="43.52976" lon="1.21016">
        <ele>205.303592</ele>
        <time>2026-04-17T14:10:13.548Z</time>
      </trkpt>
      <trkpt lat="43.52964" lon="1.21004">
        <ele>205.492054</ele>
        <time>2026-04-17T14:10:17.016Z</time>
      </trkpt>
      <trkpt lat="43.52951" lon="1.20994">
        <ele>205.694988</ele>
        <time>2026-04-17T14:10:20.769Z</time>
      </trkpt>
      <trkpt lat="43.52926" lon="1.2098">
        <ele>206.054209</ele>
        <time>2026-04-17T14:10:27.252Z</time>
      </trkpt>
      <trkpt lat="43.52927" lon="1.20973">
        <ele>206.121626</ele>
        <time>2026-04-17T14:10:28.509Z</time>
      </trkpt>
      <trkpt lat="43.52933" lon="1.20959">
        <ele>206.272804</ele>
        <time>2026-04-17T14:10:31.289Z</time>
      </trkpt>
      <trkpt lat="43.52961" lon="1.20889">
        <ele>207.022501</ele>
        <time>2026-04-17T14:10:45.208Z</time>
      </trkpt>
      <trkpt lat="43.52948" lon="1.20878">
        <ele>207.182761</ele>
        <time>2026-04-17T14:10:48.907Z</time>
      </trkpt>
      <trkpt lat="43.52966" lon="1.20833">
        <ele>207.580917</ele>
        <time>2026-04-17T14:10:58.226Z</time>
      </trkpt>
      <trkpt lat="43.52956" lon="1.20824">
        <ele>207.707931</ele>
        <time>2026-04-17T14:11:01.048Z</time>
      </trkpt>
      <trkpt lat="43.52953" lon="1.20801">
        <ele>207.886754</ele>
        <time>2026-04-17T14:11:04.902Z</time>
      </trkpt>
      <trkpt lat="43.52957" lon="1.2079">
        <ele>207.976642</ele>
        <time>2026-04-17T14:11:06.725Z</time>
      </trkpt>
      <trkpt lat="43.52985" lon="1.20723">
        <ele>208.561461</ele>
        <time>2026-04-17T14:11:17.855Z</time>
      </trkpt>
      <trkpt lat="43.52998" lon="1.2069">
        <ele>208.84489</ele>
        <time>2026-04-17T14:11:23.178Z</time>
      </trkpt>
      <trkpt lat="43.52989" lon="1.2068">
        <ele>208.920759</ele>
        <time>2026-04-17T14:11:25.438Z</time>
      </trkpt>
      <trkpt lat="43.53008" lon="1.20639">
        <ele>209.148832</ele>
        <time>2026-04-17T14:11:32.157Z</time>
      </trkpt>
      <trkpt lat="43.53005" lon="1.2063">
        <ele>209.196022</ele>
        <time>2026-04-17T14:11:33.541Z</time>
      </trkpt>
      <trkpt lat="43.53007" lon="1.20622">
        <ele>209.23165</ele>
        <time>2026-04-17T14:11:34.555Z</time>
      </trkpt>
      <trkpt lat="43.53109" lon="1.20783">
        <ele>210.037372</ele>
        <time>2026-04-17T14:12:06.498Z</time>
      </trkpt>
      <trkpt lat="43.53115" lon="1.2079">
        <ele>210.046872</ele>
        <time>2026-04-17T14:12:08.065Z</time>
      </trkpt>
      <trkpt lat="43.53152" lon="1.2084">
        <ele>210.1116</ele>
        <time>2026-04-17T14:12:17.649Z</time>
      </trkpt>
      <trkpt lat="43.53169" lon="1.20862">
        <ele>210.140128</ele>
        <time>2026-04-17T14:12:21.612Z</time>
      </trkpt>
      <trkpt lat="43.53208" lon="1.20915">
        <ele>210.208691</ele>
        <time>2026-04-17T14:12:30.679Z</time>
      </trkpt>
      <trkpt lat="43.53227" lon="1.20941">
        <ele>210.086108</ele>
        <time>2026-04-17T14:12:34.739Z</time>
      </trkpt>
      <trkpt lat="43.53255" lon="1.20995">
        <ele>209.807449</ele>
        <time>2026-04-17T14:12:41.874Z</time>
      </trkpt>
      <trkpt lat="43.53283" lon="1.21049">
        <ele>209.525362</ele>
        <time>2026-04-17T14:12:49.558Z</time>
      </trkpt>
      <trkpt lat="43.53292" lon="1.21065">
        <ele>209.438297</ele>
        <time>2026-04-17T14:12:52.005Z</time>
      </trkpt>
      <trkpt lat="43.53293" lon="1.21077">
        <ele>209.389529</ele>
        <time>2026-04-17T14:12:53.363Z</time>
      </trkpt>
      <trkpt lat="43.53298" lon="1.21085">
        <ele>209.344273</ele>
        <time>2026-04-17T14:12:54.606Z</time>
      </trkpt>
      <trkpt lat="43.533" lon="1.21086">
        <ele>209.330873</ele>
        <time>2026-04-17T14:12:54.980Z</time>
      </trkpt>
      <trkpt lat="43.53317" lon="1.21122">
        <ele>209.14287</ele>
        <time>2026-04-17T14:12:59.848Z</time>
      </trkpt>
      <trkpt lat="43.53328" lon="1.2115">
        <ele>208.938501</ele>
        <time>2026-04-17T14:13:03.379Z</time>
      </trkpt>
      <trkpt lat="43.53334" lon="1.21163">
        <ele>208.840119</ele>
        <time>2026-04-17T14:13:05.052Z</time>
      </trkpt>
      <trkpt lat="43.53347" lon="1.21199">
        <ele>208.578251</ele>
        <time>2026-04-17T14:13:09.442Z</time>
      </trkpt>
      <trkpt lat="43.53389" lon="1.21329">
        <ele>207.661574</ele>
        <time>2026-04-17T14:13:24.802Z</time>
      </trkpt>
      <trkpt lat="43.53398" lon="1.21313">
        <ele>207.550859</ele>
        <time>2026-04-17T14:13:27.251Z</time>
      </trkpt>
      <trkpt lat="43.5341" lon="1.21309">
        <ele>207.496886</ele>
        <time>2026-04-17T14:13:29.367Z</time>
      </trkpt>
      <trkpt lat="43.53566" lon="1.21314">
        <ele>206.802031</ele>
        <time>2026-04-17T14:13:58.423Z</time>
      </trkpt>
      <trkpt lat="43.53606" lon="1.21311">
        <ele>207.003218</ele>
        <time>2026-04-17T14:14:07.137Z</time>
      </trkpt>
      <trkpt lat="43.5361" lon="1.21309">
        <ele>207.036076</ele>
        <time>2026-04-17T14:14:08.166Z</time>
      </trkpt>
      <trkpt lat="43.53613" lon="1.21296">
        <ele>207.109767</ele>
        <time>2026-04-17T14:14:10.520Z</time>
      </trkpt>
      <trkpt lat="43.53613" lon="1.21283">
        <ele>207.177848</ele>
        <time>2026-04-17T14:14:12.704Z</time>
      </trkpt>
      <trkpt lat="43.5361" lon="1.2123">
        <ele>207.460458</ele>
        <time>2026-04-17T14:14:22.186Z</time>
      </trkpt>
      <trkpt lat="43.53609" lon="1.21222">
        <ele>207.503656</ele>
        <time>2026-04-17T14:14:23.646Z</time>
      </trkpt>
      <trkpt lat="43.53604" lon="1.2114">
        <ele>207.941058</ele>
        <time>2026-04-17T14:14:38.524Z</time>
      </trkpt>
      <trkpt lat="43.5361" lon="1.21083">
        <ele>208.116424</ele>
        <time>2026-04-17T14:14:47.003Z</time>
      </trkpt>
      <trkpt lat="43.53617" lon="1.21042">
        <ele>208.156219</ele>
        <time>2026-04-17T14:14:52.469Z</time>
      </trkpt>
      <trkpt lat="43.53654" lon="1.2104">
        <ele>208.204435</ele>
        <time>2026-04-17T14:14:58.771Z</time>
      </trkpt>
      <trkpt lat="43.53712" lon="1.21037">
        <ele>208.279235</ele>
        <time>2026-04-17T14:15:08.438Z</time>
      </trkpt>
      <trkpt lat="43.53744" lon="1.21035">
        <ele>208.321979</ele>
        <time>2026-04-17T14:15:13.988Z</time>
      </trkpt>
      <trkpt lat="43.53753" lon="1.2103">
        <ele>208.318138</ele>
        <time>2026-04-17T14:15:15.587Z</time>
      </trkpt>
      <trkpt lat="43.53756" lon="1.21009">
        <ele>208.31165</ele>
        <time>2026-04-17T14:15:18.285Z</time>
      </trkpt>
      <trkpt lat="43.53757" lon="1.20983">
        <ele>208.303809</ele>
        <time>2026-04-17T14:15:21.588Z</time>
      </trkpt>
      <trkpt lat="43.5376" lon="1.20854">
        <ele>208.264989</ele>
        <time>2026-04-17T14:15:37.922Z</time>
      </trkpt>
      <trkpt lat="43.5376" lon="1.20848">
        <ele>208.263164</ele>
        <time>2026-04-17T14:15:38.651Z</time>
      </trkpt>
      <trkpt lat="43.53786" lon="1.2072">
        <ele>208.016789</ele>
        <time>2026-04-17T14:15:54.237Z</time>
      </trkpt>
      <trkpt lat="43.53788" lon="1.20687">
        <ele>207.920002</ele>
        <time>2026-04-17T14:15:58.087Z</time>
      </trkpt>
      <trkpt lat="43.53794" lon="1.20678">
        <ele>207.886131</ele>
        <time>2026-04-17T14:15:59.426Z</time>
      </trkpt>
      <trkpt lat="43.538" lon="1.20674">
        <ele>207.857117</ele>
        <time>2026-04-17T14:16:00.583Z</time>
      </trkpt>
      <trkpt lat="43.53838" lon="1.20702">
        <ele>207.689672</ele>
        <time>2026-04-17T14:16:07.251Z</time>
      </trkpt>
      <trkpt lat="43.53867" lon="1.20713">
        <ele>207.568454</ele>
        <time>2026-04-17T14:16:12.080Z</time>
      </trkpt>
      <trkpt lat="43.53889" lon="1.20714">
        <ele>207.446734</ele>
        <time>2026-04-17T14:16:15.633Z</time>
      </trkpt>
      <trkpt lat="43.53925" lon="1.20714">
        <ele>207.206688</ele>
        <time>2026-04-17T14:16:21.607Z</time>
      </trkpt>
      <trkpt lat="43.53945" lon="1.20723">
        <ele>207.064167</ele>
        <time>2026-04-17T14:16:25.059Z</time>
      </trkpt>
      <trkpt lat="43.53951" lon="1.20704">
        <ele>206.967517</ele>
        <time>2026-04-17T14:16:27.337Z</time>
      </trkpt>
      <trkpt lat="43.53954" lon="1.20707">
        <ele>206.945212</ele>
        <time>2026-04-17T14:16:29.629Z</time>
      </trkpt>
      <trkpt lat="43.53954" lon="1.20721">
        <ele>206.876092</ele>
        <time>2026-04-17T14:16:36.823Z</time>
      </trkpt>
      <trkpt lat="43.5396" lon="1.20733">
        <ele>206.804866</ele>
        <time>2026-04-17T14:16:44.280Z</time>
      </trkpt>
      <trkpt lat="43.53972" lon="1.2075">
        <ele>206.689015</ele>
        <time>2026-04-17T14:16:56.307Z</time>
      </trkpt>
      <trkpt lat="43.53984" lon="1.20787">
        <ele>206.493802</ele>
        <time>2026-04-17T14:17:16.687Z</time>
      </trkpt>
      <trkpt lat="43.53986" lon="1.2081">
        <ele>206.382054</ele>
        <time>2026-04-17T14:17:28.328Z</time>
      </trkpt>
      <trkpt lat="43.5399" lon="1.2081">
        <ele>206.352033</ele>
        <time>2026-04-17T14:17:31.464Z</time>
      </trkpt>
      <trkpt lat="43.54019" lon="1.20797">
        <ele>206.144953</ele>
        <time>2026-04-17T14:17:40.479Z</time>
      </trkpt>
      <trkpt lat="43.54052" lon="1.20806">
        <ele>205.918135</ele>
        <time>2026-04-17T14:17:50.295Z</time>
      </trkpt>
      <trkpt lat="43.54085" lon="1.20809">
        <ele>205.697602</ele>
        <time>2026-04-17T14:17:59.865Z</time>
      </trkpt>
      <trkpt lat="43.54086" lon="1.20815">
        <ele>205.666749</ele>
        <time>2026-04-17T14:18:01.212Z</time>
      </trkpt>
      <trkpt lat="43.54092" lon="1.2082">
        <ele>205.621566</ele>
        <time>2026-04-17T14:18:03.189Z</time>
      </trkpt>
      <trkpt lat="43.54099" lon="1.20825">
        <ele>205.563817</ele>
        <time>2026-04-17T14:18:05.704Z</time>
      </trkpt>
      <trkpt lat="43.54093" lon="1.20875">
        <ele>205.315964</ele>
        <time>2026-04-17T14:18:16.832Z</time>
      </trkpt>
      <trkpt lat="43.54095" lon="1.20938">
        <ele>205.082864</ele>
        <time>2026-04-17T14:18:31.413Z</time>
      </trkpt>
      <trkpt lat="43.54096" lon="1.20978">
        <ele>205.019785</ele>
        <time>2026-04-17T14:18:40.824Z</time>
      </trkpt>
      <trkpt lat="43.541" lon="1.21018">
        <ele>204.954859</ele>
        <time>2026-04-17T14:18:50.315Z</time>
      </trkpt>
      <trkpt lat="43.54099" lon="1.21033">
        <ele>204.931362</ele>
        <time>2026-04-17T14:18:53.692Z</time>
      </trkpt>
      <trkpt lat="43.54096" lon="1.21039">
        <ele>204.920147</ele>
        <time>2026-04-17T14:18:55.314Z</time>
      </trkpt>
      <trkpt lat="43.54081" lon="1.21055">
        <ele>204.879277</ele>
        <time>2026-04-17T14:19:01.135Z</time>
      </trkpt>
      <trkpt lat="43.54073" lon="1.21067">
        <ele>204.852299</ele>
        <time>2026-04-17T14:19:04.988Z</time>
      </trkpt>
      <trkpt lat="43.5407" lon="1.21086">
        <ele>204.822486</ele>
        <time>2026-04-17T14:19:09.201Z</time>
      </trkpt>
      <trkpt lat="43.54074" lon="1.21164">
        <ele>204.653235</ele>
        <time>2026-04-17T14:19:26.529Z</time>
      </trkpt>
      <trkpt lat="43.54074" lon="1.21184">
        <ele>204.570201</ele>
        <time>2026-04-17T14:19:31.022Z</time>
      </trkpt>
      <trkpt lat="43.5407" lon="1.21195">
        <ele>204.521696</ele>
        <time>2026-04-17T14:19:33.635Z</time>
      </trkpt>
      <trkpt lat="43.54054" lon="1.21211">
        <ele>204.414018</ele>
        <time>2026-04-17T14:19:39.376Z</time>
      </trkpt>
      <trkpt lat="43.54047" lon="1.21223">
        <ele>204.352072</ele>
        <time>2026-04-17T14:19:42.658Z</time>
      </trkpt>
      <trkpt lat="43.54039" lon="1.21268">
        <ele>204.163894</ele>
        <time>2026-04-17T14:19:52.746Z</time>
      </trkpt>
      <trkpt lat="43.54033" lon="1.21275">
        <ele>204.118045</ele>
        <time>2026-04-17T14:19:55.216Z</time>
      </trkpt>
      <trkpt lat="43.5396" lon="1.21291">
        <ele>203.702618</ele>
        <time>2026-04-17T14:20:17.805Z</time>
      </trkpt>
      <trkpt lat="43.53952" lon="1.21287">
        <ele>203.663774</ele>
        <time>2026-04-17T14:20:20.352Z</time>
      </trkpt>
      <trkpt lat="43.53936" lon="1.21324">
        <ele>203.518536</ele>
        <time>2026-04-17T14:20:29.980Z</time>
      </trkpt>
      <trkpt lat="43.5394" lon="1.21353">
        <ele>203.419481</ele>
        <time>2026-04-17T14:20:36.555Z</time>
      </trkpt>
      <trkpt lat="43.53957" lon="1.21408">
        <ele>203.222765</ele>
        <time>2026-04-17T14:20:49.659Z</time>
      </trkpt>
      <trkpt lat="43.5396" lon="1.21413">
        <ele>203.199873</ele>
        <time>2026-04-17T14:20:51.168Z</time>
      </trkpt>
      <trkpt lat="43.53962" lon="1.21417">
        <ele>203.185601</ele>
        <time>2026-04-17T14:20:52.128Z</time>
      </trkpt>
      <trkpt lat="43.53972" lon="1.21411">
        <ele>203.137307</ele>
        <time>2026-04-17T14:20:55.315Z</time>
      </trkpt>
      <trkpt lat="43.53994" lon="1.21395">
        <ele>203.022735</ele>
        <time>2026-04-17T14:21:02.918Z</time>
      </trkpt>
      <trkpt lat="43.54024" lon="1.21378">
        <ele>202.884513</ele>
        <time>2026-04-17T14:21:12.744Z</time>
      </trkpt>
      <trkpt lat="43.54042" lon="1.21375">
        <ele>202.844626</ele>
        <time>2026-04-17T14:21:18.567Z</time>
      </trkpt>
      <trkpt lat="43.54075" lon="1.21372">
        <ele>202.774961</ele>
        <time>2026-04-17T14:21:28.814Z</time>
      </trkpt>
      <trkpt lat="43.54084" lon="1.21375">
        <ele>202.755978</ele>
        <time>2026-04-17T14:21:31.627Z</time>
      </trkpt>
      <trkpt lat="43.54095" lon="1.21399">
        <ele>202.712719</ele>
        <time>2026-04-17T14:21:37.990Z</time>
      </trkpt>
      <trkpt lat="43.54099" lon="1.21418">
        <ele>202.681038</ele>
        <time>2026-04-17T14:21:42.638Z</time>
      </trkpt>
      <trkpt lat="43.54112" lon="1.21447">
        <ele>202.629455</ele>
        <time>2026-04-17T14:21:50.266Z</time>
      </trkpt>
      <trkpt lat="43.54116" lon="1.2147">
        <ele>202.593509</ele>
        <time>2026-04-17T14:21:55.634Z</time>
      </trkpt>
      <trkpt lat="43.5412" lon="1.21473">
        <ele>202.584076</ele>
        <time>2026-04-17T14:21:57.038Z</time>
      </trkpt>
      <trkpt lat="43.54144" lon="1.21463">
        <ele>202.530954</ele>
        <time>2026-04-17T14:22:05.053Z</time>
      </trkpt>
      <trkpt lat="43.5416" lon="1.2146">
        <ele>202.503845</ele>
        <time>2026-04-17T14:22:10.393Z</time>
      </trkpt>
      <trkpt lat="43.54166" lon="1.21472">
        <ele>202.492593</ele>
        <time>2026-04-17T14:22:13.661Z</time>
      </trkpt>
      <trkpt lat="43.54173" lon="1.21521">
        <ele>202.452635</ele>
        <time>2026-04-17T14:22:25.303Z</time>
      </trkpt>
      <trkpt lat="43.5418" lon="1.21548">
        <ele>202.430425</ele>
        <time>2026-04-17T14:22:31.794Z</time>
      </trkpt>
      <trkpt lat="43.54189" lon="1.21559">
        <ele>202.416565</ele>
        <time>2026-04-17T14:22:35.841Z</time>
      </trkpt>
      <trkpt lat="43.54191" lon="1.21562">
        <ele>202.413347</ele>
        <time>2026-04-17T14:22:37.906Z</time>
      </trkpt>
      <trkpt lat="43.54187" lon="1.21573">
        <ele>202.403912</ele>
        <time>2026-04-17T14:22:39.365Z</time>
      </trkpt>
      <trkpt lat="43.5419" lon="1.2158">
        <ele>202.397988</ele>
        <time>2026-04-17T14:22:40.281Z</time>
      </trkpt>
      <trkpt lat="43.54194" lon="1.21586">
        <ele>202.390906</ele>
        <time>2026-04-17T14:22:41.359Z</time>
      </trkpt>
      <trkpt lat="43.5422" lon="1.21605">
        <ele>202.359169</ele>
        <time>2026-04-17T14:22:46.217Z</time>
      </trkpt>
      <trkpt lat="43.54226" lon="1.2161">
        <ele>202.351902</ele>
        <time>2026-04-17T14:22:47.295Z</time>
      </trkpt>
      <trkpt lat="43.54226" lon="1.21624">
        <ele>202.340691</ele>
        <time>2026-04-17T14:22:49.019Z</time>
      </trkpt>
      <trkpt lat="43.54228" lon="1.21628">
        <ele>202.336849</ele>
        <time>2026-04-17T14:22:49.593Z</time>
      </trkpt>
      <trkpt lat="43.54233" lon="1.21633">
        <ele>202.3299</ele>
        <time>2026-04-17T14:22:50.654Z</time>
      </trkpt>
      <trkpt lat="43.5424" lon="1.21634">
        <ele>202.322793</ele>
        <time>2026-04-17T14:22:51.700Z</time>
      </trkpt>
      <trkpt lat="43.54246" lon="1.2163">
        <ele>202.314985</ele>
        <time>2026-04-17T14:22:52.760Z</time>
      </trkpt>
      <trkpt lat="43.5426" lon="1.21632">
        <ele>202.288367</ele>
        <time>2026-04-17T14:22:55.008Z</time>
      </trkpt>
      <trkpt lat="43.54266" lon="1.21636">
        <ele>202.275686</ele>
        <time>2026-04-17T14:22:56.078Z</time>
      </trkpt>
      <trkpt lat="43.54283" lon="1.21648">
        <ele>202.238212</ele>
        <time>2026-04-17T14:22:59.214Z</time>
      </trkpt>
      <trkpt lat="43.54288" lon="1.21654">
        <ele>202.22557</ele>
        <time>2026-04-17T14:23:00.269Z</time>
      </trkpt>
      <trkpt lat="43.54294" lon="1.21659">
        <ele>202.213404</ele>
        <time>2026-04-17T14:23:01.309Z</time>
      </trkpt>
      <trkpt lat="43.54302" lon="1.21673">
        <ele>202.188501</ele>
        <time>2026-04-17T14:23:03.416Z</time>
      </trkpt>
      <trkpt lat="43.54304" lon="1.21684">
        <ele>202.173723</ele>
        <time>2026-04-17T14:23:04.664Z</time>
      </trkpt>
      <trkpt lat="43.54315" lon="1.21692">
        <ele>202.150292</ele>
        <time>2026-04-17T14:23:06.670Z</time>
      </trkpt>
      <trkpt lat="43.54326" lon="1.21689">
        <ele>202.129065</ele>
        <time>2026-04-17T14:23:08.502Z</time>
      </trkpt>
      <trkpt lat="43.54332" lon="1.21677">
        <ele>202.109724</ele>
        <time>2026-04-17T14:23:10.174Z</time>
      </trkpt>
      <trkpt lat="43.54331" lon="1.21664">
        <ele>202.091182</ele>
        <time>2026-04-17T14:23:11.796Z</time>
      </trkpt>
      <trkpt lat="43.54329" lon="1.21658">
        <ele>202.081681</ele>
        <time>2026-04-17T14:23:12.617Z</time>
      </trkpt>
      <trkpt lat="43.54333" lon="1.2164">
        <ele>202.055889</ele>
        <time>2026-04-17T14:23:14.877Z</time>
      </trkpt>
      <trkpt lat="43.54336" lon="1.21643">
        <ele>202.049237</ele>
        <time>2026-04-17T14:23:17.332Z</time>
      </trkpt>
      <trkpt lat="43.54333" lon="1.21654">
        <ele>202.032939</ele>
        <time>2026-04-17T14:23:23.286Z</time>
      </trkpt>
      <trkpt lat="43.54339" lon="1.21687">
        <ele>201.986537</ele>
        <time>2026-04-17T14:23:40.323Z</time>
      </trkpt>
      <trkpt lat="43.54348" lon="1.21704">
        <ele>201.968009</ele>
        <time>2026-04-17T14:23:50.837Z</time>
      </trkpt>
      <trkpt lat="43.5436" lon="1.21714">
        <ele>201.956302</ele>
        <time>2026-04-17T14:23:53.435Z</time>
      </trkpt>
      <trkpt lat="43.54404" lon="1.2178">
        <ele>201.902885</ele>
        <time>2026-04-17T14:24:04.933Z</time>
      </trkpt>
      <trkpt lat="43.54423" lon="1.21825">
        <ele>201.87118</ele>
        <time>2026-04-17T14:24:11.381Z</time>
      </trkpt>
      <trkpt lat="43.54458" lon="1.21898">
        <ele>201.744675</ele>
        <time>2026-04-17T14:24:21.717Z</time>
      </trkpt>
      <trkpt lat="43.54462" lon="1.21935">
        <ele>201.506941</ele>
        <time>2026-04-17T14:24:25.984Z</time>
      </trkpt>
      <trkpt lat="43.54462" lon="1.22008">
        <ele>201.051085</ele>
        <time>2026-04-17T14:24:33.796Z</time>
      </trkpt>
      <trkpt lat="43.54461" lon="1.2203">
        <ele>200.907284</ele>
        <time>2026-04-17T14:24:36.238Z</time>
      </trkpt>
      <trkpt lat="43.54457" lon="1.22074">
        <ele>200.631115</ele>
        <time>2026-04-17T14:24:40.914Z</time>
      </trkpt>
      <trkpt lat="43.54453" lon="1.22094">
        <ele>200.499946</ele>
        <time>2026-04-17T14:24:43.172Z</time>
      </trkpt>
      <trkpt lat="43.54453" lon="1.22096">
        <ele>200.488108</ele>
        <time>2026-04-17T14:24:43.380Z</time>
      </trkpt>
      <trkpt lat="43.54435" lon="1.22169">
        <ele>199.990134</ele>
        <time>2026-04-17T14:24:51.798Z</time>
      </trkpt>
      <trkpt lat="43.54428" lon="1.22196">
        <ele>199.805531</ele>
        <time>2026-04-17T14:24:54.797Z</time>
      </trkpt>
      <trkpt lat="43.54416" lon="1.22246">
        <ele>199.461826</ele>
        <time>2026-04-17T14:25:00.537Z</time>
      </trkpt>
      <trkpt lat="43.54415" lon="1.22261">
        <ele>199.363971</ele>
        <time>2026-04-17T14:25:02.170Z</time>
      </trkpt>
      <trkpt lat="43.54401" lon="1.22314">
        <ele>198.995525</ele>
        <time>2026-04-17T14:25:08.434Z</time>
      </trkpt>
      <trkpt lat="43.544" lon="1.22332">
        <ele>198.878755</ele>
        <time>2026-04-17T14:25:10.445Z</time>
      </trkpt>
      <trkpt lat="43.54404" lon="1.22335">
        <ele>198.841695</ele>
        <time>2026-04-17T14:25:11.079Z</time>
      </trkpt>
      <trkpt lat="43.54412" lon="1.22344">
        <ele>198.749636</ele>
        <time>2026-04-17T14:25:12.685Z</time>
      </trkpt>
      <trkpt lat="43.54401" lon="1.22372">
        <ele>198.544352</ele>
        <time>2026-04-17T14:25:16.215Z</time>
      </trkpt>
      <trkpt lat="43.54388" lon="1.22422">
        <ele>198.204811</ele>
        <time>2026-04-17T14:25:22.001Z</time>
      </trkpt>
      <trkpt lat="43.54388" lon="1.22447">
        <ele>198.049471</ele>
        <time>2026-04-17T14:25:24.649Z</time>
      </trkpt>
      <trkpt lat="43.54377" lon="1.2249">
        <ele>197.760315</ele>
        <time>2026-04-17T14:25:29.579Z</time>
      </trkpt>
      <trkpt lat="43.54363" lon="1.22572">
        <ele>197.220667</ele>
        <time>2026-04-17T14:25:38.728Z</time>
      </trkpt>
      <trkpt lat="43.54375" lon="1.22598">
        <ele>197.042274</ele>
        <time>2026-04-17T14:25:41.982Z</time>
      </trkpt>
      <trkpt lat="43.54406" lon="1.22636">
        <ele>196.815634</ele>
        <time>2026-04-17T14:25:48.335Z</time>
      </trkpt>
      <trkpt lat="43.54501" lon="1.22748">
        <ele>196.145253</ele>
        <time>2026-04-17T14:26:08.198Z</time>
      </trkpt>
      <trkpt lat="43.54501" lon="1.22748">
        <ele>196.145253</ele>
        <time>2026-04-17T14:26:08.210Z</time>
      </trkpt>
      <trkpt lat="43.54496" lon="1.22754">
        <ele>196.109094</ele>
        <time>2026-04-17T14:26:09.647Z</time>
      </trkpt>
      <trkpt lat="43.54503" lon="1.22746">
        <ele>196.103998</ele>
        <time>2026-04-17T14:26:11.573Z</time>
      </trkpt>
      <trkpt lat="43.54545" lon="1.22792">
        <ele>196.168812</ele>
        <time>2026-04-17T14:26:23.174Z</time>
      </trkpt>
      <trkpt lat="43.54564" lon="1.22765">
        <ele>196.200839</ele>
        <time>2026-04-17T14:26:28.907Z</time>
      </trkpt>
      <trkpt lat="43.54626" lon="1.22813">
        <ele>196.285861</ele>
        <time>2026-04-17T14:26:44.126Z</time>
      </trkpt>
      <trkpt lat="43.54688" lon="1.22862">
        <ele>196.302192</ele>
        <time>2026-04-17T14:26:59.356Z</time>
      </trkpt>
      <trkpt lat="43.54749" lon="1.22911">
        <ele>196.28971</ele>
        <time>2026-04-17T14:27:14.575Z</time>
      </trkpt>
      <trkpt lat="43.54749" lon="1.22911">
        <ele>196.28971</ele>
        <time>2026-04-17T14:27:14.581Z</time>
      </trkpt>
      <trkpt lat="43.54793" lon="1.22966">
        <ele>196.27591</ele>
        <time>2026-04-17T14:27:24.373Z</time>
      </trkpt>
      <trkpt lat="43.54799" lon="1.22974">
        <ele>196.238416</ele>
        <time>2026-04-17T14:27:25.624Z</time>
      </trkpt>
      <trkpt lat="43.54829" lon="1.23023">
        <ele>196.014729</ele>
        <time>2026-04-17T14:27:33.065Z</time>
      </trkpt>
      <trkpt lat="43.54839" lon="1.23039">
        <ele>195.938901</ele>
        <time>2026-04-17T14:27:35.599Z</time>
      </trkpt>
      <trkpt lat="43.54865" lon="1.23077">
        <ele>195.756548</ele>
        <time>2026-04-17T14:27:41.630Z</time>
      </trkpt>
      <trkpt lat="43.54885" lon="1.23094">
        <ele>195.646783</ele>
        <time>2026-04-17T14:27:45.232Z</time>
      </trkpt>
      <trkpt lat="43.549" lon="1.23119">
        <ele>195.535205</ele>
        <time>2026-04-17T14:27:48.866Z</time>
      </trkpt>
      <trkpt lat="43.54922" lon="1.23164">
        <ele>195.38689</ele>
        <time>2026-04-17T14:27:55.849Z</time>
      </trkpt>
      <trkpt lat="43.54998" lon="1.23297">
        <ele>195.130813</ele>
        <time>2026-04-17T14:28:17.792Z</time>
      </trkpt>
      <trkpt lat="43.5501" lon="1.2333">
        <ele>195.07462</ele>
        <time>2026-04-17T14:28:24.864Z</time>
      </trkpt>
      <trkpt lat="43.55025" lon="1.23397">
        <ele>195.445704</ele>
        <time>2026-04-17T14:28:40.062Z</time>
      </trkpt>
      <trkpt lat="43.55027" lon="1.23407">
        <ele>195.535675</ele>
        <time>2026-04-17T14:28:42.763Z</time>
      </trkpt>
      <trkpt lat="43.55029" lon="1.23417">
        <ele>195.616317</ele>
        <time>2026-04-17T14:28:45.149Z</time>
      </trkpt>
      <trkpt lat="43.55028" lon="1.2342">
        <ele>195.647925</ele>
        <time>2026-04-17T14:28:45.884Z</time>
      </trkpt>
      <trkpt lat="43.55041" lon="1.2342">
        <ele>195.792355</ele>
        <time>2026-04-17T14:28:49.096Z</time>
      </trkpt>
      <trkpt lat="43.5511" lon="1.23415">
        <ele>196.574706</ele>
        <time>2026-04-17T14:29:06.365Z</time>
      </trkpt>
      <trkpt lat="43.55119" lon="1.23403">
        <ele>196.720201</ele>
        <time>2026-04-17T14:29:09.412Z</time>
      </trkpt>
      <trkpt lat="43.55131" lon="1.23386">
        <ele>196.915383</ele>
        <time>2026-04-17T14:29:13.259Z</time>
      </trkpt>
      <trkpt lat="43.55135" lon="1.2338">
        <ele>196.979519</ele>
        <time>2026-04-17T14:29:14.490Z</time>
      </trkpt>
      <trkpt lat="43.55211" lon="1.23353">
        <ele>196.914948</ele>
        <time>2026-04-17T14:29:28.987Z</time>
      </trkpt>
      <trkpt lat="43.55213" lon="1.23352">
        <ele>196.909574</ele>
        <time>2026-04-17T14:29:29.309Z</time>
      </trkpt>
      <trkpt lat="43.55245" lon="1.23343">
        <ele>196.828764</ele>
        <time>2026-04-17T14:29:34.137Z</time>
      </trkpt>
      <trkpt lat="43.55251" lon="1.23355">
        <ele>196.801028</ele>
        <time>2026-04-17T14:29:35.758Z</time>
      </trkpt>
      <trkpt lat="43.55262" lon="1.23357">
        <ele>196.773352</ele>
        <time>2026-04-17T14:29:37.379Z</time>
      </trkpt>
      <trkpt lat="43.55268" lon="1.23353">
        <ele>196.757445</ele>
        <time>2026-04-17T14:29:38.312Z</time>
      </trkpt>
      <trkpt lat="43.55272" lon="1.23346">
        <ele>196.741533</ele>
        <time>2026-04-17T14:29:39.258Z</time>
      </trkpt>
      <trkpt lat="43.55286" lon="1.23365">
        <ele>196.692203</ele>
        <time>2026-04-17T14:29:42.212Z</time>
      </trkpt>
      <trkpt lat="43.553" lon="1.23373">
        <ele>196.654103</ele>
        <time>2026-04-17T14:29:44.552Z</time>
      </trkpt>
      <trkpt lat="43.55345" lon="1.23338">
        <ele>196.472841</ele>
        <time>2026-04-17T14:29:53.068Z</time>
      </trkpt>
      <trkpt lat="43.55383" lon="1.23327">
        <ele>196.333094</ele>
        <time>2026-04-17T14:29:59.673Z</time>
      </trkpt>
      <trkpt lat="43.554" lon="1.23332">
        <ele>196.267865</ele>
        <time>2026-04-17T14:30:05.261Z</time>
      </trkpt>
      <trkpt lat="43.55438" lon="1.23331">
        <ele>196.128223</ele>
        <time>2026-04-17T14:30:17.012Z</time>
      </trkpt>
      <trkpt lat="43.5546" lon="1.23326">
        <ele>196.048589</ele>
        <time>2026-04-17T14:30:23.624Z</time>
      </trkpt>
      <trkpt lat="43.55502" lon="1.23267">
        <ele>195.822126</ele>
        <time>2026-04-17T14:30:42.993Z</time>
      </trkpt>
      <trkpt lat="43.55514" lon="1.23244">
        <ele>195.743895</ele>
        <time>2026-04-17T14:30:49.552Z</time>
      </trkpt>
      <trkpt lat="43.55531" lon="1.23165">
        <ele>195.51819</ele>
        <time>2026-04-17T14:31:08.635Z</time>
      </trkpt>
      <trkpt lat="43.55539" lon="1.23117">
        <ele>195.384443</ele>
        <time>2026-04-17T14:31:20.416Z</time>
      </trkpt>
      <trkpt lat="43.55581" lon="1.23083">
        <ele>195.336919</ele>
        <time>2026-04-17T14:31:37.798Z</time>
      </trkpt>
      <trkpt lat="43.55628" lon="1.23007">
        <ele>195.439081</ele>
        <time>2026-04-17T14:32:02.597Z</time>
      </trkpt>
      <trkpt lat="43.55656" lon="1.22972">
        <ele>195.493478</ele>
        <time>2026-04-17T14:32:15.738Z</time>
      </trkpt>
      <trkpt lat="43.55656" lon="1.22972">
        <ele>195.493478</ele>
        <time>2026-04-17T14:32:15.746Z</time>
      </trkpt>
      <trkpt lat="43.55671" lon="1.22879">
        <ele>195.682926</ele>
        <time>2026-04-17T14:32:30.492Z</time>
      </trkpt>
      <trkpt lat="43.5573" lon="1.22887">
        <ele>195.975341</ele>
        <time>2026-04-17T14:32:43.179Z</time>
      </trkpt>
      <trkpt lat="43.55732" lon="1.22769">
        <ele>196.394775</ele>
        <time>2026-04-17T14:33:01.377Z</time>
      </trkpt>
      <trkpt lat="43.55734" lon="1.22652">
        <ele>197.146787</ele>
        <time>2026-04-17T14:33:19.575Z</time>
      </trkpt>
      <trkpt lat="43.55734" lon="1.22652">
        <ele>197.146787</ele>
        <time>2026-04-17T14:33:19.580Z</time>
      </trkpt>
      <trkpt lat="43.55776" lon="1.22655">
        <ele>197.541839</ele>
        <time>2026-04-17T14:33:28.762Z</time>
      </trkpt>
      <trkpt lat="43.55778" lon="1.22642">
        <ele>197.635435</ele>
        <time>2026-04-17T14:33:31.250Z</time>
      </trkpt>
      <trkpt lat="43.55766" lon="1.22579">
        <ele>198.074576</ele>
        <time>2026-04-17T14:33:42.576Z</time>
      </trkpt>
      <trkpt lat="43.55766" lon="1.22565">
        <ele>198.135737</ele>
        <time>2026-04-17T14:33:44.884Z</time>
      </trkpt>
      <trkpt lat="43.55769" lon="1.2255">
        <ele>198.175963</ele>
        <time>2026-04-17T14:33:47.577Z</time>
      </trkpt>
      <trkpt lat="43.55789" lon="1.22519">
        <ele>198.279097</ele>
        <time>2026-04-17T14:33:54.395Z</time>
      </trkpt>
      <trkpt lat="43.55859" lon="1.22414">
        <ele>198.634666</ele>
        <time>2026-04-17T14:34:16.668Z</time>
      </trkpt>
      <trkpt lat="43.55906" lon="1.22491">
        <ele>198.63552</ele>
        <time>2026-04-17T14:34:30.473Z</time>
      </trkpt>
      <trkpt lat="43.55966" lon="1.22609">
        <ele>198.38152</ele>
        <time>2026-04-17T14:35:02.540Z</time>
      </trkpt>
      <trkpt lat="43.56045" lon="1.22878">
        <ele>198.456144</ele>
        <time>2026-04-17T14:36:10.411Z</time>
      </trkpt>
      <trkpt lat="43.56059" lon="1.22896">
        <ele>198.429081</ele>
        <time>2026-04-17T14:36:16.391Z</time>
      </trkpt>
      <trkpt lat="43.56151" lon="1.23019">
        <ele>198.21285</ele>
        <time>2026-04-17T14:36:41.521Z</time>
      </trkpt>
      <trkpt lat="43.56144" lon="1.23039">
        <ele>198.186817</ele>
        <time>2026-04-17T14:36:44.543Z</time>
      </trkpt>
      <trkpt lat="43.56097" lon="1.23146">
        <ele>196.598867</ele>
        <time>2026-04-17T14:37:01.283Z</time>
      </trkpt>
      <trkpt lat="43.56087" lon="1.23165">
        <ele>196.218558</ele>
        <time>2026-04-17T14:37:04.314Z</time>
      </trkpt>
      <trkpt lat="43.56091" lon="1.23172">
        <ele>196.078202</ele>
        <time>2026-04-17T14:37:05.237Z</time>
      </trkpt>
      <trkpt lat="43.56168" lon="1.23264">
        <ele>193.391912</ele>
        <time>2026-04-17T14:37:17.879Z</time>
      </trkpt>
      <trkpt lat="43.5619" lon="1.23283">
        <ele>192.085301</ele>
        <time>2026-04-17T14:37:20.884Z</time>
      </trkpt>
      <trkpt lat="43.56297" lon="1.23322">
        <ele>186.618619</ele>
        <time>2026-04-17T14:37:33.425Z</time>
      </trkpt>
      <trkpt lat="43.56324" lon="1.23327">
        <ele>185.378522</ele>
        <time>2026-04-17T14:37:36.597Z</time>
      </trkpt>
      <trkpt lat="43.56303" lon="1.23429">
        <ele>184.95963</ele>
        <time>2026-04-17T14:37:58.830Z</time>
      </trkpt>
      <trkpt lat="43.56296" lon="1.2345">
        <ele>184.865392</ele>
        <time>2026-04-17T14:38:04.775Z</time>
      </trkpt>
      <trkpt lat="43.56277" lon="1.2355">
        <ele>184.453739</ele>
        <time>2026-04-17T14:38:35.266Z</time>
      </trkpt>
      <trkpt lat="43.56275" lon="1.23579">
        <ele>184.557201</ele>
        <time>2026-04-17T14:38:44.132Z</time>
      </trkpt>
      <trkpt lat="43.56281" lon="1.23637">
        <ele>185.128853</ele>
        <time>2026-04-17T14:39:02.560Z</time>
      </trkpt>
      <trkpt lat="43.56291" lon="1.23732">
        <ele>186.051292</ele>
        <time>2026-04-17T14:39:31.496Z</time>
      </trkpt>
      <trkpt lat="43.56296" lon="1.23834">
        <ele>186.702729</ele>
        <time>2026-04-17T14:39:58.251Z</time>
      </trkpt>
      <trkpt lat="43.56301" lon="1.23874">
        <ele>186.531042</ele>
        <time>2026-04-17T14:40:07.950Z</time>
      </trkpt>
      <trkpt lat="43.56305" lon="1.23962">
        <ele>186.166833</ele>
        <time>2026-04-17T14:40:27.852Z</time>
      </trkpt>
      <trkpt lat="43.56312" lon="1.24055">
        <ele>185.776719</ele>
        <time>2026-04-17T14:40:48.899Z</time>
      </trkpt>
      <trkpt lat="43.56314" lon="1.24135">
        <ele>185.75375</ele>
        <time>2026-04-17T14:41:07.516Z</time>
      </trkpt>
      <trkpt lat="43.5632" lon="1.2418">
        <ele>185.744433</ele>
        <time>2026-04-17T14:41:18.211Z</time>
      </trkpt>
      <trkpt lat="43.56371" lon="1.24361">
        <ele>186.146097</ele>
        <time>2026-04-17T14:42:09.170Z</time>
      </trkpt>
      <trkpt lat="43.56371" lon="1.24373">
        <ele>186.222633</ele>
        <time>2026-04-17T14:42:12.932Z</time>
      </trkpt>
      <trkpt lat="43.56368" lon="1.24398">
        <ele>186.374782</ele>
        <time>2026-04-17T14:42:20.192Z</time>
      </trkpt>
      <trkpt lat="43.56333" lon="1.24477">
        <ele>186.940573</ele>
        <time>2026-04-17T14:42:46.437Z</time>
      </trkpt>
      <trkpt lat="43.56346" lon="1.24545">
        <ele>186.797817</ele>
        <time>2026-04-17T14:43:04.624Z</time>
      </trkpt>
      <trkpt lat="43.5634" lon="1.24578">
        <ele>186.131664</ele>
        <time>2026-04-17T14:43:12.178Z</time>
      </trkpt>
      <trkpt lat="43.56324" lon="1.24643">
        <ele>184.76856</ele>
        <time>2026-04-17T14:43:26.188Z</time>
      </trkpt>
      <trkpt lat="43.56332" lon="1.24673">
        <ele>184.139383</ele>
        <time>2026-04-17T14:43:31.963Z</time>
      </trkpt>
      <trkpt lat="43.56361" lon="1.24752">
        <ele>182.385084</ele>
        <time>2026-04-17T14:43:47.879Z</time>
      </trkpt>
      <trkpt lat="43.56393" lon="1.24795">
        <ele>181.283927</ele>
        <time>2026-04-17T14:43:58.949Z</time>
      </trkpt>
      <trkpt lat="43.56411" lon="1.24827">
        <ele>180.561825</ele>
        <time>2026-04-17T14:44:06.531Z</time>
      </trkpt>
      <trkpt lat="43.5642" lon="1.24836">
        <ele>180.305607</ele>
        <time>2026-04-17T14:44:09.263Z</time>
      </trkpt>
      <trkpt lat="43.56462" lon="1.2484">
        <ele>179.271587</ele>
        <time>2026-04-17T14:44:21.341Z</time>
      </trkpt>
      <trkpt lat="43.56487" lon="1.24836">
        <ele>178.651074</ele>
        <time>2026-04-17T14:44:28.991Z</time>
      </trkpt>
      <trkpt lat="43.56528" lon="1.24821">
        <ele>178.176049</ele>
        <time>2026-04-17T14:44:42.631Z</time>
      </trkpt>
      <trkpt lat="43.56535" lon="1.24825">
        <ele>178.301828</ele>
        <time>2026-04-17T14:44:45.004Z</time>
      </trkpt>
      <trkpt lat="43.56539" lon="1.2484">
        <ele>178.505078</ele>
        <time>2026-04-17T14:44:49.024Z</time>
      </trkpt>
      <trkpt lat="43.56561" lon="1.24865">
        <ele>179.002858</ele>
        <time>2026-04-17T14:44:59.767Z</time>
      </trkpt>
      <trkpt lat="43.56583" lon="1.24884">
        <ele>179.463946</ele>
        <time>2026-04-17T14:45:10.754Z</time>
      </trkpt>
      <trkpt lat="43.56601" lon="1.24908">
        <ele>179.903873</ele>
        <time>2026-04-17T14:45:21.906Z</time>
      </trkpt>
      <trkpt lat="43.56609" lon="1.24924">
        <ele>180.150941</ele>
        <time>2026-04-17T14:45:28.539Z</time>
      </trkpt>
      <trkpt lat="43.56669" lon="1.25111">
        <ele>182.798172</ele>
        <time>2026-04-17T14:46:40.745Z</time>
      </trkpt>
      <trkpt lat="43.56708" lon="1.25222">
        <ele>184.287861</ele>
        <time>2026-04-17T14:47:13.675Z</time>
      </trkpt>
      <trkpt lat="43.56716" lon="1.25259">
        <ele>183.938669</ele>
        <time>2026-04-17T14:47:22.219Z</time>
      </trkpt>
      <trkpt lat="43.5674" lon="1.25417">
        <ele>182.473623</ele>
        <time>2026-04-17T14:47:56.759Z</time>
      </trkpt>
      <trkpt lat="43.56755" lon="1.25492">
        <ele>182.14558</ele>
        <time>2026-04-17T14:48:13.751Z</time>
      </trkpt>
      <trkpt lat="43.56781" lon="1.25676">
        <ele>182.467159</ele>
        <time>2026-04-17T14:49:00.281Z</time>
      </trkpt>
      <trkpt lat="43.56782" lon="1.25692">
        <ele>182.495171</ele>
        <time>2026-04-17T14:49:05.196Z</time>
      </trkpt>
      <trkpt lat="43.56777" lon="1.25726">
        <ele>183.066876</ele>
        <time>2026-04-17T14:49:16.252Z</time>
      </trkpt>
      <trkpt lat="43.56762" lon="1.25797">
        <ele>184.687918</ele>
        <time>2026-04-17T14:49:41.489Z</time>
      </trkpt>
      <trkpt lat="43.56774" lon="1.25937">
        <ele>187.796328</ele>
        <time>2026-04-17T14:50:33.213Z</time>
      </trkpt>
      <trkpt lat="43.56762" lon="1.26019">
        <ele>189.194377</ele>
        <time>2026-04-17T14:51:02.398Z</time>
      </trkpt>
      <trkpt lat="43.56762" lon="1.26037">
        <ele>189.478519</ele>
        <time>2026-04-17T14:51:08.259Z</time>
      </trkpt>
      <trkpt lat="43.56762" lon="1.26061">
        <ele>189.872941</ele>
        <time>2026-04-17T14:51:13.259Z</time>
      </trkpt>
      <trkpt lat="43.56767" lon="1.2613">
        <ele>190.976734</ele>
        <time>2026-04-17T14:51:25.950Z</time>
      </trkpt>
      <trkpt lat="43.56768" lon="1.26179">
        <ele>191.765427</ele>
        <time>2026-04-17T14:51:34.270Z</time>
      </trkpt>
      <trkpt lat="43.56753" lon="1.26316">
        <ele>192.621369</ele>
        <time>2026-04-17T14:51:55.263Z</time>
      </trkpt>
      <trkpt lat="43.56751" lon="1.26367">
        <ele>192.889709</ele>
        <time>2026-04-17T14:52:02.406Z</time>
      </trkpt>
      <trkpt lat="43.56763" lon="1.26475">
        <ele>193.336406</ele>
        <time>2026-04-17T14:52:17.246Z</time>
      </trkpt>
      <trkpt lat="43.56776" lon="1.26591">
        <ele>193.567882</ele>
        <time>2026-04-17T14:52:32.518Z</time>
      </trkpt>
      <trkpt lat="43.5678" lon="1.26624">
        <ele>193.635249</ele>
        <time>2026-04-17T14:52:37.137Z</time>
      </trkpt>
      <trkpt lat="43.56777" lon="1.26632">
        <ele>193.651833</ele>
        <time>2026-04-17T14:52:38.456Z</time>
      </trkpt>
      <trkpt lat="43.56778" lon="1.26655">
        <ele>193.696191</ele>
        <time>2026-04-17T14:52:41.946Z</time>
      </trkpt>
      <trkpt lat="43.56777" lon="1.26674">
        <ele>193.735304</ele>
        <time>2026-04-17T14:52:45.004Z</time>
      </trkpt>
      <trkpt lat="43.56777" lon="1.2668">
        <ele>193.746634</ele>
        <time>2026-04-17T14:52:45.873Z</time>
      </trkpt>
      <trkpt lat="43.56775" lon="1.26701">
        <ele>193.7687</ele>
        <time>2026-04-17T14:52:49.075Z</time>
      </trkpt>
      <trkpt lat="43.56769" lon="1.26776">
        <ele>193.838527</ele>
        <time>2026-04-17T14:53:00.725Z</time>
      </trkpt>
      <trkpt lat="43.56748" lon="1.26773">
        <ele>193.866158</ele>
        <time>2026-04-17T14:53:04.707Z</time>
      </trkpt>
      <trkpt lat="43.56731" lon="1.26771">
        <ele>193.887171</ele>
        <time>2026-04-17T14:53:07.702Z</time>
      </trkpt>
      <trkpt lat="43.5672" lon="1.26768">
        <ele>193.90157</ele>
        <time>2026-04-17T14:53:09.728Z</time>
      </trkpt>
      <trkpt lat="43.56632" lon="1.26742">
        <ele>193.843014</ele>
        <time>2026-04-17T14:53:24.784Z</time>
      </trkpt>
      <trkpt lat="43.56624" lon="1.26746">
        <ele>193.797271</ele>
        <time>2026-04-17T14:53:26.264Z</time>
      </trkpt>
      <trkpt lat="43.56617" lon="1.26757">
        <ele>193.747367</ele>
        <time>2026-04-17T14:53:27.877Z</time>
      </trkpt>
      <trkpt lat="43.56575" lon="1.26829">
        <ele>193.412227</ele>
        <time>2026-04-17T14:53:38.580Z</time>
      </trkpt>
      <trkpt lat="43.56553" lon="1.26841">
        <ele>193.294318</ele>
        <time>2026-04-17T14:53:42.952Z</time>
      </trkpt>
      <trkpt lat="43.56508" lon="1.26922">
        <ele>192.903897</ele>
        <time>2026-04-17T14:53:56.171Z</time>
      </trkpt>
      <trkpt lat="43.56507" lon="1.26931">
        <ele>192.867711</ele>
        <time>2026-04-17T14:53:57.312Z</time>
      </trkpt>
      <trkpt lat="43.5651" lon="1.2694">
        <ele>192.825881</ele>
        <time>2026-04-17T14:53:58.635Z</time>
      </trkpt>
      <trkpt lat="43.56523" lon="1.26962">
        <ele>192.712777</ele>
        <time>2026-04-17T14:54:02.222Z</time>
      </trkpt>
      <trkpt lat="43.56522" lon="1.2697">
        <ele>192.679253</ele>
        <time>2026-04-17T14:54:03.285Z</time>
      </trkpt>
      <trkpt lat="43.56525" lon="1.26978">
        <ele>192.645866</ele>
        <time>2026-04-17T14:54:04.351Z</time>
      </trkpt>
      <trkpt lat="43.56528" lon="1.26981">
        <ele>192.623093</ele>
        <time>2026-04-17T14:54:05.098Z</time>
      </trkpt>
      <trkpt lat="43.56524" lon="1.26992">
        <ele>192.572476</ele>
        <time>2026-04-17T14:54:06.489Z</time>
      </trkpt>
      <trkpt lat="43.56493" lon="1.27016">
        <ele>192.375531</ele>
        <time>2026-04-17T14:54:12.063Z</time>
      </trkpt>
      <trkpt lat="43.56424" lon="1.2686">
        <ele>191.991323</ele>
        <time>2026-04-17T14:54:34.455Z</time>
      </trkpt>
      <trkpt lat="43.56401" lon="1.26806">
        <ele>191.941768</ele>
        <time>2026-04-17T14:54:42.028Z</time>
      </trkpt>
      <trkpt lat="43.56367" lon="1.26733">
        <ele>191.856709</ele>
        <time>2026-04-17T14:54:52.555Z</time>
      </trkpt>
      <trkpt lat="43.56332" lon="1.26665">
        <ele>191.660124</ele>
        <time>2026-04-17T14:55:02.504Z</time>
      </trkpt>
      <trkpt lat="43.56286" lon="1.26722">
        <ele>191.460104</ele>
        <time>2026-04-17T14:55:15.012Z</time>
      </trkpt>
      <trkpt lat="43.56215" lon="1.26806">
        <ele>190.550734</ele>
        <time>2026-04-17T14:55:31.823Z</time>
      </trkpt>
      <trkpt lat="43.56202" lon="1.26833">
        <ele>190.159107</ele>
        <time>2026-04-17T14:55:35.657Z</time>
      </trkpt>
      <trkpt lat="43.56189" lon="1.26871">
        <ele>189.638926</ele>
        <time>2026-04-17T14:55:40.724Z</time>
      </trkpt>
      <trkpt lat="43.56177" lon="1.26919">
        <ele>189.011592</ele>
        <time>2026-04-17T14:55:46.775Z</time>
      </trkpt>
      <trkpt lat="43.56174" lon="1.26937">
        <ele>188.779814</ele>
        <time>2026-04-17T14:55:48.989Z</time>
      </trkpt>
      <trkpt lat="43.56173" lon="1.26962">
        <ele>188.47462</ele>
        <time>2026-04-17T14:55:51.838Z</time>
      </trkpt>
      <trkpt lat="43.56175" lon="1.26976">
        <ele>188.301021</ele>
        <time>2026-04-17T14:55:53.443Z</time>
      </trkpt>
      <trkpt lat="43.56182" lon="1.27021">
        <ele>186.911875</ele>
        <time>2026-04-17T14:55:58.503Z</time>
      </trkpt>
      <trkpt lat="43.56203" lon="1.27076">
        <ele>184.940405</ele>
        <time>2026-04-17T14:56:05.060Z</time>
      </trkpt>
      <trkpt lat="43.56223" lon="1.27122">
        <ele>183.201303</ele>
        <time>2026-04-17T14:56:10.652Z</time>
      </trkpt>
      <trkpt lat="43.56226" lon="1.2714">
        <ele>182.616221</ele>
        <time>2026-04-17T14:56:12.469Z</time>
      </trkpt>
      <trkpt lat="43.56224" lon="1.27164">
        <ele>181.834154</ele>
        <time>2026-04-17T14:56:14.867Z</time>
      </trkpt>
      <trkpt lat="43.56213" lon="1.27263">
        <ele>178.5339</ele>
        <time>2026-04-17T14:56:24.476Z</time>
      </trkpt>
      <trkpt lat="43.56211" lon="1.27271">
        <ele>178.222746</ele>
        <time>2026-04-17T14:56:25.361Z</time>
      </trkpt>
      <trkpt lat="43.56207" lon="1.2728">
        <ele>177.869216</ele>
        <time>2026-04-17T14:56:26.364Z</time>
      </trkpt>
      <trkpt lat="43.56148" lon="1.27351">
        <ele>174.189631</ele>
        <time>2026-04-17T14:56:37.166Z</time>
      </trkpt>
      <trkpt lat="43.56148" lon="1.27368">
        <ele>173.619702</ele>
        <time>2026-04-17T14:56:38.629Z</time>
      </trkpt>
      <trkpt lat="43.56144" lon="1.27369">
        <ele>173.428355</ele>
        <time>2026-04-17T14:56:39.124Z</time>
      </trkpt>
      <trkpt lat="43.56013" lon="1.27495">
        <ele>169.444267</ele>
        <time>2026-04-17T14:57:00.624Z</time>
      </trkpt>
      <trkpt lat="43.55949" lon="1.27558">
        <ele>168.233905</ele>
        <time>2026-04-17T14:57:11.985Z</time>
      </trkpt>
      <trkpt lat="43.55944" lon="1.27563">
        <ele>168.189142</ele>
        <time>2026-04-17T14:57:12.904Z</time>
      </trkpt>
      <trkpt lat="43.55867" lon="1.27645">
        <ele>167.491235</ele>
        <time>2026-04-17T14:57:27.825Z</time>
      </trkpt>
      <trkpt lat="43.55849" lon="1.27606">
        <ele>167.252377</ele>
        <time>2026-04-17T14:57:34.059Z</time>
      </trkpt>
      <trkpt lat="43.55838" lon="1.27592">
        <ele>167.146054</ele>
        <time>2026-04-17T14:57:36.882Z</time>
      </trkpt>
      <trkpt lat="43.55844" lon="1.27541">
        <ele>167.112157</ele>
        <time>2026-04-17T14:57:43.157Z</time>
      </trkpt>
      <trkpt lat="43.55836" lon="1.27429">
        <ele>167.100372</ele>
        <time>2026-04-17T14:57:57.684Z</time>
      </trkpt>
      <trkpt lat="43.55832" lon="1.27405">
        <ele>167.097757</ele>
        <time>2026-04-17T14:58:00.776Z</time>
      </trkpt>
      <trkpt lat="43.55831" lon="1.27401">
        <ele>167.097284</ele>
        <time>2026-04-17T14:58:01.345Z</time>
      </trkpt>
      <trkpt lat="43.55815" lon="1.27353">
        <ele>167.091816</ele>
        <time>2026-04-17T14:58:07.754Z</time>
      </trkpt>
      <trkpt lat="43.55762" lon="1.27403">
        <ele>167.00291</ele>
        <time>2026-04-17T14:58:18.765Z</time>
      </trkpt>
      <trkpt lat="43.55666" lon="1.27492">
        <ele>166.831511</ele>
        <time>2026-04-17T14:58:37.707Z</time>
      </trkpt>
      <trkpt lat="43.55669" lon="1.27498">
        <ele>166.82391</ele>
        <time>2026-04-17T14:58:38.558Z</time>
      </trkpt>
      <trkpt lat="43.55604" lon="1.2756">
        <ele>166.759938</ele>
        <time>2026-04-17T14:58:54.026Z</time>
      </trkpt>
      <trkpt lat="43.55554" lon="1.27614">
        <ele>166.708586</ele>
        <time>2026-04-17T14:59:06.559Z</time>
      </trkpt>
      <trkpt lat="43.55545" lon="1.27632">
        <ele>166.696126</ele>
        <time>2026-04-17T14:59:09.621Z</time>
      </trkpt>
      <trkpt lat="43.55442" lon="1.278">
        <ele>166.552839</ele>
        <time>2026-04-17T14:59:41.057Z</time>
      </trkpt>
      <trkpt lat="43.55406" lon="1.27854">
        <ele>166.505208</ele>
        <time>2026-04-17T14:59:51.356Z</time>
      </trkpt>
      <trkpt lat="43.55403" lon="1.27858">
        <ele>166.501891</ele>
        <time>2026-04-17T14:59:52.161Z</time>
      </trkpt>
      <trkpt lat="43.55431" lon="1.27895">
        <ele>166.47018</ele>
        <time>2026-04-17T14:59:58.629Z</time>
      </trkpt>
      <trkpt lat="43.55454" lon="1.27909">
        <ele>166.450011</ele>
        <time>2026-04-17T15:00:02.773Z</time>
      </trkpt>
      <trkpt lat="43.55486" lon="1.27942">
        <ele>166.416544</ele>
        <time>2026-04-17T15:00:09.658Z</time>
      </trkpt>
      <trkpt lat="43.55507" lon="1.27965">
        <ele>166.394838</ele>
        <time>2026-04-17T15:00:14.175Z</time>
      </trkpt>
      <trkpt lat="43.55532" lon="1.27999">
        <ele>166.365204</ele>
        <time>2026-04-17T15:00:20.199Z</time>
      </trkpt>
      <trkpt lat="43.55577" lon="1.28067">
        <ele>166.2512</ele>
        <time>2026-04-17T15:00:31.353Z</time>
      </trkpt>
      <trkpt lat="43.55622" lon="1.28124">
        <ele>166.146991</ele>
        <time>2026-04-17T15:00:41.450Z</time>
      </trkpt>
      <trkpt lat="43.55649" lon="1.28154">
        <ele>166.086857</ele>
        <time>2026-04-17T15:00:47.212Z</time>
      </trkpt>
      <trkpt lat="43.55675" lon="1.28184">
        <ele>166.036089</ele>
        <time>2026-04-17T15:00:52.695Z</time>
      </trkpt>
      <trkpt lat="43.55753" lon="1.2827">
        <ele>165.906683</ele>
        <time>2026-04-17T15:01:09.421Z</time>
      </trkpt>
      <trkpt lat="43.55789" lon="1.28318">
        <ele>165.842122</ele>
        <time>2026-04-17T15:01:17.985Z</time>
      </trkpt>
      <trkpt lat="43.55824" lon="1.28386">
        <ele>165.727314</ele>
        <time>2026-04-17T15:01:28.246Z</time>
      </trkpt>
      <trkpt lat="43.55854" lon="1.28446">
        <ele>165.617268</ele>
        <time>2026-04-17T15:01:37.039Z</time>
      </trkpt>
      <trkpt lat="43.55879" lon="1.28502">
        <ele>165.518918</ele>
        <time>2026-04-17T15:01:44.840Z</time>
      </trkpt>
      <trkpt lat="43.55898" lon="1.28567">
        <ele>165.396934</ele>
        <time>2026-04-17T15:01:52.940Z</time>
      </trkpt>
      <trkpt lat="43.55908" lon="1.28604">
        <ele>165.309178</ele>
        <time>2026-04-17T15:01:57.562Z</time>
      </trkpt>
      <trkpt lat="43.5591" lon="1.28616">
        <ele>165.283088</ele>
        <time>2026-04-17T15:01:58.953Z</time>
      </trkpt>
      <trkpt lat="43.55909" lon="1.28624">
        <ele>165.264032</ele>
        <time>2026-04-17T15:01:59.955Z</time>
      </trkpt>
      <trkpt lat="43.5593" lon="1.28709">
        <ele>165.067669</ele>
        <time>2026-04-17T15:02:10.559Z</time>
      </trkpt>
      <trkpt lat="43.55945" lon="1.28769">
        <ele>164.927597</ele>
        <time>2026-04-17T15:02:18.210Z</time>
      </trkpt>
      <trkpt lat="43.55966" lon="1.28847">
        <ele>164.837029</ele>
        <time>2026-04-17T15:02:28.124Z</time>
      </trkpt>
      <trkpt lat="43.55967" lon="1.28863">
        <ele>164.821088</ele>
        <time>2026-04-17T15:02:30.122Z</time>
      </trkpt>
      <trkpt lat="43.55969" lon="1.28868">
        <ele>164.815592</ele>
        <time>2026-04-17T15:02:30.824Z</time>
      </trkpt>
      <trkpt lat="43.55973" lon="1.2887">
        <ele>164.809766</ele>
        <time>2026-04-17T15:02:31.556Z</time>
      </trkpt>
      <trkpt lat="43.55977" lon="1.28876">
        <ele>164.800969</ele>
        <time>2026-04-17T15:02:32.660Z</time>
      </trkpt>
      <trkpt lat="43.55981" lon="1.28886">
        <ele>164.790513</ele>
        <time>2026-04-17T15:02:33.958Z</time>
      </trkpt>
      <trkpt lat="43.55984" lon="1.28896">
        <ele>164.779674</ele>
        <time>2026-04-17T15:02:35.292Z</time>
      </trkpt>
      <trkpt lat="43.56008" lon="1.28959">
        <ele>164.710313</ele>
        <time>2026-04-17T15:02:43.949Z</time>
      </trkpt>
      <trkpt lat="43.56021" lon="1.28987">
        <ele>164.677996</ele>
        <time>2026-04-17T15:02:48.074Z</time>
      </trkpt>
      <trkpt lat="43.56024" lon="1.28993">
        <ele>164.670747</ele>
        <time>2026-04-17T15:02:48.990Z</time>
      </trkpt>
      <trkpt lat="43.56025" lon="1.29">
        <ele>164.66005</ele>
        <time>2026-04-17T15:02:49.880Z</time>
      </trkpt>
      <trkpt lat="43.56029" lon="1.29004">
        <ele>164.646337</ele>
        <time>2026-04-17T15:02:50.753Z</time>
      </trkpt>
      <trkpt lat="43.56035" lon="1.29011">
        <ele>164.625429</ele>
        <time>2026-04-17T15:02:52.072Z</time>
      </trkpt>
      <trkpt lat="43.56039" lon="1.29012">
        <ele>164.614904</ele>
        <time>2026-04-17T15:02:52.748Z</time>
      </trkpt>
      <trkpt lat="43.5604" lon="1.2903">
        <ele>164.580465</ele>
        <time>2026-04-17T15:02:54.908Z</time>
      </trkpt>
      <trkpt lat="43.56046" lon="1.29048">
        <ele>164.541147</ele>
        <time>2026-04-17T15:02:57.287Z</time>
      </trkpt>
      <trkpt lat="43.56065" lon="1.29103">
        <ele>164.423558</ele>
        <time>2026-04-17T15:03:04.281Z</time>
      </trkpt>
      <trkpt lat="43.56086" lon="1.29161">
        <ele>164.299935</ele>
        <time>2026-04-17T15:03:11.784Z</time>
      </trkpt>
      <trkpt lat="43.56086" lon="1.29171">
        <ele>164.280231</ele>
        <time>2026-04-17T15:03:13.001Z</time>
      </trkpt>
      <trkpt lat="43.56088" lon="1.29186">
        <ele>164.251631</ele>
        <time>2026-04-17T15:03:14.788Z</time>
      </trkpt>
      <trkpt lat="43.56088" lon="1.29186">
        <ele>164.250815</ele>
        <time>2026-04-17T15:03:14.841Z</time>
      </trkpt>
      <trkpt lat="43.56082" lon="1.2919">
        <ele>164.234527</ele>
        <time>2026-04-17T15:03:15.852Z</time>
      </trkpt>
      <trkpt lat="43.56078" lon="1.29198">
        <ele>164.214839</ele>
        <time>2026-04-17T15:03:17.073Z</time>
      </trkpt>
      <trkpt lat="43.56066" lon="1.29182">
        <ele>164.181764</ele>
        <time>2026-04-17T15:03:19.758Z</time>
      </trkpt>
      <trkpt lat="43.56049" lon="1.29174">
        <ele>164.162248</ele>
        <time>2026-04-17T15:03:22.769Z</time>
      </trkpt>
      <trkpt lat="43.56003" lon="1.29165">
        <ele>164.111636</ele>
        <time>2026-04-17T15:03:30.721Z</time>
      </trkpt>
      <trkpt lat="43.55962" lon="1.29157">
        <ele>164.066802</ele>
        <time>2026-04-17T15:03:38.352Z</time>
      </trkpt>
      <trkpt lat="43.55914" lon="1.29151">
        <ele>164.015025</ele>
        <time>2026-04-17T15:03:46.193Z</time>
      </trkpt>
      <trkpt lat="43.55886" lon="1.29154">
        <ele>163.973302</ele>
        <time>2026-04-17T15:03:50.620Z</time>
      </trkpt>
      <trkpt lat="43.55862" lon="1.29162">
        <ele>163.91244</ele>
        <time>2026-04-17T15:03:54.547Z</time>
      </trkpt>
      <trkpt lat="43.55837" lon="1.29171">
        <ele>163.84682</ele>
        <time>2026-04-17T15:03:58.760Z</time>
      </trkpt>
      <trkpt lat="43.55844" lon="1.29201">
        <ele>163.790748</ele>
        <time>2026-04-17T15:04:02.852Z</time>
      </trkpt>
      <trkpt lat="43.55847" lon="1.29213">
        <ele>163.766931</ele>
        <time>2026-04-17T15:04:05.976Z</time>
      </trkpt>
      <trkpt lat="43.5585" lon="1.29233">
        <ele>163.731202</ele>
        <time>2026-04-17T15:04:10.685Z</time>
      </trkpt>
      <trkpt lat="43.5586" lon="1.29263">
        <ele>163.67132</ele>
        <time>2026-04-17T15:04:18.556Z</time>
      </trkpt>
      <trkpt lat="43.55864" lon="1.29303">
        <ele>163.599233</ele>
        <time>2026-04-17T15:04:28.149Z</time>
      </trkpt>
      <trkpt lat="43.55876" lon="1.29345">
        <ele>163.533208</ele>
        <time>2026-04-17T15:04:39.415Z</time>
      </trkpt>
      <trkpt lat="43.55878" lon="1.29373">
        <ele>163.508115</ele>
        <time>2026-04-17T15:04:46.630Z</time>
      </trkpt>
      <trkpt lat="43.55879" lon="1.29385">
        <ele>163.496659</ele>
        <time>2026-04-17T15:04:49.927Z</time>
      </trkpt>
      <trkpt lat="43.55884" lon="1.29399">
        <ele>163.482517</ele>
        <time>2026-04-17T15:04:54.001Z</time>
      </trkpt>
      <trkpt lat="43.55915" lon="1.29396">
        <ele>163.444306</ele>
        <time>2026-04-17T15:05:04.790Z</time>
      </trkpt>
      <trkpt lat="43.55922" lon="1.29394">
        <ele>163.435771</ele>
        <time>2026-04-17T15:05:07.153Z</time>
      </trkpt>
      <trkpt lat="43.55934" lon="1.29396">
        <ele>163.420293</ele>
        <time>2026-04-17T15:05:11.397Z</time>
      </trkpt>
      <trkpt lat="43.55948" lon="1.29405">
        <ele>163.401399</ele>
        <time>2026-04-17T15:05:16.481Z</time>
      </trkpt>
      <trkpt lat="43.55957" lon="1.29415">
        <ele>163.387143</ele>
        <time>2026-04-17T15:05:20.286Z</time>
      </trkpt>
      <trkpt lat="43.55967" lon="1.29421">
        <ele>163.373243</ele>
        <time>2026-04-17T15:05:23.944Z</time>
      </trkpt>
      <trkpt lat="43.55987" lon="1.29423">
        <ele>163.348452</ele>
        <time>2026-04-17T15:05:30.348Z</time>
      </trkpt>
      <trkpt lat="43.55995" lon="1.29429">
        <ele>163.336642</ele>
        <time>2026-04-17T15:05:33.367Z</time>
      </trkpt>
      <trkpt lat="43.56011" lon="1.29457">
        <ele>163.211795</ele>
        <time>2026-04-17T15:05:41.392Z</time>
      </trkpt>
      <trkpt lat="43.56059" lon="1.29519">
        <ele>162.738604</ele>
        <time>2026-04-17T15:06:01.829Z</time>
      </trkpt>
      <trkpt lat="43.5608" lon="1.29553">
        <ele>162.504593</ele>
        <time>2026-04-17T15:06:12.013Z</time>
      </trkpt>
      <trkpt lat="43.5611" lon="1.29602">
        <ele>162.167973</ele>
        <time>2026-04-17T15:06:26.859Z</time>
      </trkpt>
      <trkpt lat="43.56132" lon="1.29643">
        <ele>162.044621</ele>
        <time>2026-04-17T15:06:38.885Z</time>
      </trkpt>
      <trkpt lat="43.56141" lon="1.2966">
        <ele>162.054644</ele>
        <time>2026-04-17T15:06:44.068Z</time>
      </trkpt>
      <trkpt lat="43.56151" lon="1.29667">
        <ele>162.061833</ele>
        <time>2026-04-17T15:06:47.826Z</time>
      </trkpt>
      <trkpt lat="43.56148" lon="1.29669">
        <ele>162.06393</ele>
        <time>2026-04-17T15:06:48.611Z</time>
      </trkpt>
      <trkpt lat="43.56146" lon="1.2967">
        <ele>162.065075</ele>
        <time>2026-04-17T15:06:49.256Z</time>
      </trkpt>
      <trkpt lat="43.56145" lon="1.29667">
        <ele>162.067128</ele>
        <time>2026-04-17T15:06:50.451Z</time>
      </trkpt>
      <trkpt lat="43.56119" lon="1.29689">
        <ele>162.086836</ele>
        <time>2026-04-17T15:07:02.130Z</time>
      </trkpt>
      <trkpt lat="43.56121" lon="1.29693">
        <ele>162.089003</ele>
        <time>2026-04-17T15:07:03.425Z</time>
      </trkpt>
      <trkpt lat="43.56079" lon="1.29729">
        <ele>162.121008</ele>
        <time>2026-04-17T15:07:12.750Z</time>
      </trkpt>
      <trkpt lat="43.56081" lon="1.29735">
        <ele>162.124083</ele>
        <time>2026-04-17T15:07:16.074Z</time>
      </trkpt>
      <trkpt lat="43.56069" lon="1.29742">
        <ele>162.133076</ele>
        <time>2026-04-17T15:07:18.580Z</time>
      </trkpt>
      <trkpt lat="43.56063" lon="1.29744">
        <ele>162.13668</ele>
        <time>2026-04-17T15:07:19.589Z</time>
      </trkpt>
      <trkpt lat="43.56059" lon="1.2975">
        <ele>162.140354</ele>
        <time>2026-04-17T15:07:20.609Z</time>
      </trkpt>
      <trkpt lat="43.56058" lon="1.2976">
        <ele>162.145169</ele>
        <time>2026-04-17T15:07:21.927Z</time>
      </trkpt>
      <trkpt lat="43.56061" lon="1.29766">
        <ele>162.148422</ele>
        <time>2026-04-17T15:07:22.827Z</time>
      </trkpt>
      <trkpt lat="43.56062" lon="1.29768">
        <ele>162.149571</ele>
        <time>2026-04-17T15:07:23.210Z</time>
      </trkpt>
      <trkpt lat="43.56067" lon="1.29771">
        <ele>162.150514</ele>
        <time>2026-04-17T15:07:24.149Z</time>
      </trkpt>
      <trkpt lat="43.56073" lon="1.29769">
        <ele>162.151482</ele>
        <time>2026-04-17T15:07:25.100Z</time>
      </trkpt>
      <trkpt lat="43.56077" lon="1.29765">
        <ele>162.152372</ele>
        <time>2026-04-17T15:07:25.999Z</time>
      </trkpt>
      <trkpt lat="43.5608" lon="1.29769">
        <ele>162.153143</ele>
        <time>2026-04-17T15:07:26.748Z</time>
      </trkpt>
      <trkpt lat="43.56155" lon="1.29837">
        <ele>162.168937</ele>
        <time>2026-04-17T15:07:56.798Z</time>
      </trkpt>
      <trkpt lat="43.56173" lon="1.29845">
        <ele>162.172422</ele>
        <time>2026-04-17T15:08:03.351Z</time>
      </trkpt>
      <trkpt lat="43.56184" lon="1.29839">
        <ele>162.174452</ele>
        <time>2026-04-17T15:08:07.197Z</time>
      </trkpt>
      <trkpt lat="43.56191" lon="1.29842">
        <ele>162.17567</ele>
        <time>2026-04-17T15:08:09.521Z</time>
      </trkpt>
      <trkpt lat="43.56218" lon="1.29888">
        <ele>162.145772</ele>
        <time>2026-04-17T15:08:23.843Z</time>
      </trkpt>
      <trkpt lat="43.56227" lon="1.29907">
        <ele>162.091557</ele>
        <time>2026-04-17T15:08:29.590Z</time>
      </trkpt>
      <trkpt lat="43.56259" lon="1.29971">
        <ele>161.912249</ele>
        <time>2026-04-17T15:08:48.389Z</time>
      </trkpt>
      <trkpt lat="43.56265" lon="1.29978">
        <ele>161.888437</ele>
        <time>2026-04-17T15:08:50.852Z</time>
      </trkpt>
      <trkpt lat="43.56294" lon="1.3001">
        <ele>161.768762</ele>
        <time>2026-04-17T15:08:58.004Z</time>
      </trkpt>
      <trkpt lat="43.5631" lon="1.30017">
        <ele>161.716436</ele>
        <time>2026-04-17T15:09:01.026Z</time>
      </trkpt>
      <trkpt lat="43.56321" lon="1.30024">
        <ele>161.676102</ele>
        <time>2026-04-17T15:09:03.187Z</time>
      </trkpt>
      <trkpt lat="43.56328" lon="1.30035">
        <ele>161.641499</ele>
        <time>2026-04-17T15:09:05.116Z</time>
      </trkpt>
      <trkpt lat="43.56347" lon="1.30051">
        <ele>161.571811</ele>
        <time>2026-04-17T15:09:09.005Z</time>
      </trkpt>
      <trkpt lat="43.56394" lon="1.3007">
        <ele>161.414644</ele>
        <time>2026-04-17T15:09:17.894Z</time>
      </trkpt>
      <trkpt lat="43.56423" lon="1.30086">
        <ele>161.316868</ele>
        <time>2026-04-17T15:09:23.668Z</time>
      </trkpt>
      <trkpt lat="43.56457" lon="1.30114">
        <ele>161.190007</ele>
        <time>2026-04-17T15:09:31.475Z</time>
      </trkpt>
      <trkpt lat="43.56507" lon="1.30135">
        <ele>161.024391</ele>
        <time>2026-04-17T15:09:43.659Z</time>
      </trkpt>
      <trkpt lat="43.56509" lon="1.30133">
        <ele>161.014396</ele>
        <time>2026-04-17T15:09:44.449Z</time>
      </trkpt>
      <trkpt lat="43.56534" lon="1.30158">
        <ele>160.919826</ele>
        <time>2026-04-17T15:09:50.698Z</time>
      </trkpt>
      <trkpt lat="43.56543" lon="1.30176">
        <ele>160.871467</ele>
        <time>2026-04-17T15:09:53.732Z</time>
      </trkpt>
      <trkpt lat="43.56555" lon="1.30288">
        <ele>160.618732</ele>
        <time>2026-04-17T15:10:08.668Z</time>
      </trkpt>
      <trkpt lat="43.56555" lon="1.30305">
        <ele>160.580004</ele>
        <time>2026-04-17T15:10:10.815Z</time>
      </trkpt>
      <trkpt lat="43.5655" lon="1.30343">
        <ele>160.494969</ele>
        <time>2026-04-17T15:10:15.531Z</time>
      </trkpt>
      <trkpt lat="43.56558" lon="1.30374">
        <ele>160.498534</ele>
        <time>2026-04-17T15:10:19.723Z</time>
      </trkpt>
      <trkpt lat="43.5656" lon="1.30403">
        <ele>160.517306</ele>
        <time>2026-04-17T15:10:23.453Z</time>
      </trkpt>
      <trkpt lat="43.56556" lon="1.30426">
        <ele>160.532568</ele>
        <time>2026-04-17T15:10:26.554Z</time>
      </trkpt>
      <trkpt lat="43.56552" lon="1.3044">
        <ele>160.542679</ele>
        <time>2026-04-17T15:10:28.635Z</time>
      </trkpt>
      <trkpt lat="43.56541" lon="1.30461">
        <ele>160.559083</ele>
        <time>2026-04-17T15:10:32.116Z</time>
      </trkpt>
      <trkpt lat="43.56515" lon="1.30483">
        <ele>160.586728</ele>
        <time>2026-04-17T15:10:38.531Z</time>
      </trkpt>
      <trkpt lat="43.56491" lon="1.30495">
        <ele>160.609283</ele>
        <time>2026-04-17T15:10:43.932Z</time>
      </trkpt>
      <trkpt lat="43.56457" lon="1.30499">
        <ele>160.640021</ele>
        <time>2026-04-17T15:10:51.577Z</time>
      </trkpt>
      <trkpt lat="43.56419" lon="1.30559">
        <ele>160.864423</ele>
        <time>2026-04-17T15:11:04.839Z</time>
      </trkpt>
      <trkpt lat="43.5641" lon="1.30599">
        <ele>160.988957</ele>
        <time>2026-04-17T15:11:11.283Z</time>
      </trkpt>
      <trkpt lat="43.564" lon="1.3064">
        <ele>161.114596</ele>
        <time>2026-04-17T15:11:17.525Z</time>
      </trkpt>
      <trkpt lat="43.5639" lon="1.30662">
        <ele>161.190184</ele>
        <time>2026-04-17T15:11:21.252Z</time>
      </trkpt>
      <trkpt lat="43.56375" lon="1.30712">
        <ele>161.349033</ele>
        <time>2026-04-17T15:11:29.214Z</time>
      </trkpt>
      <trkpt lat="43.56367" lon="1.30761">
        <ele>161.368419</ele>
        <time>2026-04-17T15:11:36.583Z</time>
      </trkpt>
      <trkpt lat="43.56354" lon="1.30793">
        <ele>161.368419</ele>
        <time>2026-04-17T15:11:41.711Z</time>
      </trkpt>
      <trkpt lat="43.56353" lon="1.30825">
        <ele>161.368419</ele>
        <time>2026-04-17T15:11:46.378Z</time>
      </trkpt>
      <trkpt lat="43.56352" lon="1.30839">
        <ele>161.368419</ele>
        <time>2026-04-17T15:11:48.532Z</time>
      </trkpt>
      <trkpt lat="43.56353" lon="1.30851">
        <ele>161.368419</ele>
        <time>2026-04-17T15:11:50.234Z</time>
      </trkpt>
      <trkpt lat="43.5636" lon="1.30871">
        <ele>161.368419</ele>
        <time>2026-04-17T15:11:53.577Z</time>
      </trkpt>
      <trkpt lat="43.56369" lon="1.30913">
        <ele>161.368419</ele>
        <time>2026-04-17T15:12:00.291Z</time>
      </trkpt>
      <trkpt lat="43.56371" lon="1.30955">
        <ele>161.368419</ele>
        <time>2026-04-17T15:12:06.630Z</time>
      </trkpt>
      <trkpt lat="43.56367" lon="1.30981">
        <ele>161.368419</ele>
        <time>2026-04-17T15:12:10.725Z</time>
      </trkpt>
    </trkseg>
  </trk>
</gpx>